[[{"header":{"parameterUnit":"m.s-1","parameterCategory":1,"la1":30.6,"la2":29.2853,"lo1":-89.7004,"lo2":-87.6739,"dy":0.0162,"dx":0.0183,"nx":112,"ny":82,"refTime":"2026-03-02T12:00:00:Z","depth":0,"parameterNumber":2,"parameterNumberName":"U-component_of_WINDS"},"data":[0.0,0.0,0.0,0.0,0.0,0.0,0.0,0.0,0.0,0.0,0.0,0.0,0.0,0.0,0.0,0.0,0.0,0.0,0.0,0.0,0.0,0.0,0.0,0.0,0.0,0.0,0.0,0.0,0.0,0.0,0.0,0.0,0.0,0.0,0.0,0.0,0.0,0.0,0.0,0.0,0.0,0.0,0.0,0.0,0.0,0.0,0.0,0.0,0.0,0.0,0.0,0.0,0.0,0.0,0.0,0.0,0.0,0.0,0.0,0.0,0.0,0.0,0.0,0.0,0.0,0.0,0.0,0.0,0.0,0.0,0.0,0.0,0.0,0.0,0.0,0.0,0.0,0.0,0.0,0.0,0.0,0.0,0.0,0.0,0.0,0.0,0.0,0.0,0.0,0.0,0.0,-2.3084,-2.5227,-2.6116,-2.5129,-2.4772,-2.3364,-2.0514,0.0,0.0,0.0,0.0,0.0,0.0,0.0,0.0,0.0,0.0,0.0,0.0,0.0,0.0,0.0,0.0,0.0,0.0,0.0,0.0,0.0,0.0,0.0,0.0,0.0,0.0,0.0,0.0,0.0,0.0,0.0,0.0,0.0,0.0,0.0,0.0,0.0,0.0,0.0,0.0,0.0,0.0,0.0,0.0,0.0,0.0,0.0,0.0,0.0,0.0,0.0,0.0,0.0,0.0,0.0,0.0,0.0,0.0,0.0,0.0,0.0,0.0,0.0,0.0,0.0,0.0,0.0,0.0,0.0,0.0,0.0,0.0,0.0,0.0,0.0,0.0,0.0,0.0,0.0,0.0,0.0,0.0,0.0,0.0,0.0,0.0,0.0,0.0,0.0,0.0,0.0,0.0,0.0,0.0,0.0,0.0,0.0,0.0,0.0,0.0,0.0,0.0,0.0,0.0,-2.0028,-2.3648,-2.4785,-2.5016,-2.4414,-2.3904,-2.2473,-1.9738,0.0,0.0,0.0,0.0,0.0,0.0,0.0,0.0,0.0,0.0,0.0,0.0,0.0,0.0,0.0,0.0,0.0,0.0,0.0,0.0,0.0,0.0,0.0,0.0,0.0,0.0,0.0,0.0,0.0,0.0,0.0,0.0,0.0,0.0,0.0,0.0,0.0,0.0,0.0,0.0,0.0,0.0,0.0,0.0,0.0,0.0,0.0,0.0,0.0,0.0,0.0,0.0,0.0,0.0,0.0,0.0,0.0,0.0,0.0,0.0,0.0,0.0,0.0,0.0,0.0,0.0,0.0,0.0,0.0,0.0,0.0,0.0,0.0,0.0,0.0,0.0,0.0,0.0,0.0,0.0,0.0,0.0,0.0,0.0,0.0,0.0,0.0,0.0,0.0,0.0,0.0,0.0,0.0,0.0,0.0,0.0,0.0,0.0,0.0,0.0,0.0,0.0,0.0,-1.9623,-2.1112,-2.3498,-2.4514,-2.4568,-2.3485,-2.3179,-2.1877,-1.9194,-1.8114,0.0,0.0,0.0,0.0,0.0,0.0,0.0,0.0,0.0,0.0,0.0,0.0,0.0,0.0,0.0,0.0,0.0,0.0,0.0,0.0,0.0,0.0,0.0,0.0,0.0,0.0,0.0,0.0,0.0,0.0,0.0,0.0,0.0,0.0,0.0,0.0,0.0,0.0,0.0,0.0,0.0,0.0,0.0,0.0,0.0,0.0,0.0,0.0,0.0,0.0,0.0,0.0,0.0,0.0,0.0,0.0,0.0,0.0,0.0,0.0,0.0,0.0,0.0,0.0,0.0,0.0,0.0,0.0,0.0,0.0,0.0,0.0,0.0,0.0,0.0,0.0,0.0,0.0,0.0,0.0,0.0,0.0,0.0,0.0,0.0,0.0,0.0,0.0,0.0,0.0,0.0,0.0,0.0,0.0,0.0,0.0,0.0,0.0,0.0,0.0,0.0,0.0,-2.1145,-2.2224,-2.3138,-2.4071,-2.4085,-2.2822,-2.2385,-2.1112,-1.8697,-1.7311,0.0,0.0,0.0,0.0,0.0,0.0,0.0,0.0,0.0,0.0,0.0,0.0,0.0,0.0,0.0,0.0,0.0,0.0,0.0,0.0,0.0,0.0,0.0,0.0,0.0,0.0,0.0,0.0,0.0,0.0,0.0,0.0,0.0,0.0,0.0,0.0,0.0,0.0,0.0,0.0,0.0,0.0,0.0,0.0,0.0,0.0,0.0,0.0,0.0,0.0,0.0,0.0,0.0,0.0,0.0,0.0,0.0,0.0,0.0,0.0,0.0,0.0,0.0,0.0,0.0,0.0,0.0,0.0,0.0,0.0,0.0,0.0,0.0,0.0,0.0,0.0,0.0,0.0,0.0,0.0,0.0,0.0,0.0,0.0,0.0,0.0,0.0,0.0,0.0,0.0,0.0,0.0,0.0,0.0,0.0,0.0,0.0,0.0,0.0,0.0,0.0,0.0,-2.0226,-2.2036,-2.266,-2.3202,-2.327,-2.2753,-2.1388,-1.9872,-1.8242,-1.6326,0.0,0.0,0.0,0.0,0.0,0.0,0.0,0.0,0.0,0.0,0.0,0.0,0.0,0.0,0.0,0.0,0.0,0.0,0.0,0.0,0.0,0.0,0.0,0.0,0.0,0.0,0.0,0.0,0.0,0.0,0.0,0.0,0.0,0.0,0.0,0.0,0.0,0.0,0.0,0.0,0.0,0.0,0.0,0.0,0.0,0.0,0.0,0.0,0.0,0.0,0.0,0.0,0.0,0.0,0.0,0.0,0.0,0.0,0.0,0.0,0.0,0.0,0.0,0.0,0.0,0.0,0.0,0.0,0.0,0.0,0.0,0.0,0.0,0.0,0.0,0.0,0.0,0.0,0.0,0.0,0.0,0.0,0.0,0.0,0.0,0.0,0.0,0.0,0.0,0.0,0.0,0.0,0.0,0.0,0.0,0.0,0.0,0.0,0.0,0.0,0.0,0.0,-1.8844,-2.0744,0.0,-2.2421,-2.251,-2.2043,-2.0951,-1.9513,-1.7757,0.0,0.0,0.0,0.0,0.0,0.0,0.0,0.0,0.0,0.0,0.0,0.0,0.0,0.0,0.0,0.0,0.0,0.0,0.0,0.0,0.0,0.0,0.0,0.0,0.0,0.0,0.0,0.0,0.0,0.0,0.0,0.0,0.0,0.0,0.0,0.0,0.0,0.0,0.0,0.0,0.0,0.0,0.0,0.0,0.0,0.0,0.0,0.0,0.0,0.0,0.0,0.0,0.0,0.0,0.0,0.0,0.0,0.0,0.0,0.0,0.0,0.0,0.0,0.0,0.0,0.0,0.0,0.0,0.0,0.0,0.0,0.0,0.0,0.0,0.0,0.0,0.0,0.0,0.0,0.0,0.0,0.0,0.0,0.0,0.0,0.0,0.0,0.0,0.0,0.0,0.0,0.0,0.0,0.0,0.0,0.0,0.0,0.0,0.0,0.0,0.0,0.0,-1.6306,-1.8346,-2.014,0.0,-2.1901,-2.1966,-2.1614,-2.0303,-1.8824,-1.7247,0.0,0.0,0.0,0.0,0.0,0.0,0.0,0.0,0.0,0.0,0.0,0.0,0.0,0.0,0.0,0.0,0.0,0.0,0.0,0.0,0.0,0.0,0.0,0.0,0.0,0.0,0.0,0.0,0.0,0.0,0.0,0.0,0.0,0.0,0.0,0.0,0.0,0.0,0.0,0.0,0.0,0.0,0.0,0.0,0.0,0.0,0.0,0.0,0.0,0.0,0.0,0.0,0.0,0.0,0.0,0.0,0.0,0.0,0.0,0.0,0.0,0.0,0.0,0.0,0.0,0.0,0.0,0.0,0.0,0.0,0.0,0.0,0.0,0.0,0.0,0.0,0.0,0.0,0.0,0.0,0.0,0.0,0.0,0.0,0.0,0.0,0.0,0.0,0.0,0.0,0.0,0.0,0.0,0.0,0.0,0.0,0.0,0.0,0.0,0.0,0.0,0.0,-1.6874,-1.8886,-2.0478,-2.1483,-2.1592,-2.1592,-2.1592,-1.9312,-1.7516,0.0,0.0,0.0,0.0,0.0,0.0,0.0,0.0,0.0,0.0,0.0,0.0,0.0,0.0,0.0,0.0,0.0,0.0,0.0,0.0,0.0,0.0,0.0,0.0,0.0,0.0,0.0,0.0,0.0,0.0,0.0,0.0,0.0,0.0,0.0,0.0,0.0,0.0,0.0,0.0,0.0,0.0,0.0,0.0,0.0,0.0,0.0,0.0,0.0,0.0,0.0,0.0,0.0,0.0,0.0,0.0,0.0,0.0,0.0,0.0,0.0,0.0,0.0,0.0,0.0,0.0,0.0,0.0,0.0,0.0,0.0,0.0,0.0,0.0,0.0,0.0,0.0,0.0,0.0,0.0,0.0,0.0,0.0,0.0,0.0,0.0,0.0,0.0,0.0,0.0,0.0,0.0,0.0,0.0,0.0,0.0,0.0,0.0,0.0,0.0,0.0,0.0,0.0,-1.59,-1.8048,-1.9754,-2.0656,-2.0751,-2.0751,-2.0751,-1.89,-1.7301,-1.6184,0.0,0.0,0.0,0.0,0.0,0.0,0.0,0.0,0.0,0.0,0.0,0.0,0.0,0.0,0.0,0.0,0.0,0.0,0.0,0.0,0.0,0.0,0.0,0.0,0.0,0.0,0.0,0.0,0.0,0.0,0.0,0.0,0.0,0.0,0.0,0.0,0.0,0.0,0.0,0.0,0.0,0.0,0.0,0.0,0.0,0.0,0.0,0.0,0.0,0.0,0.0,0.0,0.0,0.0,0.0,0.0,0.0,0.0,0.0,0.0,0.0,0.0,0.0,0.0,0.0,0.0,0.0,0.0,0.0,0.0,0.0,0.0,0.0,0.0,0.0,0.0,0.0,0.0,0.0,0.0,0.0,0.0,0.0,0.0,0.0,0.0,0.0,0.0,0.0,0.0,0.0,0.0,0.0,0.0,0.0,0.0,0.0,0.0,0.0,0.0,0.0,0.0,-1.5918,-1.7926,-1.9523,-2.0586,-2.0664,-2.0591,-2.0405,-1.8897,-1.7366,-1.5904,0.0,0.0,0.0,0.0,0.0,0.0,0.0,0.0,0.0,0.0,0.0,0.0,0.0,0.0,0.0,0.0,0.0,0.0,0.0,0.0,0.0,0.0,0.0,0.0,0.0,0.0,0.0,0.0,0.0,0.0,0.0,0.0,0.0,0.0,0.0,0.0,0.0,0.0,0.0,0.0,0.0,0.0,0.0,0.0,0.0,0.0,0.0,0.0,0.0,0.0,0.0,0.0,0.0,0.0,0.0,0.0,0.0,0.0,0.0,0.0,0.0,0.0,0.0,0.0,0.0,0.0,0.0,0.0,0.0,0.0,0.0,0.0,0.0,0.0,0.0,0.0,0.0,0.0,0.0,0.0,0.0,0.0,0.0,0.0,0.0,0.0,0.0,0.0,0.0,0.0,0.0,0.0,0.0,0.0,0.0,0.0,0.0,0.0,0.0,0.0,0.0,0.0,-1.6614,-1.8268,-1.9679,-2.0969,-2.1114,-2.0928,-2.0426,-1.921,-1.7698,-1.5894,0.0,0.0,0.0,0.0,0.0,0.0,0.0,0.0,0.0,0.0,0.0,0.0,0.0,0.0,0.0,0.0,0.0,0.0,0.0,0.0,0.0,0.0,0.0,0.0,0.0,0.0,0.0,0.0,0.0,0.0,0.0,0.0,0.0,0.0,0.0,0.0,0.0,0.0,0.0,0.0,0.0,0.0,0.0,0.0,0.0,0.0,0.0,0.0,0.0,0.0,0.0,0.0,0.0,0.0,0.0,0.0,0.0,0.0,0.0,0.0,-1.5989,0.0,0.0,0.0,0.0,0.0,0.0,0.0,0.0,0.0,0.0,0.0,0.0,0.0,0.0,0.0,0.0,0.0,0.0,0.0,0.0,0.0,0.0,0.0,0.0,0.0,0.0,0.0,0.0,0.0,0.0,0.0,0.0,0.0,0.0,0.0,0.0,0.0,0.0,0.0,0.0,0.0,-1.6696,-1.8547,-2.0031,-2.101,-2.1114,-2.0928,-2.0426,-1.9499,-1.8186,-1.6381,-1.4831,0.0,0.0,0.0,0.0,0.0,0.0,0.0,0.0,0.0,0.0,0.0,0.0,0.0,0.0,0.0,0.0,0.0,0.0,0.0,0.0,0.0,0.0,0.0,0.0,0.0,0.0,0.0,0.0,0.0,0.0,0.0,0.0,0.0,0.0,0.0,0.0,0.0,0.0,0.0,0.0,0.0,0.0,0.0,0.0,0.0,0.0,0.0,0.0,0.0,0.0,0.0,0.0,0.0,0.0,0.0,0.0,0.0,0.0,0.0,0.0,-1.6811,0.0,0.0,0.0,0.0,0.0,0.0,0.0,0.0,0.0,0.0,0.0,0.0,0.0,0.0,0.0,0.0,0.0,0.0,0.0,0.0,0.0,0.0,0.0,0.0,0.0,0.0,0.0,0.0,0.0,0.0,0.0,0.0,0.0,0.0,0.0,0.0,0.0,0.0,0.0,0.0,-1.6778,-1.8512,-1.9956,-2.1145,-2.1295,-2.1065,-2.0447,-1.9799,-1.8723,-1.7029,-1.5612,0.0,0.0,0.0,0.0,0.0,0.0,0.0,0.0,0.0,0.0,0.0,0.0,0.0,0.0,0.0,0.0,0.0,0.0,0.0,0.0,0.0,0.0,0.0,0.0,0.0,0.0,0.0,0.0,0.0,0.0,0.0,0.0,0.0,0.0,0.0,0.0,0.0,0.0,0.0,0.0,0.0,0.0,0.0,0.0,0.0,0.0,0.0,0.0,0.0,0.0,0.0,0.0,0.0,-2.0322,-2.0547,-2.0478,-2.0478,-2.0518,-2.0508,-1.9111,-1.8838,-1.9248,0.0,0.0,0.0,0.0,0.0,0.0,0.0,0.0,0.0,0.0,0.0,0.0,0.0,0.0,0.0,0.0,0.0,0.0,0.0,0.0,0.0,0.0,0.0,0.0,0.0,-1.7665,-1.7392,0.0,0.0,0.0,0.0,0.0,0.0,0.0,0.0,0.0,0.0,0.0,0.0,-1.6999,-1.8476,-1.9853,-2.1293,-2.1464,-2.1165,-2.0473,-2.0035,-1.9199,-1.7756,-1.6443,-1.509,0.0,0.0,0.0,0.0,0.0,0.0,0.0,0.0,0.0,0.0,0.0,0.0,0.0,0.0,0.0,0.0,0.0,0.0,0.0,0.0,0.0,0.0,0.0,0.0,0.0,0.0,0.0,0.0,0.0,0.0,0.0,0.0,-1.4148,-1.4598,0.0,0.0,0.0,0.0,0.0,0.0,0.0,0.0,0.0,0.0,0.0,0.0,0.0,0.0,-2.0175,-2.1328,-2.1797,-2.1553,-2.2725,-2.3086,-2.2777,-2.2715,-2.292,-2.3271,-2.3047,0.0,-1.9785,-1.9131,0.0,0.0,0.0,0.0,0.0,0.0,0.0,0.0,0.0,0.0,0.0,0.0,0.0,0.0,0.0,0.0,0.0,0.0,0.0,0.0,0.0,0.0,-1.9764,-1.9128,-1.9304,-1.9287,0.0,-1.6375,-1.466,-1.3721,0.0,0.0,0.0,0.0,0.0,0.0,0.0,0.0,-1.7574,-1.8982,-2.0169,-2.1143,-2.1244,-2.1042,-2.0528,-2.0121,-1.9465,-1.8429,-1.7483,-1.6548,-1.5574,-1.3997,0.0,0.0,0.0,0.0,0.0,0.0,0.0,0.0,0.0,0.0,0.0,0.0,0.0,0.0,0.0,0.0,0.0,0.0,0.0,0.0,0.0,0.0,0.0,0.0,0.0,0.0,0.0,0.0,0.0,-1.4404,-1.5283,-1.5508,-1.5968,-1.5957,0.0,0.0,0.0,0.0,0.0,0.0,0.0,0.0,0.0,-2.0021,-2.0518,-2.1279,-2.2405,-2.2949,-2.3506,-2.4053,-2.4111,-2.4307,-2.459,-2.4092,-2.3955,-2.4141,-2.4141,-2.3496,-2.2353,-2.1221,-1.9844,-1.8389,0.0,0.0,0.0,0.0,-1.7715,-1.7744,-1.9355,-1.9112,0.0,0.0,0.0,0.0,0.0,0.0,0.0,0.0,0.0,0.0,0.0,0.0,0.0,-2.0077,-2.0342,-2.044,-1.9853,-1.8935,-1.7734,0.0,-1.5143,-1.4208,-1.3135,0.0,0.0,0.0,0.0,0.0,-1.777,-1.9106,-2.0192,-2.0952,-2.1022,-2.0871,-2.0534,-2.0323,-1.9795,-1.8789,-1.8151,-1.7382,-1.6384,-1.5196,-1.3967,0.0,0.0,0.0,0.0,0.0,0.0,0.0,0.0,0.0,0.0,0.0,0.0,0.0,0.0,0.0,0.0,0.0,0.0,0.0,0.0,0.0,0.0,0.0,0.0,0.0,0.0,0.0,0.0,-1.5674,-1.6562,-1.6521,-1.7453,-1.757,0.0,0.0,0.0,0.0,0.0,0.0,-1.8759,-2.0024,-2.1117,-2.2071,-2.2615,-2.3446,-2.4507,-2.4516,-2.4955,-2.5808,-2.515,-2.5179,-2.5789,-2.5141,-2.4841,-2.4841,-2.4819,-2.4712,-2.4536,-2.3027,-2.1543,-2.0215,-1.9678,-1.9023,-1.8486,-1.9434,-1.9648,-1.9679,-2.1445,-2.1141,-1.9984,-1.9962,0.0,-1.676,-1.58,0.0,0.0,0.0,0.0,-1.8867,-1.9727,-2.0264,-2.0664,-2.0986,-2.1318,-2.1375,-2.0859,-2.0869,-2.0341,0.0,-1.7432,-1.6611,-1.533,0.0,0.0,0.0,0.0,-1.7024,-1.8184,-1.9258,-2.0126,-2.0769,-2.0819,-2.0719,-2.0544,-2.0414,-1.9979,-1.9051,-1.8607,-1.7917,-1.6934,-1.6254,-1.5134,-1.3564,0.0,0.0,0.0,0.0,0.0,0.0,0.0,0.0,0.0,0.0,0.0,0.0,0.0,0.0,0.0,0.0,0.0,0.0,0.0,0.0,0.0,0.0,0.0,0.0,0.0,0.0,0.0,0.0,0.0,-1.7653,-1.9072,0.0,0.0,0.0,0.0,-1.7224,-1.7937,-1.8663,-1.9335,-2.1572,-2.3376,-2.4496,-2.5314,-2.5958,-2.6429,-2.6439,-2.6314,-2.6073,-2.6036,-2.6036,-2.6073,-2.6026,-2.6017,-2.5988,-2.5884,-2.5631,-2.5169,-2.4147,-2.3398,-2.2818,-2.2041,-2.1445,-2.1015,-2.1073,-2.1387,-2.1797,-2.2305,-2.2409,-2.2327,-2.2327,-2.1129,-1.9684,-1.9616,-1.9061,0.0,0.0,-1.9775,-2.0674,-2.1523,-2.207,-2.2383,-2.2412,-2.2432,-2.2217,-2.1337,-2.1523,-2.1299,0.0,-1.8516,-1.7793,-1.7337,0.0,-1.6677,-1.7161,-1.7598,-1.8232,-1.9111,-1.9629,-2.0078,-2.0556,-2.0605,-2.0595,-2.0615,-2.0194,-1.9727,-1.9314,-1.8848,-1.8232,-1.7393,-1.6904,-1.62,-1.5303,-1.3662,0.0,0.0,0.0,0.0,0.0,0.0,0.0,0.0,0.0,0.0,0.0,0.0,0.0,0.0,0.0,0.0,0.0,0.0,0.0,0.0,0.0,0.0,0.0,0.0,0.0,0.0,0.0,0.0,-1.9985,-2.0974,0.0,-1.8984,-1.9316,-1.9389,-1.8714,-1.9625,-2.0437,-2.0898,-2.1781,-2.283,-2.4013,-2.4599,-2.5334,-2.6285,-2.6294,-2.5993,-2.5394,-2.589,-2.5847,-2.5385,-2.588,-2.6088,-2.6078,-2.603,-2.5819,-2.5391,-2.5042,-2.436,-2.3555,-2.3525,-2.3252,-2.291,-2.3184,-2.3389,-2.3535,-2.3682,-2.3326,-2.2634,-2.1337,-2.0346,-1.9507,-1.9177,-1.9246,-1.9552,-2.017,-2.0958,-2.1729,-2.2165,-2.2402,-2.2441,-2.2168,-2.2314,-2.2432,-2.2077,-2.2178,-2.2109,-2.1484,-2.0674,-1.9766,-1.8779,-1.8477,-1.8242,-1.7852,-1.8389,-1.9141,-2.0038,-2.0244,-2.0508,-2.0947,-2.0732,-2.0605,-2.0605,-2.0458,-2.0029,-1.9336,-1.9141,-1.8672,-1.7822,-1.7077,-1.6414,-1.587,-1.4424,-1.3032,0.0,0.0,0.0,0.0,0.0,0.0,0.0,0.0,0.0,0.0,0.0,0.0,0.0,0.0,0.0,0.0,0.0,0.0,0.0,0.0,0.0,0.0,0.0,0.0,0.0,0.0,-2.0621,-2.0967,-2.2024,-2.1961,-2.0104,-2.0588,-2.0718,-2.0014,-2.1165,-2.1884,-2.1851,-2.2388,-2.3058,-2.4,-2.4006,-2.4588,-2.5791,-2.5791,-2.5716,-2.5541,-2.6044,-2.601,-2.5541,-2.6044,-2.625,-2.6293,-2.6205,-2.6032,-2.581,-2.572,-2.5174,-2.4368,-2.4359,-2.4195,-2.3963,-2.4108,-2.4243,-2.4359,-2.4359,-2.3889,-2.3019,-2.174,-2.111,-2.072,-2.007,-2.0401,-2.0987,-2.1247,-2.1834,-2.2433,-2.2639,-2.2682,-2.2656,-2.2373,-2.2412,-2.251,-2.251,-2.251,-2.2471,-2.2324,-2.1846,-2.1182,-2.0312,-2.0166,-1.9971,-1.9404,-1.9805,-2.041,-2.0977,-2.1055,-2.1123,-2.1426,-2.1191,-2.0957,-2.081,-2.0693,-2.0233,-1.9382,-1.915,-1.8691,-1.7832,-1.7256,-1.667,-1.6105,-1.4648,-1.3412,-1.2418,0.0,0.0,0.0,0.0,0.0,0.0,0.0,0.0,0.0,0.0,0.0,0.0,0.0,0.0,0.0,0.0,0.0,0.0,0.0,0.0,0.0,0.0,0.0,-1.8499,-2.0743,-2.1857,-2.0471,-2.2091,-2.2685,-2.1139,-2.1016,-2.1062,-2.1097,-2.2424,-2.2889,-2.1955,-2.3291,-2.4259,-2.4529,-2.3823,-2.3997,-2.5186,-2.5186,-2.5597,-2.6418,-2.6473,-2.6473,-2.6418,-2.6473,-2.6473,-2.6455,-2.6375,-2.6296,-2.6303,-2.6111,-2.5852,-2.5431,-2.4627,-2.4306,-2.4249,-2.39,-2.3956,-2.4345,-2.4345,-2.4079,-2.3739,-2.3692,-2.3682,-2.3466,-2.2636,-2.2664,-2.286,-2.238,-2.2524,-2.2876,-2.3076,-2.311,-2.311,-2.3101,-2.2779,-2.2529,-2.2529,-2.2519,-2.2402,-2.2002,-2.1904,-2.1885,-2.1885,-2.1894,-2.1904,-2.1885,-2.1885,0.0,-2.1904,-2.1894,-2.1894,-2.1904,-2.1894,-2.1709,-2.1229,-2.084,-2.0253,-1.9382,-1.8841,-1.8227,-1.7432,-1.7373,-1.6985,-1.6114,-1.4424,-1.3359,-1.2964,0.0,0.0,0.0,0.0,0.0,0.0,0.0,0.0,0.0,0.0,0.0,0.0,0.0,0.0,0.0,0.0,0.0,0.0,0.0,0.0,0.0,0.0,-1.768,-1.7987,-2.0117,-2.2,-2.2813,-2.3264,-2.3478,-2.3393,-2.3843,-2.3808,-2.3001,-2.2753,-2.2513,-2.2283,-2.2132,-2.2439,-2.3389,-2.41,-2.4539,-2.4936,-2.4936,-2.415,-2.27,-2.3544,-2.3536,-2.27,-2.36,-2.3991,-2.3991,-2.3939,-2.4289,-2.4789,-2.4738,-2.5002,-2.54,-2.5224,-2.4977,-2.4703,-2.459,-2.4618,-2.4722,-2.4722,-2.4448,-2.4108,-2.3917,-2.3123,-2.2312,-2.2676,-2.2443,-2.2227,-2.3044,-2.353,-2.3731,-2.3647,-2.3613,-2.3525,-2.3169,-2.3013,-2.2925,-2.2925,-2.2734,-2.2568,-2.2711,-2.2305,-2.1885,-2.1885,-2.2139,-2.2236,-2.1934,-2.1885,0.0,-2.2305,-2.207,-2.2002,-2.2305,-2.207,-2.1709,-2.1229,-2.1083,-2.0547,-1.9365,-1.8841,-1.8364,-1.7861,-1.7246,-1.6641,-1.6105,-1.5293,-1.4678,0.0,0.0,0.0,0.0,0.0,0.0,0.0,0.0,0.0,0.0,0.0,0.0,0.0,0.0,0.0,0.0,0.0,0.0,0.0,0.0,0.0,0.0,-1.8211,-1.9004,-1.8843,-2.0835,-2.2757,-2.3901,-2.407,-2.4205,-2.4482,-2.4914,-2.4666,-2.3507,-2.3871,-2.3714,-2.272,-2.2695,-2.3038,-2.3712,-2.3432,-2.3536,-2.4047,-2.4047,-2.36,-2.2692,-2.3935,-2.4158,-2.3488,-2.4214,-2.4501,0.0,-2.4501,-2.476,-2.5216,-2.5216,-2.5371,0.0,0.0,0.0,0.0,0.0,-2.4746,-2.4597,-2.4597,-2.4438,-2.4242,-2.4096,-2.3435,-2.2822,-2.3053,-2.2808,-2.2611,-2.3317,-2.3645,-2.3783,-2.3775,-2.3835,-2.3754,-2.3328,-2.332,-2.3315,-2.314,-2.2906,-2.275,-2.2818,-2.2627,0.0,-2.2178,-2.2353,-2.2432,-2.2187,-2.2295,-2.25,-2.2701,-2.2568,-2.251,-2.2711,-2.2559,-2.2236,-2.1765,-2.1405,0.0,0.0,0.0,-1.8334,-1.7773,-1.7058,0.0,0.0,0.0,0.0,0.0,0.0,0.0,0.0,-1.4414,-1.4211,0.0,0.0,0.0,0.0,0.0,0.0,0.0,0.0,0.0,0.0,0.0,0.0,0.0,0.0,0.0,0.0,-1.9791,-2.1279,-2.0956,-2.2559,-2.3896,-2.4222,-2.4573,-2.4842,-2.5008,-2.5008,-2.4556,-2.3488,-2.5284,-2.5459,-2.332,0.0,0.0,0.0,0.0,-2.2135,-2.3199,-2.3199,-2.3656,-2.4612,-2.5688,-2.619,-2.619,-2.619,-2.619,-2.619,-2.619,-2.6254,-2.6418,-2.6418,-2.6254,-2.6039,-2.5589,-2.5424,-2.5378,-2.4977,-2.4661,-2.4339,-2.4339,0.0,0.0,-2.4275,-2.4139,-2.393,-2.3672,-2.3514,-2.3432,-2.3427,-2.3476,-2.3514,-2.3702,-2.3898,-2.3959,-2.3582,-2.3677,-2.374,-2.3257,-2.3169,-2.2999,-2.2623,-2.2755,-2.2862,-2.2493,-2.2506,-2.2578,-2.2578,-2.2857,-2.3091,-2.3091,-2.3091,-2.3091,-2.3091,0.0,0.0,-2.2549,-2.1775,-2.1162,-2.0713,-1.9473,-1.8373,-1.7559,-1.7197,-1.7145,-1.7519,-1.7578,-1.7783,-1.8154,-1.8203,-1.8252,-1.8262,-1.6562,-1.6161,0.0,0.0,0.0,0.0,0.0,0.0,0.0,0.0,0.0,0.0,0.0,0.0,0.0,0.0,0.0,-1.9729,-2.1122,-2.2628,-2.4605,-2.4694,-2.459,-2.4658,-2.4735,-2.5174,-2.6136,-2.6245,-2.6136,-2.5907,-2.5459,-2.4953,-2.4501,-2.3768,0.0,-2.4778,-2.4334,-2.4214,-2.4445,-2.4437,-2.4103,-2.3368,0.0,0.0,-2.3712,-2.3712,-2.3712,-2.3712,-2.3712,-2.4278,-2.5174,-2.5174,-2.5698,-2.6389,-2.5656,-2.5424,-2.5414,-2.5289,-2.5207,-2.5185,-2.5185,-2.4983,-2.4656,-2.4656,-2.3865,-2.297,-2.3804,-2.3561,0.0,-2.4021,-2.4403,-2.4522,-2.4249,-2.4345,-2.4477,-2.3978,-2.4103,-2.418,-2.376,-2.3473,-2.3214,-2.2799,-2.238,-2.2007,-2.1931,-2.2534,-2.2974,-2.2974,-2.3042,-2.3091,-2.3091,-2.3091,-2.3091,-2.3091,-2.3091,-2.2925,-2.2549,-2.2363,-2.1934,-2.1112,-2.0167,-1.9241,-1.8393,-1.8652,-1.8672,-1.8364,-1.874,-1.8955,-1.9043,-1.9375,-1.9727,-2.0077,-1.8652,-1.8071,0.0,0.0,0.0,0.0,0.0,0.0,0.0,0.0,0.0,0.0,0.0,-1.5721,-1.7637,0.0,-1.9232,-2.0957,-2.2344,-2.3519,-2.4381,-2.5162,-2.5688,-2.5688,-2.5688,-2.5962,-2.6537,-2.6591,-2.6364,-2.5743,-2.5119,-2.4778,-2.4778,-2.4214,-2.4437,-2.5688,-2.5119,-2.4778,-2.4778,-2.4214,-2.36,-2.2974,-2.2974,-2.2974,-2.303,-2.3656,-2.388,-2.3935,-2.4556,-2.5119,-2.5688,-2.5688,-2.6081,-2.6545,-2.6142,-2.5901,-2.5718,-2.5718,-2.5589,-2.5424,-2.5424,-2.5295,-2.5078,-2.5078,-2.4564,-2.3999,-2.4368,-2.4203,-2.3939,-2.4248,-2.444,-2.4501,-2.4296,-2.4435,-2.4476,-2.4042,-2.4136,-2.4218,-2.3852,-2.3446,-2.3126,-2.2917,-2.2457,-2.2095,-2.2095,-2.2646,-2.2957,-2.2674,-2.2921,-2.3091,-2.3091,-2.3091,-2.3091,-2.3091,-2.3013,-2.2926,-2.2799,-2.2637,-2.2148,-2.1249,-2.0781,-2.0245,-1.9629,-1.9814,-1.9932,-1.9894,-2.0146,-2.0371,-2.0586,-2.0801,-2.1016,-2.1251,-2.0781,-2.0313,0.0,0.0,0.0,0.0,0.0,0.0,0.0,0.0,-1.5571,-1.7563,-1.7524,-1.7829,-2.0129,-2.0537,-2.0883,-2.2097,-2.369,-2.4482,-2.3782,-2.5348,-2.6591,-2.6591,-2.6591,-2.6591,-2.6591,-2.6418,-2.5962,-2.5229,-2.4953,-2.4889,-2.5119,-2.4953,-2.534,-2.6537,-2.5459,-2.4898,-2.5174,-2.4214,-2.3712,-2.3712,-2.3712,-2.3712,-2.3712,-2.4723,-2.5174,-2.5174,-2.619,-2.6591,-2.6591,-2.6591,-2.6591,-2.6591,-2.6591,-2.638,-2.6131,-2.6131,-2.5938,-2.561,-2.561,-2.5607,-2.5534,-2.5534,-2.5488,-2.5359,-2.4986,-2.4895,-2.4812,-2.444,-2.4321,-2.4312,-2.422,-2.4341,-2.4405,-2.408,-2.4198,-2.4335,-2.3918,-2.3503,-2.3128,-2.3052,-2.2704,-2.2377,-2.2377,-2.2629,-2.2735,-2.2471,-2.2896,-2.3261,-2.3183,-2.3174,-2.3101,-2.2969,-2.2838,-2.2794,-2.2969,-2.2702,-2.2178,-2.137,-2.1362,-2.1209,-2.08,-2.082,-2.0996,-2.1317,-2.1395,-2.166,-2.2012,-2.209,-2.2168,-2.2256,-2.2519,-2.2217,-1.7688,-1.7037,-1.6864,-1.7085,-1.6936,-1.7368,0.0,0.0,-1.8718,-2.0602,-2.0533,-2.0533,-2.1968,-2.2895,-2.3562,-2.396,-2.5305,-2.6309,-2.619,-2.6418,-2.6591,-2.6591,-2.6591,-2.6591,-2.6591,-2.5624,-2.5404,-2.6309,-2.5404,-2.5284,-2.6354,-2.5404,-2.534,-2.6537,-2.5459,-2.5284,-2.6418,-2.6245,-2.619,-2.619,-2.619,-2.619,-2.619,-2.6364,-2.6418,-2.6418,-2.6537,-2.6591,-2.6591,-2.6591,-2.6591,-2.6591,-2.6591,-2.6564,-2.6518,-2.6518,-2.649,-2.6454,-2.6454,-2.6206,-2.5947,-2.5947,-2.5708,-2.5414,-2.5368,-2.5307,-2.5277,-2.4831,-2.4711,-2.4629,-2.4303,-2.4341,-2.447,-2.4424,-2.466,-2.4703,-2.4297,-2.4021,-2.369,-2.3336,-2.2732,-2.23,-2.23,-2.2232,-2.2434,-2.3147,-2.3631,-2.3756,-2.339,-2.3387,-2.3163,-2.2523,-2.2441,-2.2441,-2.2485,-2.2668,-2.2491,-2.1764,-2.1959,-2.1893,-2.1418,-2.1615,-2.1768,-2.1816,-2.2178,-2.2393,-2.2441,-2.2769,-2.3193,-2.3574,-2.3223,-2.2779,-1.9155,-1.8923,-1.899,0.0,-1.953,-2.0388,-2.1462,-2.141,-2.1386,-2.2231,-2.224,-2.2375,-2.3339,-2.3874,-2.421,0.0,-2.5745,-2.6364,-2.5624,-2.5983,-2.6278,-2.6278,-2.6013,-2.6068,-2.6536,-2.6136,-2.6081,-2.6537,-2.5459,-2.5348,-2.6537,-2.5459,-2.534,-2.6537,-2.6136,-2.6081,-2.6591,-2.5907,-2.5569,-2.5514,-2.4834,-2.4501,-2.4556,-2.5229,-2.5916,-2.6591,-2.6591,-2.6591,-2.6591,-2.6591,-2.6591,-2.6591,-2.6591,-2.6591,-2.6591,-2.6591,-2.6591,-2.6591,-2.6591,-2.6472,-2.6325,-2.6325,-2.6215,-2.6032,-2.5837,-2.5764,-2.569,-2.5234,-2.5124,-2.5139,-2.4964,-2.4794,-2.466,-2.466,-2.4575,-2.4452,-2.4284,-2.3955,-2.3646,-2.3432,-2.3016,-2.2648,-2.2648,-2.2796,-2.3001,-2.3288,-2.3197,-2.3021,-2.285,-2.2831,-2.2675,-2.2293,-2.2309,-2.2397,-2.2397,-2.2485,-2.2507,-2.237,-2.236,-2.2284,-2.2241,-2.236,-2.2489,-2.2617,-2.3037,-2.3252,-2.3252,-2.3437,-2.3613,-2.3779,-2.334,-2.3003,-1.9664,-2.0003,-2.0461,-2.0397,-2.164,-2.2859,-2.2978,-2.3279,-2.3623,-2.3692,-2.3843,-2.4088,-2.4648,-2.4849,-2.5016,-2.5241,-2.6017,-2.6309,-2.5404,-2.5721,-2.6012,-2.6012,-2.5571,-2.5482,-2.6188,-2.6073,-2.6127,-2.6582,-2.5459,-2.5348,-2.6537,-2.5798,-2.5688,-2.6582,-2.6591,-2.6591,-2.6591,-2.5743,-2.5293,-2.5284,-2.4381,-2.3991,-2.3991,-2.4898,-2.5798,-2.6591,-2.6591,-2.6591,-2.6591,-2.6591,-2.6591,-2.6591,-2.6591,-2.6591,-2.6591,-2.6591,-2.6591,-2.6591,-2.6591,-2.6591,-2.6591,-2.6591,-2.6591,-2.6536,-2.6224,-2.6186,-2.6104,-2.5699,-2.5589,-2.5561,-2.5451,-2.5161,-2.4992,-2.4992,-2.4679,-2.4376,-2.4376,-2.4005,-2.3712,-2.3712,-2.3343,-2.3068,-2.3068,-2.3215,-2.3281,-2.3214,-2.2805,-2.252,-2.2488,-2.233,-2.2132,-2.2008,-2.2185,-2.2309,-2.222,-2.2264,-2.2353,-2.2495,-2.2397,-2.2441,-2.2662,-2.2759,-2.2882,-2.3091,-2.3564,-2.373,-2.3613,-2.373,-2.3789,-2.3779,-2.334,-2.3159,-1.8861,-1.9613,-2.0662,-2.144,-2.2905,-2.4257,-2.4661,-2.5065,-2.5307,-2.5344,-2.5656,-2.5931,-2.5958,-2.6289,-2.6518,-2.6527,-2.6591,-2.6591,-2.6527,-2.6224,-2.6012,-2.6012,-2.5271,-2.4959,0.0,-2.4712,-2.4928,-2.65,-2.5459,-2.5348,-2.6537,-2.6591,-2.6537,-2.6591,-2.6591,-2.6591,-2.6591,-2.6537,-2.6527,-2.6527,-2.6527,-2.6473,-2.6473,-2.6527,-2.6591,-2.6591,-2.6591,-2.6591,-2.6591,-2.6591,-2.6591,-2.6591,-2.6591,-2.6591,-2.6591,-2.6591,-2.6591,-2.6591,-2.6591,-2.6591,-2.6591,-2.6591,-2.6591,-2.6591,-2.6573,-2.6564,-2.6481,-2.6113,-2.5993,-2.5901,-2.5525,-2.5414,-2.5405,-2.5405,-2.5051,-2.4757,-2.4757,-2.4477,-2.4183,-2.4183,-2.3804,-2.348,-2.348,-2.3169,-2.2922,-2.2913,-2.2885,-2.2814,-2.273,-2.2105,-2.1741,-2.1687,-2.1963,-2.2008,-2.1741,-2.1963,-2.2008,-2.1731,-2.1963,-2.2185,-2.2397,-2.2662,-2.2882,-2.3091,-2.3564,-2.3584,-2.312,-2.3584,-2.3789,-2.3779,-2.334,-2.3315,-2.0191,-2.1156,-2.2282,-2.3134,-2.4404,-2.5442,-2.5589,-2.5718,-2.5819,-2.5819,-2.5506,-2.5179,-2.5179,-2.5289,-2.5472,-2.5738,-2.6048,-2.6324,-2.6545,-2.6224,-2.592,-2.5653,-2.5157,0.0,0.0,0.0,0.0,-2.6114,-2.5838,-2.5901,-2.6573,-2.6591,-2.6591,-2.6591,-2.6591,-2.6591,-2.6591,-2.6591,-2.6591,-2.6591,-2.6591,-2.6591,-2.6591,-2.6591,-2.6591,-2.6591,-2.6591,-2.6591,-2.6591,-2.6591,-2.6591,-2.6591,-2.6591,-2.6591,-2.6591,-2.6591,-2.6591,-2.6591,-2.6591,-2.6591,-2.6591,-2.6591,-2.6591,-2.6591,-2.6591,-2.6591,-2.6554,-2.6417,-2.638,-2.6344,-2.6215,-2.6021,-2.5819,-2.5819,-2.5515,-2.5106,-2.484,-2.4675,-2.4542,-2.4257,-2.4091,-2.395,-2.395,-2.3831,-2.3657,-2.3334,-2.3068,-2.2804,-2.2474,-2.2254,-2.198,-2.1723,-2.1785,-2.1874,-2.1963,-2.1874,-2.1874,-2.1963,-2.1874,-2.1998,-2.2397,-2.2485,-2.2706,-2.3091,-2.3564,-2.3721,-2.3574,-2.3994,-2.4209,-2.4199,-2.4062,-2.4062,-2.1475,-2.2557,-2.3611,-2.4615,-2.5543,-2.6195,-2.6048,-2.6012,-2.5892,-2.5451,-2.4964,-2.4473,-2.418,-2.4134,-2.4354,-2.5051,-2.5424,-2.5784,-2.649,-2.6105,-2.5708,-2.5451,-2.4946,-2.4606,0.0,0.0,0.0,-2.5938,-2.6012,-2.6195,-2.6564,-2.6591,-2.6591,-2.6591,-2.6591,-2.6591,-2.6591,-2.6591,-2.6591,-2.6591,-2.6591,-2.6591,-2.6591,-2.6591,-2.6591,-2.6591,-2.6591,-2.6591,-2.6591,-2.6591,-2.6591,-2.6591,-2.6591,-2.6591,-2.6591,-2.6591,-2.6591,-2.6591,-2.6591,-2.6591,-2.6591,-2.6591,-2.6591,-2.6591,-2.6591,-2.6591,-2.6591,-2.6591,-2.6591,-2.6591,-2.6591,-2.6389,-2.6188,-2.6188,-2.5929,-2.5561,-2.5262,-2.5148,-2.4918,-2.4505,-2.4431,-2.4385,-2.4229,-2.4202,-2.411,-2.3804,-2.3547,-2.318,-2.2574,-2.2501,-2.241,-2.2153,-2.2126,-2.2217,-2.2353,-2.2217,-2.2217,-2.2353,-2.2217,-2.2308,-2.2715,-2.2706,-2.2931,-2.3415,-2.3897,-2.4088,-2.4014,-2.4443,-2.457,-2.4414,-2.4414,-2.4414,-2.2556,-2.3629,-2.4578,-2.5754,-2.6298,-2.6481,-2.6104,-2.5984,-2.5607,-2.4395,-2.4091,-2.3749,0.0,0.0,-2.3224,-2.4436,-2.473,-2.5216,-2.6389,-2.5903,-2.5479,0.0,0.0,0.0,0.0,0.0,0.0,-2.592,0.0,-2.6177,-2.6564,-2.6591,-2.6591,-2.6591,-2.6591,-2.6591,-2.6591,-2.6591,-2.6591,-2.6591,-2.6591,-2.6591,-2.6591,-2.6591,-2.6591,-2.6591,-2.6591,-2.6591,-2.6591,-2.6591,-2.6591,-2.6591,-2.6591,-2.6591,-2.6591,-2.6591,-2.6591,-2.6591,-2.6591,-2.6591,-2.6591,-2.6591,-2.6591,-2.6591,-2.6591,-2.6591,-2.6591,-2.6591,-2.6591,-2.6591,-2.6591,-2.6591,-2.6591,-2.6591,-2.6289,-2.6039,-2.6021,-2.5718,-2.5289,-2.4886,-2.4812,-2.4675,-2.4312,-2.4238,-2.4229,-2.4211,-2.4202,-2.3868,-2.3041,-2.294,-2.2931,-2.2904,-2.2904,-2.2904,-2.2904,-2.2904,-2.2904,-2.2904,-2.2904,-2.3054,-2.3289,-2.3336,-2.3551,-2.3988,-2.4467,-2.4571,-2.4414,-2.4853,-2.4853,-2.4453,-2.4473,-2.4482,-2.3917,-2.4895,-2.5699,-2.627,-2.6509,-2.6481,-2.6104,-2.5561,-2.473,-2.351,-2.2529,-2.1548,0.0,0.0,0.0,-2.2419,-2.4033,0.0,-2.6094,-2.6206,0.0,-2.5901,0.0,-2.5433,-2.5139,-2.5111,0.0,0.0,-2.5736,-2.5883,-2.6554,-2.6591,-2.6591,-2.6591,-2.6591,-2.6591,-2.6591,-2.6591,-2.6591,-2.6591,-2.6591,-2.6591,-2.6591,-2.6591,-2.6591,-2.6591,-2.6591,-2.6591,-2.6591,-2.6591,-2.6591,-2.6591,-2.6591,-2.6591,-2.6591,-2.6591,-2.6591,-2.6591,-2.6591,-2.6591,-2.6591,-2.6591,-2.6591,-2.6591,-2.6591,-2.6591,-2.6591,-2.6591,-2.6591,-2.6591,-2.6591,-2.6591,-2.6591,-2.6591,-2.6509,-2.6344,-2.6076,-2.5929,-2.5745,-2.535,-2.5277,-2.5148,-2.4744,-2.467,-2.4569,-2.4248,-2.4202,-2.3969,-2.3407,-2.3343,-2.3233,-2.294,-2.2904,-2.2904,-2.2904,-2.2904,-2.2904,-2.2904,-2.2904,-2.3092,-2.3588,-2.3598,-2.3821,-2.4275,-2.4438,-2.4438,-2.4414,-2.4853,-2.5057,-2.4912,-2.5244,-2.5352,-2.501,-2.581,-2.6306,-2.6298,-2.637,-2.6013,-2.4895,-2.4299,-2.3483,-2.1668,-2.0616,0.0,-1.8696,-1.9549,0.0,0.0,0.0,0.0,-2.5883,-2.6214,-2.6224,0.0,-2.6012,0.0,-2.546,-2.558,-2.5773,0.0,-2.581,-2.5966,-2.6554,-2.6591,-2.6591,-2.6591,-2.6591,-2.6591,-2.6591,-2.6591,-2.6591,-2.6591,-2.6591,-2.6591,-2.6591,-2.6591,-2.6591,-2.6591,0.0,-2.6591,-2.6591,-2.6591,-2.6591,-2.6591,-2.6591,-2.6591,-2.6609,-2.6784,-2.6738,-2.6619,-2.6784,-2.6848,-2.682,-2.6646,-2.6591,-2.6591,-2.6591,-2.6591,-2.6591,-2.6591,-2.6591,-2.6591,-2.6591,-2.6591,-2.6591,-2.6591,-2.6591,-2.6527,-2.6289,-2.6233,-2.6114,-2.5764,-2.5543,-2.535,-2.5078,-2.5041,-2.4955,-2.4542,-2.4477,-2.428,-2.3859,-2.3813,-2.3721,-2.3501,-2.3483,-2.3483,-2.3483,-2.3483,-2.3531,-2.3618,-2.3618,-2.381,-2.4231,-2.4231,-2.4421,-2.4801,-2.4801,-2.4848,-2.4953,-2.5234,-2.5361,-2.5371,-2.5567,-2.5693,-2.5883,-2.6307,-2.6499,-2.6186,-2.6021,-2.5381,-2.3425,-2.2821,-2.1989,-1.9641,0.0,-1.8229,-1.7403,-1.8054,-1.9201,-2.0704,0.0,-2.4088,-2.5708,-2.5984,-2.603,-2.6094,-2.6094,-2.5966,-2.5564,-2.5892,-2.6094,-2.6094,-2.6094,-2.6251,-2.6564,-2.6591,-2.6591,-2.6591,-2.6591,-2.6591,-2.6591,-2.6591,-2.6591,-2.6591,-2.6591,-2.6591,-2.6591,-2.6591,-2.6591,-2.6591,0.0,0.0,-2.6591,-2.6591,-2.6591,-2.6591,-2.6646,-2.6664,-2.6719,-2.7105,-2.704,-2.6793,-2.7132,-2.726,-2.7178,-2.6738,-2.6628,-2.6655,-2.6609,-2.6591,-2.6591,-2.6591,-2.6591,-2.6591,-2.6591,-2.6591,-2.6591,-2.6591,-2.6591,-2.6591,-2.6591,-2.6591,-2.6481,-2.6168,-2.5819,-2.5561,-2.5506,-2.5506,-2.5317,-2.4922,-2.4858,-2.473,-2.4413,-2.4275,-2.4202,-2.4202,-2.4202,-2.4202,-2.4202,-2.4202,-2.4291,-2.4489,-2.4529,-2.4677,-2.4932,-2.4932,-2.5088,-2.5342,-2.5333,-2.5518,-2.5771,-2.5771,-2.5801,-2.5859,-2.5859,-2.5859,-2.6369,-2.6536,-2.6573,-2.6499,-2.6021,-2.5115,-2.37,-2.2355,0.0,0.0,-1.7734,-1.6972,-1.6147,-1.7486,-1.9026,-1.9939,-2.2007,-2.3996,-2.5341,-2.581,-2.614,0.0,0.0,0.0,0.0,0.0,0.0,0.0,0.0,-2.6509,-2.6582,-2.6591,-2.6591,-2.6591,-2.6591,-2.6591,-2.6591,-2.6591,-2.6591,-2.6591,-2.6591,-2.6591,-2.6591,-2.6591,-2.6591,-2.6591,-2.6591,0.0,-2.6591,-2.6591,-2.6591,-2.6619,-2.6949,-2.7077,-2.7123,-2.7574,-2.7675,-2.7572,-2.7693,-2.7721,-2.7545,-2.682,-2.6811,-2.7013,-2.6683,-2.6591,-2.6591,-2.6591,-2.6591,-2.6591,-2.6591,-2.6591,-2.6591,-2.6591,-2.6591,-2.6591,-2.6591,-2.6591,-2.6564,-2.649,-2.6426,-2.627,-2.5966,-2.5911,-2.5773,-2.5378,-2.5323,-2.5295,-2.5221,-2.4624,-2.4202,-2.4202,-2.4202,-2.4202,-2.4202,-2.4341,-2.448,-2.448,-2.4686,-2.4932,-2.5235,-2.5235,-2.5333,-2.5635,-2.5635,-2.5859,-2.6279,-2.6279,-2.6455,-2.6797,-2.6797,-2.6797,-2.6258,-2.6417,-2.6536,-2.6316,-2.5656,-2.4574,-2.2694,0.0,0.0,0.0,-1.6386,-1.578,-1.5184,-1.656,0.0,-1.8823,-2.0625,-2.2501,-2.4189,-2.4766,0.0,0.0,0.0,0.0,0.0,0.0,0.0,0.0,0.0,-2.6591,-2.6591,-2.6591,-2.6591,-2.6591,-2.6591,-2.6591,-2.6591,-2.6591,-2.6591,-2.6591,-2.6591,-2.6591,-2.6591,-2.6591,-2.6591,-2.6591,-2.6591,0.0,-2.6591,-2.6591,-2.6591,-2.6628,-2.7022,-2.7178,-2.7251,-2.7866,-2.7957,-2.7849,-2.8012,-2.8095,-2.7994,-2.7398,-2.7325,-2.7509,-2.726,-2.7196,-2.7196,-2.7196,-2.7196,-2.7196,-2.7196,-2.705,-2.6894,-2.6894,-2.6738,-2.6591,-2.6591,-2.6591,-2.6591,-2.6591,-2.6591,-2.6527,-2.6379,-2.6289,-2.6205,-2.5791,-2.5727,-2.5653,-2.5451,-2.5074,-2.4836,-2.4836,-2.4836,-2.4836,-2.4836,-2.5039,-2.5232,-2.5374,-2.5626,-2.5887,-2.6147,-2.6197,-2.6247,-2.6356,-2.6396,-2.6504,-2.6709,-2.6709,-2.6816,-2.7012,-2.7012,-2.7012,-2.5984,-2.627,-2.6509,-2.6232,-2.5362,-2.4024,-2.1658,-2.0044,0.0,-1.6046,-1.5249,-1.4909,-1.468,0.0,-1.6972,0.0,-1.932,-2.097,-2.295,-2.3712,-2.4523,0.0,0.0,0.0,0.0,0.0,0.0,0.0,0.0,0.0,-2.6591,-2.6591,-2.6591,-2.6591,-2.6591,-2.6591,-2.6591,-2.6591,-2.6591,-2.6591,-2.6591,-2.6591,-2.6591,-2.6591,-2.6591,-2.6591,-2.6591,0.0,0.0,-2.6591,-2.6591,-2.6637,-2.7114,-2.7306,-2.7454,-2.8223,-2.8315,-2.8067,-2.8407,-2.8526,-2.8462,-2.8132,-2.8024,-2.7941,-2.7849,-2.7822,-2.7822,-2.7822,-2.7822,-2.7822,-2.7822,-2.7592,-2.7306,-2.7306,-2.7068,-2.682,-2.6738,-2.6719,-2.6692,-2.6609,-2.6591,-2.6591,-2.6591,-2.6591,-2.6481,-2.6195,-2.6149,-2.6039,-2.5727,-2.5681,-2.5681,-2.5681,-2.5472,-2.5424,-2.5424,-2.5641,-2.5933,-2.6172,-2.6429,-2.6695,-2.697,-2.7012,-2.7012,-2.7012,-2.7012,-2.706,-2.7158,-2.7158,-2.7197,-2.7285,-2.7285,-2.7285,-2.6017,-2.627,-2.6582,-2.6536,-2.5414,-2.3724,-2.1568,0.0,-1.7651,-1.5579,-1.4836,-1.4671,-1.4983,-1.546,0.0,0.0,0.0,-2.0118,-2.2153,-2.3059,-2.4051,0.0,0.0,0.0,0.0,0.0,0.0,0.0,0.0,0.0,-2.6591,-2.6591,-2.6591,-2.6591,-2.6591,-2.6591,-2.6591,-2.6591,-2.6591,-2.6591,-2.6591,-2.6591,-2.6591,-2.6591,-2.6591,-2.6591,-2.6591,0.0,0.0,-2.6591,-2.6591,-2.6664,-2.7473,-2.7767,-2.7868,-2.8627,-2.8902,-2.8874,-2.8911,-2.8929,-2.892,-2.8883,-2.8627,-2.8269,-2.7941,-2.7822,-2.7822,-2.7822,-2.7822,-2.7822,-2.7822,-2.7794,-2.7767,-2.7767,-2.7739,-2.761,-2.7196,-2.7123,-2.7013,-2.6655,-2.6591,-2.6591,-2.6591,-2.6591,-2.6573,-2.6536,-2.6527,-2.6518,-2.6481,-2.6481,-2.6481,-2.6481,-2.5812,-2.5424,-2.5424,-2.5641,-2.5933,-2.6172,-2.6429,-2.6695,-2.697,-2.7012,-2.7012,-2.7012,-2.7012,-2.7207,-2.766,-2.766,-2.7803,-2.8174,-2.8174,-2.8174,-2.5739,-2.6247,-2.6527,-2.627,-2.4986,-2.3253,-2.1183,0.0,-1.7238,-1.5469,-1.4781,-1.4561,-1.4717,-1.5065,-1.5707,0.0,0.0,0.0,-2.0218,0.0,0.0,0.0,0.0,0.0,0.0,0.0,0.0,0.0,0.0,0.0,-2.6591,-2.6591,-2.6591,-2.6591,-2.6591,-2.6591,-2.6591,-2.6591,-2.6591,-2.6591,-2.6591,-2.6591,-2.6591,-2.6591,-2.6591,-2.6591,-2.6591,0.0,0.0,-2.6591,-2.6591,-2.6664,-2.7509,-2.7822,-2.7923,-2.8682,-2.8984,-2.8984,-2.8984,-2.8984,-2.8984,-2.8984,-2.8874,-2.8718,-2.8544,-2.8498,-2.8498,-2.8498,-2.8498,-2.8498,-2.8498,-2.8324,-2.8077,-2.7886,-2.7822,-2.7776,-2.762,-2.7583,-2.7416,-2.7022,-2.694,-2.6866,-2.6628,-2.6591,-2.6591,-2.6591,-2.6591,-2.6591,-2.6591,-2.6591,-2.6591,-2.6591,-2.6298,-2.6105,-2.6105,-2.6354,-2.6558,-2.6655,-2.7141,-2.7405,-2.7511,-2.7678,-2.7783,-2.7783,-2.7783,-2.7871,-2.8047,-2.8047,-2.8125,-2.8291,-2.8291,-2.8291,-2.5163,-2.5811,-2.616,-2.5911,-2.4565,-2.2794,-2.0763,-1.8871,-1.7009,-1.5285,-1.4708,-1.4515,-1.4515,-1.4735,-1.5194,0.0,0.0,-1.6972,-1.8861,-1.9833,0.0,0.0,0.0,0.0,0.0,0.0,0.0,0.0,0.0,0.0,0.0,-2.6591,-2.6591,-2.6591,-2.6591,-2.6591,-2.6591,-2.6591,-2.6591,-2.6591,-2.6591,-2.6591,-2.6591,-2.6591,-2.6591,-2.6591,0.0,0.0,0.0,-2.6591,-2.6591,-2.6664,-2.7509,-2.7822,-2.7923,-2.8682,-2.8984,-2.8984,-2.8984,-2.8984,-2.8984,-2.8984,-2.8984,-2.8984,-2.8984,-2.8984,-2.8984,-2.8984,-2.8984,-2.8984,-2.8984,-2.8773,-2.8489,-2.8196,-2.8122,-2.8095,-2.7976,-2.8005,-2.7829,-2.7482,-2.7352,-2.726,-2.6985,-2.694,-2.6894,-2.6784,-2.6765,-2.6719,-2.6609,-2.6591,-2.6591,-2.6591,-2.6591,-2.6591,-2.6591,-2.6791,-2.6944,-2.6989,-2.7476,-2.7799,-2.7906,-2.8184,-2.8291,-2.8291,-2.8291,-2.8291,-2.8291,-2.8291,-2.8291,-2.8291,-2.8291,-2.8291,-2.4212,-2.496,-2.5433,-2.5433,-2.4161,-2.2382,-2.0351,-1.8669,-1.6927,-1.4928,-1.4485,-1.4515,-1.4515,-1.4485,-1.4772,-1.557,-1.6046,0.0,-1.8495,-1.9381,0.0,0.0,0.0,0.0,0.0,0.0,0.0,0.0,0.0,0.0,0.0,-2.6591,-2.6591,-2.6591,-2.6591,-2.6591,-2.6591,-2.6591,-2.6591,-2.6591,-2.6591,-2.6591,-2.6591,-2.6591,-2.6591,0.0,0.0,0.0,0.0,-2.6591,-2.6591,-2.6664,-2.7509,-2.7822,-2.7923,-2.8682,-2.8984,-2.8984,-2.8984,-2.8984,-2.8984,-2.8984,-2.8984,-2.8984,-2.8984,-2.8984,-2.8984,-2.8984,-2.8984,-2.8984,-2.8984,-2.8975,-2.8975,-2.8975,-2.8975,-2.8865,-2.8471,-2.8388,-2.826,-2.7895,-2.7813,-2.7813,-2.7813,-2.7813,-2.7675,-2.7233,-2.7169,-2.7031,-2.6637,-2.6591,-2.6591,-2.6591,-2.6591,-2.6591,-2.6591,-2.6591,-2.6745,-2.6989,-2.726,-2.753,-2.7906,-2.8184,-2.8291,-2.8291,-2.8291,-2.8291,-2.8291,-2.8291,-2.8291,-2.8291,-2.8291,-2.8291,-2.2225,-2.2852,-2.3153,-2.2602,-2.1667,-2.0387,-1.8669,-1.7449,-1.6276,-1.4818,-1.4515,-1.4515,-1.4515,-1.4515,-1.4955,-1.6303,-1.6633,0.0,0.0,0.0,0.0,0.0,0.0,0.0,0.0,0.0,0.0,0.0,0.0,0.0,0.0,-2.6591,-2.6591,-2.6591,-2.6591,-2.6591,-2.6591,-2.6591,-2.6591,-2.6591,-2.6591,-2.6591,-2.6591,-2.6591,0.0,0.0,0.0,0.0,0.0,-2.6591,-2.6591,-2.6664,-2.7509,-2.7822,-2.7923,-2.8682,-2.8984,-2.8984,-2.8984,-2.8984,-2.8984,-2.8984,-2.8984,-2.8984,-2.8984,-2.8984,-2.8984,-2.8984,-2.8984,-2.8984,-2.8984,-2.8984,-2.8984,-2.8984,-2.8984,-2.8948,-2.8819,-2.8792,-2.8682,-2.8278,-2.8196,-2.8104,-2.7868,-2.7822,-2.7776,-2.7656,-2.7638,-2.7536,-2.7463,-2.716,-2.6985,-2.6985,-2.6985,-2.6885,-2.6609,-2.6591,-2.6682,-2.6989,-2.726,-2.753,-2.7906,-2.8184,-2.8291,-2.8291,-2.8291,-2.8291,-2.8291,-2.8291,-2.8291,-2.8291,-2.8291,-2.8447,-2.0464,-2.1284,-2.1618,-2.1016,-2.0131,-1.9127,-1.7798,-1.6762,-1.578,-1.4735,-1.4515,-1.4515,-1.4515,-1.4515,-1.4891,-1.6037,-1.6349,0.0,0.0,0.0,0.0,0.0,0.0,0.0,0.0,0.0,0.0,0.0,0.0,0.0,0.0,-2.6591,-2.6591,-2.6591,-2.6591,-2.6591,-2.6591,-2.6591,-2.6591,-2.6591,-2.6591,-2.6591,-2.6591,-2.6591,0.0,0.0,0.0,0.0,0.0,-2.6591,-2.6591,-2.6655,-2.7297,-2.7693,-2.7904,-2.8517,-2.8856,-2.8984,-2.8984,-2.8984,-2.8984,-2.8984,-2.8984,-2.8984,-2.8984,-2.8984,-2.8984,-2.8984,-2.8984,-2.8984,-2.8984,-2.8984,-2.8984,-2.8984,-2.8984,-2.8984,-2.8984,-2.8984,-2.8911,-2.8663,-2.8618,-2.8535,-2.8327,-2.8223,-2.8168,-2.8022,-2.8003,-2.7939,-2.784,-2.761,-2.7454,-2.7454,-2.7454,-2.7297,-2.705,-2.6894,-2.7031,-2.7446,-2.7589,-2.7844,-2.8324,-2.8606,-2.8779,-2.8779,-2.8779,-2.8779,-2.8779,-2.8779,-2.8779,-2.8779,-2.8779,-2.8916,0.0,-1.9906,-2.0444,-2.0223,-1.9329,-1.8293,-1.7504,-1.645,0.0,-1.4671,-1.4515,-1.4533,-1.4558,-1.4552,-1.4689,-1.523,0.0,0.0,0.0,0.0,0.0,0.0,0.0,0.0,0.0,0.0,0.0,0.0,0.0,0.0,0.0,-2.6591,-2.6591,-2.6591,-2.6591,-2.6591,-2.6591,-2.6591,-2.6591,-2.6591,-2.6591,-2.6591,-2.6591,-2.6591,0.0,0.0,0.0,0.0,0.0,-2.6591,-2.6591,-2.6628,-2.7022,-2.7454,-2.784,-2.8223,-2.8627,-2.8948,-2.8975,-2.8984,-2.8984,-2.8984,-2.8984,-2.8984,-2.8984,-2.8984,-2.8984,-2.8984,-2.8984,-2.8984,-2.8984,-2.8984,-2.8984,-2.8984,-2.8984,-2.8984,-2.8984,-2.8984,-2.8984,-2.8984,-2.8984,-2.8984,-2.8984,-2.8984,-2.8856,-2.8489,-2.8434,-2.8297,-2.7902,-2.7886,-2.7868,-2.7868,-2.7868,-2.7858,-2.7858,-2.75,-2.7548,-2.8201,-2.821,-2.8441,-2.9113,-2.9402,-2.9626,-2.9626,-2.9626,-2.9626,-2.9626,-2.9626,-2.9626,-2.9626,-2.9626,-2.9646,-1.5668,0.0,-1.7265,-1.6908,-1.6615,-1.6266,0.0,-1.5441,-1.5102,-1.4616,-1.4515,-1.4698,-1.5294,-1.4919,-1.5148,-1.7066,0.0,0.0,0.0,0.0,0.0,0.0,0.0,0.0,0.0,0.0,0.0,0.0,0.0,0.0,0.0,-2.6591,-2.6591,-2.6591,-2.6591,-2.6591,-2.6591,-2.6591,-2.6591,-2.6591,-2.6591,-2.6591,-2.6591,-2.6591,0.0,0.0,0.0,0.0,-2.6591,-2.6591,-2.6591,-2.6628,-2.7022,-2.7233,-2.7454,-2.8132,-2.8452,-2.8581,-2.8874,-2.8984,-2.8984,-2.8984,-2.8984,-2.8984,-2.8984,-2.8984,-2.8984,-2.8984,-2.8984,-2.8984,-2.8984,-2.8984,-2.8984,-2.8984,-2.8984,-2.8984,-2.8984,-2.8984,-2.8984,-2.8984,-2.8984,-2.8984,-2.8984,-2.8984,-2.8948,-2.8856,-2.8847,-2.881,-2.8709,-2.8434,-2.8251,-2.8251,-2.8464,-2.857,-2.857,-2.8199,-2.8117,-2.855,-2.8755,-2.9082,-2.9458,-2.957,-2.9626,-2.9626,-2.9626,-2.9626,-2.9626,-2.9626,-2.9626,-2.9626,-2.9626,-2.9736,-1.4061,-1.5035,-1.6127,-1.6024,-1.5835,-1.5634,-1.5423,-1.4946,-1.4533,-1.4515,-1.4359,-1.4414,-1.5038,-1.5093,-1.5487,0.0,-1.7284,0.0,0.0,0.0,0.0,0.0,0.0,0.0,0.0,0.0,0.0,0.0,0.0,0.0,0.0,-2.6591,-2.6591,-2.6591,-2.6591,-2.6591,-2.6591,-2.6591,-2.6591,-2.6591,-2.6591,-2.6591,-2.6591,-2.6591,-2.6591,0.0,0.0,0.0,-2.6591,-2.6591,-2.6591,-2.6609,-2.682,-2.7013,-2.7251,-2.7875,-2.8223,-2.8452,-2.8847,-2.8984,-2.8984,-2.8984,-2.8984,-2.8984,-2.8984,-2.8984,-2.8984,-2.8984,-2.8984,-2.8984,-2.8984,-2.8984,-2.8984,-2.8984,-2.8984,-2.8984,-2.8984,-2.8984,-2.8984,-2.8984,-2.8984,-2.8984,-2.8984,-2.8984,-2.8984,-2.8984,-2.8984,-2.8984,-2.8984,-2.8969,-2.8889,-2.8889,-2.9114,-2.9289,-2.9289,-2.9257,-2.9298,-2.947,-2.9469,-2.9621,-3.0166,-3.0176,-3.0176,-3.0176,-3.0176,-3.0176,-3.0176,-3.0176,-3.0176,-3.0176,-3.0176,-3.0293,-1.3506,-1.4643,-1.5863,-1.5923,-1.5771,-1.5579,-1.5524,-1.4717,-1.4084,-1.4442,-1.4277,-1.4231,-1.4781,-1.5377,0.0,0.0,0.0,0.0,0.0,0.0,0.0,0.0,0.0,0.0,0.0,0.0,0.0,0.0,0.0,0.0,0.0,-2.6591,-2.6591,-2.6591,-2.6591,-2.6591,-2.6591,-2.6591,-2.6591,-2.6591,-2.6591,-2.6591,-2.6591,-2.6591,-2.6591,0.0,0.0,0.0,-2.6591,-2.6591,-2.6591,-2.6591,-2.6591,-2.6793,-2.7141,-2.7656,-2.7994,-2.8361,-2.8819,-2.8984,-2.8984,-2.8984,-2.8984,-2.8984,-2.8984,-2.8984,-2.8984,-2.8984,-2.8984,-2.8984,-2.8984,-2.8984,-2.8984,-2.8984,-2.8984,-2.8984,-2.8984,-2.8984,-2.8984,-2.8984,-2.8984,-2.8984,-2.8984,-2.8984,-2.8984,-2.8984,-2.8984,-2.9044,-2.9044,-2.9331,-2.9499,-2.9568,-2.9804,-2.9981,-2.9981,-3.0274,-3.045,-3.045,-3.0181,-3.0267,-3.0879,-3.0889,-3.0889,-3.0889,-3.0889,-3.0889,-3.0889,-3.0889,-3.0889,-3.0889,-3.0889,-3.0889,-1.4096,-1.4784,-1.5069,-1.4444,-1.4726,-1.5102,-1.4772,-1.4552,-1.4433,-1.4497,-1.4726,-1.5249,0.0,-1.6358,-1.678,0.0,0.0,0.0,0.0,0.0,0.0,0.0,0.0,0.0,0.0,0.0,0.0,0.0,0.0,0.0,0.0,-2.6591,-2.6591,-2.6591,-2.6591,-2.6591,-2.6591,-2.6591,-2.6591,-2.6591,-2.6591,-2.6591,-2.6591,-2.6591,-2.6591,0.0,0.0,-2.6591,-2.6591,-2.6591,-2.6591,-2.6591,-2.6591,-2.6628,-2.6765,-2.7555,-2.7868,-2.8024,-2.8718,-2.8984,-2.8984,-2.8984,-2.8984,-2.8984,-2.8984,-2.8984,-2.8984,-2.8984,-2.8984,-2.8984,-2.8984,-2.8984,-2.8984,-2.8984,-2.8984,-2.8984,-2.8984,-2.8984,-2.8984,-2.8984,-2.8984,-2.8984,-2.8984,-2.8984,-2.8984,-2.8984,-2.8984,-2.9103,-2.939,-2.945,-2.9568,-2.9804,-3.0157,-3.0333,-3.0333,-3.0635,-3.083,-3.083,-3.0762,-3.0762,-3.0889,-3.0889,-3.0889,-3.0889,-3.0889,-3.0889,-3.0889,-3.0889,-3.0889,-3.0889,-3.0889,-3.0889,-1.3811,-1.4354,-1.4817,-1.4609,-1.5478,-1.6294,-1.59,-1.5643,-1.5519,-1.5762,-1.578,0.0,0.0,0.0,-1.8522,-2.0319,0.0,0.0,0.0,0.0,0.0,0.0,0.0,0.0,0.0,0.0,0.0,0.0,0.0,0.0,0.0,0.0,-2.6736,-2.6591,-2.6591,-2.6591,-2.6591,-2.6591,-2.6591,-2.6591,-2.6591,-2.6591,-2.6591,-2.6591,-2.6591,-2.6591,0.0,-2.6591,-2.6591,-2.6591,-2.6591,-2.6591,-2.6591,-2.6591,-2.6683,-2.7471,-2.8107,-2.8471,-2.8847,-2.8984,-2.8984,-2.8984,-2.8984,-2.8984,-2.8984,-2.8984,-2.8984,-2.8984,-2.8984,-2.8984,-2.8984,-2.8984,-2.8984,-2.8984,-2.8984,-2.8984,-2.8984,-2.8984,-2.8984,-2.8984,-2.8984,-2.8984,-2.8984,-2.8984,-2.9035,-2.9213,-2.9272,-2.939,-2.9686,-2.9863,-3.0039,-3.0157,-3.046,-3.0694,-3.0694,-3.083,-3.0889,-3.0889,-3.0889,-3.0889,-3.0889,-3.0889,-3.0889,-3.0889,-3.0889,-3.0889,-3.0889,-3.0889,-3.0889,-3.0889,-3.0889,-3.0889,-1.383,-1.4228,-1.4777,-1.5142,-1.6092,-1.6982,-1.7147,-1.6807,-1.6617,-1.733,-1.7229,0.0,0.0,-1.8705,0.0,-2.1348,0.0,0.0,0.0,0.0,0.0,0.0,0.0,0.0,0.0,0.0,0.0,0.0,0.0,0.0,0.0,0.0,-2.6944,-2.6691,-2.6691,-2.6636,-2.6591,-2.6591,-2.6591,-2.6591,-2.6591,-2.6591,-2.6591,-2.6591,-2.6591,-2.6591,-2.6591,-2.6591,-2.6591,-2.6591,-2.6591,-2.6591,-2.6591,-2.6646,-2.6811,-2.7564,-2.8223,-2.8856,-2.8948,-2.8984,-2.8984,-2.8984,-2.8984,-2.8984,-2.8984,-2.8984,-2.8984,-2.8984,-2.8984,-2.8984,-2.8984,-2.8984,-2.8984,-2.8984,-2.8984,-2.8984,-2.8984,-2.8984,-2.8984,-2.8984,-2.8984,-2.9044,-2.9103,-2.9103,-2.9222,-2.9568,-2.9558,-2.9686,-2.9981,-3.0216,-3.045,-3.0509,-3.0762,-3.0889,-3.0889,-3.0889,-3.0889,-3.0889,-3.0889,-3.0889,-3.0889,-3.0889,-3.0889,-3.0889,-3.0889,-3.0889,-3.0889,-3.0889,-3.0889,-3.0889,-3.0889,-3.0889,-1.5012,-1.4988,-1.4842,-1.5514,-1.546,-1.5762,-1.7578,-1.7395,-1.7293,-1.8815,-1.91,0.0,0.0,-2.0145,-2.1016,-2.1135,0.0,0.0,0.0,0.0,0.0,0.0,0.0,0.0,0.0,0.0,0.0,0.0,0.0,0.0,0.0,0.0,0.0,-2.6989,-2.6989,-2.6836,-2.6591,-2.6591,-2.6591,-2.6591,-2.6591,-2.6591,-2.6591,-2.6591,-2.6591,-2.6591,-2.6591,-2.6591,-2.6591,-2.6591,-2.6591,-2.6591,-2.6591,-2.6811,-2.7187,-2.7666,-2.8049,-2.8489,-2.8856,-2.8984,-2.8984,-2.8984,-2.8984,-2.8984,-2.8984,-2.8984,-2.8984,-2.8984,-2.8984,-2.8984,-2.8984,-2.8984,-2.8984,-2.8984,-2.8984,-2.8984,-2.8984,-2.8984,-2.8984,-2.8984,-2.8984,-2.9103,-2.939,-2.944,-2.9568,-2.9804,-2.9863,-2.9981,-3.0333,-3.0392,-3.0509,-3.083,-3.0889,-3.0889,-3.0889,-3.0889,-3.0889,-3.0889,-3.0889,-3.0889,-3.0889,-3.0889,-3.0889,-3.0889,-3.0889,-3.0889,-3.0889,-3.0889,-3.0889,-3.0889,-3.0889,-3.0889,-1.5006,-1.5093,-1.5343,-1.5937,-1.634,-1.6927,-1.8201,-1.8834,-1.9467,-2.0543,-2.0772,0.0,0.0,0.0,-2.2131,0.0,0.0,0.0,0.0,0.0,0.0,0.0,0.0,0.0,0.0,0.0,0.0,0.0,0.0,0.0,0.0,0.0,0.0,-2.6893,-2.6586,-2.6392,-2.6296,-2.6558,-2.6635,-2.6474,-2.6571,-2.6591,-2.6591,-2.6591,-2.6591,-2.6591,-2.6591,-2.6591,-2.6591,-2.6591,-2.6591,-2.6591,-2.6591,-2.683,-2.7224,-2.7675,-2.8031,-2.8511,-2.9074,-2.9153,-2.9044,-2.9213,-2.9153,-2.8984,-2.8984,-2.8984,-2.8984,-2.8984,-2.8984,-2.8984,-2.8984,-2.8984,-2.8984,-2.8984,-2.8984,-2.8984,-2.8984,-2.8984,-2.8984,-2.8984,-2.9153,-2.9331,-2.9499,-2.9627,-2.9863,-3.0157,-3.0216,-3.0333,-3.0645,-3.0704,-3.0762,-3.0889,-3.0889,-3.0889,-3.0889,-3.0889,-3.0889,-3.0889,-3.0889,-3.0889,-3.0889,-3.0889,-3.0889,-3.0889,-3.0889,-3.0889,-3.0889,-3.0889,-3.0889,-3.0889,-3.0889,-3.1035,-1.4896,-1.498,-1.5345,-1.5864,-1.6828,-1.7953,-1.9047,-2.0017,-2.1007,-2.2044,-2.2062,-2.1879,-2.1879,0.0,0.0,0.0,0.0,0.0,0.0,0.0,0.0,0.0,0.0,0.0,0.0,0.0,0.0,0.0,0.0,0.0,0.0,0.0,0.0,0.0,-2.6446,-2.6191,-2.6088,-2.6423,-2.646,-2.6312,-2.6572,-2.6625,-2.6591,-2.6591,-2.6591,-2.6591,-2.6591,-2.6636,-2.6745,-2.6636,-2.6591,-2.6646,-2.68,-2.6966,-2.7207,-2.7855,-2.8234,-2.8616,-2.9381,-2.945,-2.9331,-2.9568,-2.945,-2.9281,-2.9153,-2.9222,-2.9281,-2.9153,-2.9213,-2.9272,-2.9272,-2.9213,-2.9153,-2.9044,-2.9103,-2.9163,-2.9163,-2.9163,-2.9153,-2.9281,-2.945,-2.9686,-2.9795,-2.9922,-3.0157,-3.0509,-3.0577,-3.0635,-3.0889,-3.0889,-3.0889,-3.0889,-3.0889,-3.0889,-3.0889,-3.0889,-3.0889,-3.0889,-3.0889,-3.0889,-3.0889,-3.0889,-3.0889,-3.0889,-3.0889,-3.0889,-3.0889,-3.0889,-3.0889,-3.0898,-3.1025,-3.124,-1.4868,-1.4589,-1.4716,-1.5184,-1.6741,-1.8534,-2.0154,-2.0833,-2.1575,-2.3169,-2.2858,-2.2291,-2.2327,-2.2327,0.0,0.0,0.0,0.0,0.0,0.0,0.0,0.0,0.0,0.0,0.0,0.0,0.0,0.0,0.0,0.0,0.0,0.0,0.0,0.0,-2.6583,-2.6429,-2.6078,-2.6078,-2.6088,-2.6088,-2.6555,-2.6723,-2.6582,-2.6591,-2.6591,-2.6591,-2.6591,-2.6736,-2.6989,-2.6745,-2.6591,-2.6636,-2.7161,-2.726,-2.7146,-2.8304,-2.8719,-2.8786,-2.9628,-2.9922,-2.9922,-2.9922,-2.9922,-2.9863,-2.9568,-2.9686,-2.9863,-2.9568,-2.9686,-2.9922,-2.9922,-2.9686,-2.945,-2.9103,-2.9272,-2.9499,-2.9499,-2.9499,-2.9568,-2.9863,-2.9922,-2.9981,-3.0323,-3.0382,-3.0509,-3.083,-3.0889,-3.0889,-3.0889,-3.0889,-3.0889,-3.0889,-3.0889,-3.0889,-3.0889,-3.0889,-3.0889,-3.0889,-3.0889,-3.0889,-3.0889,-3.0889,-3.0889,-3.0889,-3.0889,-3.0889,-3.0889,-3.0889,-3.0889,-3.0908,-3.1318,-3.1523,-1.479,-1.4907,-1.5501,-1.6562,-1.8244,-2.0036,-2.1569,-2.2085,-2.2575,-2.3742,-2.3692,-2.3334,-2.3075,0.0,0.0,0.0,0.0,0.0,0.0,0.0,0.0,0.0,0.0,0.0,0.0,0.0,0.0,0.0,0.0,0.0,0.0,0.0,0.0,0.0,-2.612,-2.5916,-2.5817,-2.6176,-2.621,-2.5948,-2.6429,-2.6703,-2.6749,-2.7039,-2.7171,-2.7171,-2.7171,-2.7215,-2.726,-2.7215,-2.7171,-2.7171,-2.7323,-2.7368,-2.738,-2.7973,-2.8407,-2.8804,-2.9585,-2.986,-2.9922,-3.0157,-3.0098,-2.9872,-2.9804,-2.9863,-2.9863,-2.9804,-2.9863,-2.9922,-2.9922,-3.0039,-3.0039,-2.9686,-2.9686,-2.9804,-2.9804,-2.9804,-2.9804,-2.9863,-2.9922,-2.9981,-3.0323,-3.0216,-3.0157,-3.0518,-3.0343,-3.0284,-3.0518,-3.0577,-3.0635,-3.0889,-3.0889,-3.0889,-3.0889,-3.0889,-3.0889,-3.0889,-3.0889,-3.0889,-3.0889,-3.0889,-3.0889,-3.0889,-3.0889,-3.0889,-3.0889,-3.0889,-3.1045,-3.1338,-3.1455,-3.1846,-1.5226,-1.5571,-1.6357,-1.7951,-1.9516,-2.1132,-2.2945,0.0,0.0,0.0,-2.4124,-2.4,-2.3802,0.0,0.0,0.0,0.0,0.0,0.0,0.0,0.0,0.0,0.0,0.0,0.0,0.0,0.0,0.0,0.0,0.0,0.0,0.0,0.0,0.0,-2.583,-2.5693,-2.5693,-2.5996,-2.6024,-2.5817,-2.6301,-2.6538,-2.6663,-2.6973,-2.728,-2.7431,-2.7539,-2.7539,-2.7431,-2.753,-2.7539,-2.7431,-2.753,-2.7584,-2.7631,-2.816,-2.8636,-2.9124,-2.9717,-3.0103,-3.0343,-3.0518,-3.046,-3.0284,-3.0157,-3.0157,-3.0284,-3.0157,-3.0157,-3.0284,-3.0284,-3.046,-3.046,-2.9981,-2.9981,-3.0098,-3.0098,-2.9981,-2.9922,-3.0098,-3.0098,-3.0098,-3.0216,-3.0157,-3.0098,-3.0216,-3.0157,-3.0216,-3.0577,-3.0577,-3.0704,-3.0889,-3.0889,-3.0889,-3.0889,-3.0889,-3.0889,-3.0889,-3.0889,-3.0889,-3.0889,-3.0889,-3.0889,-3.0889,-3.0889,-3.0889,-3.0889,-3.1055,-3.1269,-3.1523,-3.1865,-3.2305,-1.5928,-1.6416,-1.7265,-1.9253,-2.0663,0.0,-2.4187,-2.4517,-2.439,-2.4276,0.0,-2.44,0.0,0.0,0.0,0.0,0.0,0.0,0.0,0.0,0.0,0.0,0.0,0.0,0.0,0.0,0.0,0.0,0.0,0.0,0.0,0.0,0.0,-2.5693,-2.5693,-2.5693,-2.5693,-2.5693,-2.5693,0.0,-2.6143,-2.6348,-2.6416,-2.6749,-2.7096,-2.7485,-2.7799,-2.7745,-2.7485,-2.7799,-2.7745,-2.7485,-2.7799,-2.796,-2.8008,-2.8612,-2.9141,-2.957,-2.999,-3.0439,-3.083,-3.0879,-3.0889,-3.083,-3.0509,-3.0645,-3.083,-3.0509,-3.0635,-3.0889,-3.0889,-3.0889,-3.0772,-3.0167,-3.0216,-3.045,-3.0392,-3.0157,-3.0098,-3.0392,-3.0441,-3.0323,-3.0049,-3.0216,-3.0274,-2.9922,-3.0186,-3.0498,-3.083,-3.0869,-3.0937,-3.0898,-3.0889,-3.0889,-3.0889,-3.0889,-3.0889,-3.0889,-3.0889,-3.0889,-3.0889,-3.0889,-3.0889,-3.0889,-3.0889,-3.0908,-3.0947,-3.1328,-3.1562,-3.165,-3.2432,-3.2822,-1.5527,-1.6517,-1.8025,-2.0294,-2.2565,-2.4251,-2.4187,-2.4813,-2.5227,-2.4569,-2.4767,-2.5032,0.0,0.0,0.0,0.0,0.0,0.0,0.0,0.0,0.0,0.0,0.0,0.0,0.0,0.0,0.0,0.0,0.0,0.0,0.0,0.0,0.0,-2.5693,-2.5693,-2.5693,-2.5693,-2.5693,-2.5693,0.0,-2.5781,-2.6055,-2.6416,-2.7172,-2.7732,-2.813,-2.8184,-2.8184,-2.813,-2.8184,-2.8184,-2.813,-2.8184,-2.8237,-2.8247,-2.8398,-2.8691,-2.9121,-2.9551,-2.999,-3.04,-3.0771,-3.0889,-3.0889,-3.082,-3.083,-3.0889,-3.082,-3.083,-3.0889,-3.0889,-3.0889,-3.083,-3.0713,-3.0762,-3.0704,-3.045,-3.0577,-3.0704,-3.0762,-3.0577,-3.045,-3.0645,-3.0284,-2.9981,-2.9922,-3.0265,-3.0539,-3.0498,-3.0798,-3.0945,-3.0928,-3.0889,-3.0889,-3.0889,-3.0889,-3.0889,-3.0889,-3.0889,-3.0889,-3.0889,-3.0889,-3.0889,-3.0889,-3.0889,-3.1055,-3.1377,-3.1475,-3.1865,-3.2519,-3.2705,-3.2969,-1.6016,-1.7239,-1.8773,-2.1453,0.0,-2.501,-2.4635,-2.4993,-2.5324,-2.4943,-2.5186,0.0,0.0,0.0,0.0,0.0,0.0,0.0,0.0,0.0,0.0,0.0,0.0,0.0,0.0,0.0,0.0,0.0,0.0,0.0,0.0,-2.5693,-2.5693,-2.5693,-2.5693,-2.5693,-2.5693,-2.5693,-2.5693,-2.5693,-2.5693,-2.5967,-2.6416,-2.7275,-2.7783,-2.7998,-2.8203,-2.8291,-2.8291,-2.8184,-2.8184,-2.8291,-2.8184,-2.8184,-2.8291,-2.8291,-2.8555,-2.8984,-2.9414,-2.9844,-3.0273,-3.0742,-3.0889,-3.0889,-3.0889,-3.0889,-3.0889,-3.0889,-3.0889,-3.0889,-3.0889,-3.0889,-3.083,-3.0704,-3.0762,-3.083,-3.0704,-3.0635,-3.0645,-3.0645,-3.0509,-3.0392,-3.0401,-3.0338,-3.0284,-3.0394,-3.0825,-3.1146,-3.1275,-3.143,-3.1471,-3.123,-3.1191,-3.1103,-3.0908,-3.1074,-3.1191,-3.1191,-3.1387,-3.1504,-3.1504,-3.1504,-3.1309,-3.0898,-3.0889,-3.1094,-3.1514,-3.1728,-3.2158,-3.2803,-3.2998,-3.3213,-1.6133,-1.7764,-1.9514,-2.2389,-2.4062,0.0,-2.4998,-2.4998,-2.5031,-2.5228,0.0,0.0,0.0,0.0,0.0,0.0,0.0,0.0,0.0,0.0,0.0,0.0,0.0,0.0,0.0,0.0,0.0,0.0,0.0,0.0,-2.5693,-2.5693,-2.5693,-2.5693,-2.5693,-2.5693,-2.5693,-2.5693,-2.5693,-2.5693,-2.5693,-2.5879,-2.6309,-2.709,-2.7581,-2.7738,-2.8037,-2.8223,-2.8291,-2.8067,-2.8121,-2.8291,-2.8067,-2.8121,-2.8291,-2.8291,-2.8516,-2.8877,-2.9394,-2.9795,-3.0176,-3.0713,-3.083,-3.082,-3.082,-3.082,-3.082,-3.082,-3.083,-3.0889,-3.0889,-3.0889,-3.083,-3.0577,-3.0704,-3.0889,-3.083,-3.0635,-3.0509,-3.0509,-3.0509,-3.0421,-3.0194,-3.0508,-3.0876,-3.1173,-3.1629,-3.1951,-3.2178,-3.2226,-3.208,-3.1572,-3.1514,-3.1377,-3.1025,-3.1318,-3.1543,-3.1621,-3.1973,-3.2229,-3.2229,-3.2229,-3.1836,-3.1123,-3.1113,-3.1318,-3.1738,-3.21,-3.249,-3.291,-3.3262,-3.3418,-1.3936,0.0,-2.0293,0.0,-2.3838,-2.4502,0.0,0.0,-2.4629,0.0,0.0,0.0,0.0,0.0,0.0,0.0,0.0,0.0,0.0,0.0,0.0,0.0,0.0,0.0,0.0,0.0,0.0,0.0,0.0,0.0,-2.5693,-2.5693,-2.5693,-2.5693,-2.5693,-2.5693,-2.5693,-2.5693,-2.5693,-2.5693,-2.5693,-2.5713,-2.5791,-2.6338,-2.6963,-2.7718,-2.7777,-2.7959,-2.8291,-2.8237,-2.8291,-2.8291,-2.8237,-2.8291,-2.8291,-2.8291,-2.833,-2.8486,-2.9297,-2.9665,-2.9785,-3.0625,-3.0704,-3.045,-3.045,-3.045,-3.045,-3.045,-3.0704,-3.0889,-3.0889,-3.0889,-3.0889,-3.083,-3.0889,-3.083,-3.0509,-3.0645,-3.083,-3.083,-3.083,-3.0947,-3.1249,-3.1356,-3.1521,-3.1961,-3.238,-3.2516,-3.2217,-3.249,-3.2412,-3.1601,-3.1514,-3.1494,-3.1435,-3.1484,-3.168,-3.206,-3.2139,-3.2229,-3.2229,-3.2229,-3.218,-3.2002,-3.2002,-3.2207,-3.2627,-3.2685,-3.293,-3.334,-3.3389,-3.3418,-1.5078,-1.7754,-2.0381,0.0,-2.3437,-2.4121,-2.4365,0.0,-2.4541,0.0,0.0,0.0,0.0,0.0,0.0,0.0,0.0,0.0,0.0,0.0,0.0,0.0,0.0,0.0,0.0,0.0,0.0,0.0,0.0,-2.5693,-2.5693,-2.5693,-2.5693,-2.5693,-2.5693,-2.5693,-2.5693,-2.5693,-2.5693,-2.5693,-2.5693,-2.5693,-2.5693,-2.5888,-2.6357,-2.6973,-2.7513,-2.7826,-2.7959,-2.8193,-2.8291,-2.8291,-2.8291,-2.8291,-2.8291,-2.8291,-2.8184,-2.8247,-2.9268,-2.9458,-2.9492,-3.0548,-3.082,-3.0704,-3.0704,-3.0704,-3.0704,-3.0704,-3.0772,-3.0889,-3.0889,-3.0889,-3.0889,-3.0889,-3.0889,-3.083,-3.0704,-3.082,-3.0889,-3.0889,-3.0889,-3.0947,-3.1133,-3.1562,-3.1953,-3.2139,-3.2725,-3.3076,-3.2891,-3.3037,-3.291,-3.2295,-3.2236,-3.2139,-3.1904,-3.21,-3.2314,-3.251,-3.2744,-3.2871,-3.2871,-3.2871,-3.2871,-3.2871,-3.2412,-3.2373,-3.2793,-3.2793,-3.3008,-3.3418,-3.3418,-3.3418,-1.5586,0.0,-1.9268,-2.1338,-2.2588,-2.3447,0.0,0.0,0.0,0.0,0.0,0.0,0.0,0.0,0.0,0.0,0.0,0.0,0.0,0.0,0.0,0.0,0.0,0.0,0.0,0.0,0.0,0.0,0.0,-2.5693,-2.5693,-2.5693,-2.5693,-2.5693,-2.5693,-2.5693,-2.5693,-2.5693,-2.5693,-2.5693,-2.5693,-2.5693,-2.5693,-2.5693,-2.5869,-2.626,-2.7012,-2.7513,-2.7738,-2.7998,-2.8193,-2.8291,-2.8291,-2.8291,-2.8291,-2.8291,-2.8184,-2.8139,-2.9212,-2.9458,-2.9436,-3.0548,-3.083,-3.0762,-3.0762,-3.0762,-3.0762,-3.0762,-3.083,-3.0889,-3.0889,-3.0889,-3.0889,-3.0889,-3.0889,-3.0889,-3.0889,-3.0889,-3.0889,-3.0889,-3.0976,-3.1084,-3.1201,-3.1836,-3.2363,-3.2471,-3.3027,-3.3418,-3.3418,-3.3418,-3.3262,-3.2842,-3.2793,-3.2666,-3.2353,-3.2617,-3.2842,-3.2949,-3.3252,-3.3418,-3.3418,-3.3418,-3.3418,-3.3418,-3.2803,-3.2637,-3.2949,-3.2949,-3.3115,-3.3418,-3.3418,-3.3418,-1.3558,-1.4933,0.0,-1.9316,-2.1025,-2.2207,0.0,0.0,0.0,0.0,0.0,0.0,0.0,0.0,0.0,0.0,0.0,0.0,0.0,0.0,0.0,0.0,0.0,0.0,0.0,0.0,0.0,0.0,0.0,-2.5693,-2.5693,-2.5693,-2.5693,-2.5693,-2.5693,-2.5693,-2.5693,-2.5693,-2.5693,-2.5693,-2.5693,-2.5693,-2.5693,-2.5693,-2.5703,-2.5742,-2.626,-2.6914,-2.7718,-2.7738,-2.7939,-2.8291,-2.8291,-2.8291,-2.8291,-2.8291,-2.8291,-2.8418,-2.9268,-2.957,-2.9717,-3.0605,-3.0704,-3.045,-3.045,-3.045,-3.045,-3.045,-3.0635,-3.0889,-3.0889,-3.0889,-3.0889,-3.0889,-3.0889,-3.0889,-3.0889,-3.0889,-3.0889,-3.0889,-3.1211,-3.1611,-3.2031,-3.2471,-3.29,-3.3301,-3.3389,-3.3418,-3.3418,-3.3418,-3.3262,-3.2842,-3.2793,-3.2783,-3.2764,-3.2783,-3.2969,-3.3359,-3.3408,-3.3418,-3.3418,-3.3418,-3.3418,-3.3418,-3.3379,-3.3369,-3.3389,-3.3389,-3.3398,-3.3418,-3.3418,-3.3418,-1.2998,0.0,0.0,-1.7803,-1.9463,-2.085,-2.1728,0.0,0.0,0.0,0.0,0.0,0.0,0.0,0.0,0.0,0.0,0.0,0.0,0.0,0.0,0.0,0.0,0.0,0.0,0.0,0.0,0.0,0.0,0.0,-2.5293,-2.5303,-2.5439,-2.5674,-2.5693,-2.5693,-2.5693,-2.5693,-2.5693,-2.5693,-2.5693,-2.5693,-2.5693,-2.5693,-2.5693,-2.5693,-2.5908,-2.6455,-2.7266,-2.7601,-2.7963,-2.8291,-2.8291,-2.8291,-2.8291,-2.8291,-2.8184,-2.8193,-2.9212,-2.9458,-2.9445,-3.0548,-3.083,-3.0704,-3.0704,-3.0704,-3.0704,-3.0704,-3.083,-3.0889,-3.0889,-3.0889,-3.0889,-3.0889,-3.0889,-3.0967,-3.123,-3.1299,-3.1299,-3.1299,-3.1641,-3.1982,-3.2139,-3.2519,-3.2754,-3.2637,-3.3076,-3.333,-3.3057,-3.3252,-3.3359,-3.3213,-3.3203,-3.3203,-3.3203,-3.3203,-3.3262,-3.3408,-3.3418,-3.3418,-3.3418,-3.3418,-3.3418,-3.3418,-3.3418,-3.3418,-3.3418,-3.3418,-3.3418,-3.3418,-3.3418,-3.3418,-1.2178,0.0,0.0,0.0,0.0,-1.9082,-2.0791,0.0,0.0,0.0,0.0,0.0,0.0,0.0,0.0,0.0,0.0,0.0,0.0,0.0,0.0,0.0,0.0,0.0,0.0,0.0,0.0,0.0,0.0,0.0,-2.4834,-2.4853,-2.5049,-2.5498,-2.5615,-2.5693,-2.5693,-2.5693,-2.5693,-2.5693,-2.5693,-2.5693,-2.5693,-2.5693,-2.5693,-2.5693,-2.5693,-2.6171,-2.7041,-2.7334,-2.7783,-2.8291,-2.8291,-2.8291,-2.8291,-2.8291,-2.8184,-2.8193,-2.9212,-2.9458,-2.9436,-3.0548,-3.0889,-3.0889,-3.0889,-3.0889,-3.0889,-3.0889,-3.0889,-3.0889,-3.0889,-3.0889,-3.0889,-3.0889,-3.0996,-3.1172,-3.1455,-3.1514,-3.1562,-3.1709,-3.208,-3.2383,-3.2383,-3.2725,-3.291,-3.2627,-3.3066,-3.332,-3.3037,-3.3252,-3.3418,-3.3418,-3.3418,-3.3418,-3.3418,-3.3418,-3.3418,-3.3418,-3.3418,-3.3418,-3.3418,-3.3418,-3.3418,-3.3418,-3.3418,-3.3418,-3.3418,-3.3418,-3.3418,-3.3418,-3.3418,-3.3418,0.0,0.0,0.0,0.0,0.0,0.0,0.0,0.0,0.0,0.0,0.0,0.0,0.0,0.0,0.0,0.0,0.0,0.0,0.0,0.0,0.0,0.0,0.0,0.0,0.0,0.0,0.0,0.0,0.0,-2.4385,-2.4394,-2.4414,-2.4609,-2.5077,-2.5488,-2.5664,-2.5664,-2.5684,-2.5693,-2.5693,-2.5693,-2.5693,-2.5693,-2.5693,-2.5693,-2.5693,-2.5693,-2.6171,-2.7012,-2.7012,-2.7519,-2.8291,-2.8291,-2.8291,-2.8291,-2.8291,-2.8301,-2.8428,-2.9277,-2.9636,-2.9792,-3.0605,-3.0889,-3.0889,-3.0889,-3.0889,-3.0889,-3.0889,-3.0889,-3.0889,-3.0889,-3.0889,-3.0889,-3.0889,-3.1211,-3.1523,-3.1533,-3.1543,-3.168,-3.21,-3.2529,-3.2812,-3.2812,-3.3154,-3.3418,-3.3408,-3.3408,-3.3408,-3.3408,-3.3408,-3.3408,-3.3418,-3.3418,-3.3418,-3.3418,-3.3418,-3.3418,-3.3418,-3.3418,-3.3418,-3.3418,-3.3418,-3.3418,-3.3418,-3.3418,-3.3418,-3.3418,-3.3418,-3.3418,-3.3418,-3.3418,-3.3418,-1.1526,0.0,0.0,0.0,0.0,0.0,0.0,0.0,0.0,0.0,0.0,0.0,0.0,0.0,0.0,0.0,0.0,0.0,0.0,0.0,0.0,0.0,0.0,0.0,0.0,0.0,0.0,0.0,-2.3452,-2.3633,-2.3945,-2.4248,-2.4473,-2.459,-2.5019,-2.5254,-2.5254,-2.5528,-2.5693,-2.5693,-2.5693,-2.5693,-2.5693,-2.5693,-2.5693,-2.5693,-2.5693,-2.6171,-2.7012,-2.7012,-2.7519,-2.8291,-2.8291,-2.8291,-2.8291,-2.8291,-2.8486,-2.8828,-2.9375,-2.9766,-3.0117,-3.0703,-3.0889,-3.0889,-3.0889,-3.0889,-3.0889,-3.0889,-3.0889,-3.0889,-3.0889,-3.0889,-3.0889,-3.0889,-3.1211,-3.1601,-3.1924,-3.2226,-3.248,-3.2598,-3.2959,-3.3252,-3.3252,-3.334,-3.332,-3.3008,-3.2969,-3.2969,-3.2969,-3.2969,-3.3086,-3.3389,-3.3418,-3.3418,-3.3418,-3.3418,-3.3418,-3.3418,-3.3418,-3.3418,-3.3418,-3.3418,-3.3418,-3.3418,-3.3418,-3.3418,-3.3418,-3.3418,-3.3418,-3.3418,-3.3418,-3.3418,-1.21,-1.2783,0.0,0.0,0.0,0.0,0.0,-1.659,0.0,0.0,0.0,0.0,0.0,0.0,0.0,0.0,0.0,0.0,0.0,0.0,0.0,0.0,0.0,0.0,0.0,0.0,0.0,-2.3091,-2.3091,-2.3208,-2.3506,-2.3926,-2.415,-2.415,-2.457,-2.4883,-2.5116,-2.5332,-2.5557,-2.5693,-2.5693,-2.5693,-2.5693,-2.5693,-2.5693,-2.5693,-2.5693,-2.6171,-2.7012,-2.7012,-2.7519,-2.8291,-2.8291,-2.8291,-2.8291,-2.8291,-2.8555,-2.8984,-2.9414,-2.9844,-3.0273,-3.0742,-3.0889,-3.0889,-3.0889,-3.0889,-3.0889,-3.0889,-3.0889,-3.0889,-3.0889,-3.0889,-3.0937,-3.1113,-3.1475,-3.1904,-3.2334,-3.2764,-3.3057,-3.3057,-3.3252,-3.3418,-3.3418,-3.3418,-3.334,-3.3096,-3.3057,-3.3057,-3.3057,-3.3057,-3.3144,-3.3389,-3.3418,-3.3418,-3.3418,-3.3418,-3.3418,-3.3418,-3.3418,-3.3418,-3.3418,-3.3418,-3.3418,-3.3418,-3.3418,-3.3418,-3.3418,-3.3418,-3.3418,-3.3418,-3.3418,-3.3418,-1.2954,-1.3383,0.0,0.0,0.0,0.0,-1.6787,-1.6931,0.0,0.0,0.0,0.0,0.0,0.0,0.0,0.0,0.0,0.0,0.0,0.0,0.0,0.0,0.0,0.0,0.0,-2.314,-2.3149,-2.3101,-2.3091,-2.3091,-2.3091,-2.3506,-2.3721,-2.3721,-2.4121,-2.456,-2.5037,-2.5086,-2.5293,-2.5693,-2.5693,-2.5693,-2.5693,-2.5693,-2.5693,-2.5693,-2.5693,-2.6171,-2.7012,-2.7012,-2.7519,-2.8291,-2.8291,-2.8291,-2.8291,-2.8291,-2.8594,-2.9053,-2.9434,-2.9883,-3.0342,-3.0752,-3.0889,-3.0889,-3.0889,-3.0889,-3.0889,-3.0889,-3.0889,-3.0889,-3.0889,-3.0889,-3.0996,-3.1416,-3.1846,-3.2285,-3.2705,-3.3125,-3.3418,-3.3418,-3.3418,-3.3418,-3.3418,-3.3418,-3.3418,-3.3418,-3.3379,-3.3369,-3.3418,-3.3379,-3.3369,-3.3418,-3.3418,-3.3418,-3.3418,-3.3418,-3.3418,-3.3418,-3.3418,-3.3418,-3.3418,-3.3418,-3.3418,-3.3418,-3.3418,-3.3418,-3.3418,-3.3418,-3.3418,-3.3418,-3.3418,-3.3418,-1.4785,-1.4971,-1.4903,-1.3994,0.0,0.0,0.0,-1.4551,0.0,0.0,0.0,0.0,0.0,0.0,0.0,0.0,0.0,0.0,0.0,0.0,0.0,0.0,0.0,0.0,0.0,-2.3457,-2.3516,-2.312,-2.3091,-2.3091,-2.3091,-2.3179,-2.3218,-2.3218,-2.3682,-2.4121,-2.4541,-2.4893,-2.5293,-2.5693,-2.5693,-2.5693,-2.5693,-2.5693,-2.5693,-2.5693,-2.5693,-2.6171,-2.7012,-2.7012,-2.7519,-2.8291,-2.8291,-2.8291,-2.8291,-2.8291,-2.8779,-2.9453,-2.9597,-3.0088,-3.0771,-3.0859,-3.0889,-3.0889,-3.0889,-3.0889,-3.0889,-3.0889,-3.0889,-3.0889,-3.0889,-3.0889,-3.0996,-3.1416,-3.1846,-3.2285,-3.2705,-3.3125,-3.3418,-3.3418,-3.3418,-3.3418,-3.3418,-3.3418,-3.3418,-3.3418,-3.3135,-3.3037,-3.3379,-3.3125,-3.3047,-3.3389,-3.3418,-3.3418,-3.3418,-3.3418,-3.3418,-3.3418,-3.3418,-3.3418,-3.3418,-3.3418,-3.3418,-3.3418,-3.3418,-3.3418,-3.3418,-3.3418,-3.3418,-3.3418,-3.3418,-3.3418,-1.5859,-1.5898,-1.5888,-1.5245,0.0,0.0,0.0,0.0,0.0,0.0,0.0,0.0,0.0,0.0,0.0,0.0,0.0,0.0,0.0,0.0,0.0,0.0,0.0,0.0,0.0,-2.3027,-2.3232,-2.3447,-2.3467,-2.3467,-2.3467,-2.3218,-2.3091,-2.3091,-2.3305,-2.3672,-2.4102,-2.4531,-2.4971,-2.541,-2.5586,-2.5693,-2.5693,-2.5693,-2.5693,-2.5693,-2.5693,-2.6171,-2.7012,-2.7012,-2.7519,-2.8291,-2.8291,-2.8291,-2.8291,-2.8291,-2.8828,-2.9626,-2.9626,-3.0146,-3.0889,-3.0889,-3.0889,-3.0889,-3.0889,-3.0889,-3.0889,-3.0889,-3.0889,-3.0889,-3.0889,-3.0889,-3.0996,-3.1416,-3.168,-3.1963,-3.2393,-3.2812,-3.3105,-3.3105,-3.3281,-3.3418,-3.3418,-3.3418,-3.3418,-3.3418,-3.3242,-3.3184,-3.3389,-3.3242,-3.3193,-3.3398,-3.3418,-3.3418,-3.3418,-3.3418,-3.3418,-3.3418,-3.3418,-3.3418,-3.3418,-3.3418,-3.3418,-3.3418,-3.3418,-3.3418,-3.3418,-3.3418,-3.3418,-3.3418,-3.3418,-3.3418,0.0,0.0,0.0,0.0,0.0,-1.6034,0.0,0.0,0.0,0.0,0.0,0.0,0.0,0.0,0.0,0.0,0.0,0.0,0.0,0.0,0.0,0.0,0.0,0.0,0.0,-2.2314,-2.2695,-2.3711,-2.3486,-2.3408,-2.3652,-2.333,-2.3091,-2.3091,-2.3091,-2.335,-2.3789,-2.4209,-2.4639,-2.5116,-2.5527,-2.5693,-2.5693,-2.5693,-2.5693,-2.5693,-2.5693,-2.6171,-2.7012,-2.7012,-2.7519,-2.8291,-2.8291,-2.8291,-2.8291,-2.8291,-2.8779,-2.9453,-2.9597,-3.0088,-3.0771,-3.0859,-3.0889,-3.0889,-3.0889,-3.0889,-3.0889,-3.0889,-3.0889,-3.0889,-3.0889,-3.0889,-3.0996,-3.1416,-3.1514,-3.1641,-3.207,-3.25,-3.2793,-3.2793,-3.3135,-3.3418,-3.3418,-3.3418,-3.3418,-3.3418,-3.335,-3.333,-3.3408,-3.335,-3.333,-3.3408,-3.3418,-3.3418,-3.3418,-3.3418,-3.3418,-3.3418,-3.3418,-3.3418,-3.3418,-3.3418,-3.3418,-3.3418,-3.3418,-3.3418,-3.3418,-3.3418,-3.3418,-3.3418,-3.3418,-3.3418,0.0,0.0,0.0,0.0,-1.7477,0.0,0.0,0.0,0.0,0.0,0.0,0.0,0.0,0.0,0.0,0.0,0.0,0.0,0.0,0.0,0.0,0.0,0.0,0.0,0.0,0.0,-2.2051,-2.3672,-2.2383,-2.198,-2.311,-2.312,-2.3091,-2.3091,-2.3091,-2.335,-2.3789,-2.4209,-2.4639,-2.5116,-2.5527,-2.5693,-2.5693,-2.5693,-2.5693,-2.5693,-2.5693,-2.6171,-2.7012,-2.7012,-2.7519,-2.8291,-2.8291,-2.8291,-2.8291,-2.8291,-2.8594,-2.9053,-2.9434,-2.9883,-3.0342,-3.0752,-3.0889,-3.0889,-3.0889,-3.0889,-3.0889,-3.0889,-3.0889,-3.0889,-3.0889,-3.0889,-3.0996,-3.1416,-3.1514,-3.1641,-3.207,-3.25,-3.2793,-3.2793,-3.3135,-3.3418,-3.3418,-3.3418,-3.3418,-3.3418,-3.3105,-3.2998,-3.3379,-3.3096,-3.3008,-3.3379,-3.3418,-3.3418,-3.3418,-3.3418,-3.3418,-3.3418,-3.3418,-3.3418,-3.3418,-3.3418,-3.3418,-3.3418,-3.3418,-3.3418,-3.3418,-3.3418,-3.3418,-3.3418,-3.3418,-3.3418,0.0,0.0,0.0,0.0,0.0,0.0,-1.6015,0.0,-1.5586,0.0,0.0,0.0,0.0,0.0,0.0,0.0,0.0,0.0,0.0,0.0,0.0,0.0,0.0,0.0,0.0,0.0,0.0,0.0,0.0,-2.206,-2.3096,-2.3101,-2.3091,-2.3091,-2.3091,-2.3179,-2.3408,-2.4082,-2.4512,-2.4697,-2.54,-2.5693,-2.5693,-2.5693,-2.5693,-2.5693,-2.5693,-2.6171,-2.7012,-2.7012,-2.7519,-2.8291,-2.8291,-2.8291,-2.8291,-2.8291,-2.8721,-2.9316,-2.9502,-3.0019,-3.0635,-3.083,-3.0889,-3.0889,-3.0889,-3.0889,-3.0889,-3.0889,-3.0889,-3.0889,-3.0889,-3.0889,-3.0937,-3.1113,-3.1338,-3.1562,-3.1748,-3.2324,-3.2793,-3.2793,-3.3135,-3.3418,-3.3418,-3.3418,-3.3418,-3.3418,-3.3271,-3.3223,-3.3398,-3.3271,-3.3223,-3.3408,-3.3418,-3.3418,-3.3418,-3.3418,-3.3418,-3.3418,-3.3418,-3.3418,-3.3418,-3.3418,-3.3418,-3.3418,-3.3418,-3.3418,-3.3418,-3.3418,-3.3418,-3.3418,-3.3418,-3.3418,-1.9785,0.0,0.0,0.0,0.0,0.0,0.0,0.0,0.0,0.0,0.0,0.0,0.0,0.0,0.0,0.0,0.0,0.0,0.0,0.0,0.0,0.0,0.0,0.0,0.0,0.0,0.0,0.0,0.0,0.0,-2.2787,-2.291,-2.2925,-2.2925,-2.3033,-2.3091,-2.3091,-2.3939,-2.4414,-2.4424,-2.5265,-2.5693,-2.5693,-2.5693,-2.5693,-2.5693,-2.5693,-2.6171,-2.7012,-2.7012,-2.7519,-2.8291,-2.8291,-2.8291,-2.8291,-2.8291,-2.876,-2.9414,-2.9587,-3.0146,-3.0889,-3.0889,-3.0889,-3.0889,-3.0889,-3.0889,-3.0889,-3.0889,-3.0889,-3.0918,-3.1035,-3.1064,-3.1094,-3.1211,-3.1475,-3.1699,-3.1699,-3.2275,-3.2793,-3.2793,-3.3135,-3.3418,-3.3418,-3.3418,-3.3418,-3.3418,-3.333,-3.3291,-3.3408,-3.332,-3.3301,-3.3408,-3.3418,-3.3418,-3.3418,-3.3418,-3.3418,-3.3418,-3.3418,-3.3418,-3.3418,-3.3418,-3.3418,-3.3418,-3.3418,-3.3418,-3.3418,-3.3418,-3.3355,-3.3228,-3.3228,-3.3228,0.0,0.0,0.0,-1.8555,0.0,0.0,0.0,0.0,-1.7187,0.0,0.0,0.0,0.0,0.0,0.0,0.0,0.0,0.0,0.0,0.0,0.0,0.0,0.0,0.0,0.0,0.0,0.0,0.0,0.0,0.0,-2.1816,-2.2314,-2.2539,-2.2539,-2.2886,-2.3091,-2.3091,-2.3939,-2.4414,-2.4424,-2.5265,-2.5693,-2.5693,-2.5693,-2.5693,-2.5693,-2.5693,-2.6171,-2.7012,-2.7012,-2.7519,-2.8291,-2.8291,-2.8291,-2.8291,-2.8291,-2.8564,-2.9004,-2.9424,-3.0146,-3.0889,-3.0889,-3.0889,-3.0889,-3.0889,-3.0889,-3.0889,-3.0889,-3.0889,-3.0986,-3.1396,-3.1494,-3.1601,-3.2031,-3.2139,-3.2209,-3.2209,-3.249,-3.2793,-3.2793,-3.3135,-3.3418,-3.3418,-3.3418,-3.3418,-3.3418,-3.3076,-3.2959,-3.3369,-3.3066,-3.2969,-3.3379,-3.3418,-3.3418,-3.3418,-3.3418,-3.3418,-3.3418,-3.3418,-3.3418,-3.3418,-3.3418,-3.3418,-3.3418,-3.3418,-3.3418,-3.3418,-3.3418,-3.3228,-3.2921,-3.2921,-3.2921,0.0,0.0,-2.1631,-1.9746,0.0,0.0,0.0,0.0,0.0,0.0,0.0,0.0,0.0,0.0,0.0,0.0,0.0,0.0,0.0,0.0,0.0,0.0,0.0,0.0,0.0,0.0,0.0,0.0,-1.9238,0.0,0.0,-2.2129,-2.251,-2.251,-2.2877,-2.3091,-2.3091,-2.3939,-2.4414,-2.4424,-2.5265,-2.5693,-2.5693,-2.5693,-2.5693,-2.5693,-2.5693,-2.6171,-2.7012,-2.7012,-2.7519,-2.8291,-2.8291,-2.8291,-2.8291,-2.8291,-2.874,-2.9453,-3.0185,-3.0635,-3.0889,-3.0889,-3.0889,-3.0889,-3.0889,-3.0889,-3.0889,-3.0889,-3.0889,-3.0986,-3.1406,-3.1514,-3.1631,-3.206,-3.2383,-3.2588,-3.2588,-3.291,-3.3213,-3.3213,-3.333,-3.3418,-3.3418,-3.3418,-3.3418,-3.3418,-3.3301,-3.3262,-3.3408,-3.3301,-3.3262,-3.3408,-3.3418,-3.3418,-3.3418,-3.3418,-3.3418,-3.3418,-3.3418,-3.3418,-3.3418,-3.3418,-3.3418,-3.3418,-3.3418,-3.3301,-3.3048,-3.3292,-3.3111,-3.2549,-3.2549,-3.2549,-2.1963,-2.2197,0.0,-2.0537,-1.9941,0.0,-1.773,0.0,0.0,0.0,0.0,0.0,0.0,0.0,0.0,0.0,0.0,0.0,0.0,0.0,0.0,0.0,0.0,0.0,0.0,0.0,-1.7353,-1.851,-1.8477,0.0,0.0,0.0,-2.2295,-2.2295,-2.2799,-2.3169,-2.3369,-2.4062,-2.4492,-2.4658,-2.5343,-2.5693,-2.5693,-2.5693,-2.5693,-2.5693,-2.5908,-2.6367,-2.7021,-2.7178,-2.7656,-2.8291,-2.8291,-2.8291,-2.8291,-2.8291,-2.8828,-2.9697,-3.0586,-3.0889,-3.0889,-3.0889,-3.0889,-3.0889,-3.0889,-3.0889,-3.0889,-3.0889,-3.0889,-3.1025,-3.1601,-3.1748,-3.1894,-3.2471,-3.2822,-3.3018,-3.3018,-3.3232,-3.3418,-3.3418,-3.3418,-3.3418,-3.3418,-3.3418,-3.3418,-3.3418,-3.3418,-3.3418,-3.3418,-3.3418,-3.3418,-3.3418,-3.3418,-3.3418,-3.3418,-3.3418,-3.3418,-3.3418,-3.3418,-3.3418,-3.3418,-3.3418,-3.3418,-3.3418,-3.3292,-3.3111,-3.2921,-3.2985,-3.2731,-3.223,-3.223,-3.2166]},{"header":{"parameterUnit":"m.s-1","parameterCategory":1,"la1":30.6,"la2":29.2853,"lo1":-89.7004,"lo2":-87.6739,"dy":0.0162,"dx":0.0183,"nx":112,"ny":82,"refTime":"2026-03-02T12:00:00:Z","depth":0,"parameterNumber":3,"parameterNumberName":"V-component_of_WINDS"},"data":[0.0,0.0,0.0,0.0,0.0,0.0,0.0,0.0,0.0,0.0,0.0,0.0,0.0,0.0,0.0,0.0,0.0,0.0,0.0,0.0,0.0,0.0,0.0,0.0,0.0,0.0,0.0,0.0,0.0,0.0,0.0,0.0,0.0,0.0,0.0,0.0,0.0,0.0,0.0,0.0,0.0,0.0,0.0,0.0,0.0,0.0,0.0,0.0,0.0,0.0,0.0,0.0,0.0,0.0,0.0,0.0,0.0,0.0,0.0,0.0,0.0,0.0,0.0,0.0,0.0,0.0,0.0,0.0,0.0,0.0,0.0,0.0,0.0,0.0,0.0,0.0,0.0,0.0,0.0,0.0,0.0,0.0,0.0,0.0,0.0,0.0,0.0,0.0,0.0,0.0,0.0,2.4808,2.7773,2.9519,2.9163,2.9262,2.7537,2.334,0.0,0.0,0.0,0.0,0.0,0.0,0.0,0.0,0.0,0.0,0.0,0.0,0.0,0.0,0.0,0.0,0.0,0.0,0.0,0.0,0.0,0.0,0.0,0.0,0.0,0.0,0.0,0.0,0.0,0.0,0.0,0.0,0.0,0.0,0.0,0.0,0.0,0.0,0.0,0.0,0.0,0.0,0.0,0.0,0.0,0.0,0.0,0.0,0.0,0.0,0.0,0.0,0.0,0.0,0.0,0.0,0.0,0.0,0.0,0.0,0.0,0.0,0.0,0.0,0.0,0.0,0.0,0.0,0.0,0.0,0.0,0.0,0.0,0.0,0.0,0.0,0.0,0.0,0.0,0.0,0.0,0.0,0.0,0.0,0.0,0.0,0.0,0.0,0.0,0.0,0.0,0.0,0.0,0.0,0.0,0.0,0.0,0.0,0.0,0.0,0.0,0.0,0.0,0.0,2.3606,2.8497,3.0066,3.0483,2.9815,2.9323,2.7567,2.4051,0.0,0.0,0.0,0.0,0.0,0.0,0.0,0.0,0.0,0.0,0.0,0.0,0.0,0.0,0.0,0.0,0.0,0.0,0.0,0.0,0.0,0.0,0.0,0.0,0.0,0.0,0.0,0.0,0.0,0.0,0.0,0.0,0.0,0.0,0.0,0.0,0.0,0.0,0.0,0.0,0.0,0.0,0.0,0.0,0.0,0.0,0.0,0.0,0.0,0.0,0.0,0.0,0.0,0.0,0.0,0.0,0.0,0.0,0.0,0.0,0.0,0.0,0.0,0.0,0.0,0.0,0.0,0.0,0.0,0.0,0.0,0.0,0.0,0.0,0.0,0.0,0.0,0.0,0.0,0.0,0.0,0.0,0.0,0.0,0.0,0.0,0.0,0.0,0.0,0.0,0.0,0.0,0.0,0.0,0.0,0.0,0.0,0.0,0.0,0.0,0.0,0.0,0.0,2.3283,2.5955,2.9874,3.1236,3.1516,3.0675,3.0344,2.8511,2.4512,2.2926,0.0,0.0,0.0,0.0,0.0,0.0,0.0,0.0,0.0,0.0,0.0,0.0,0.0,0.0,0.0,0.0,0.0,0.0,0.0,0.0,0.0,0.0,0.0,0.0,0.0,0.0,0.0,0.0,0.0,0.0,0.0,0.0,0.0,0.0,0.0,0.0,0.0,0.0,0.0,0.0,0.0,0.0,0.0,0.0,0.0,0.0,0.0,0.0,0.0,0.0,0.0,0.0,0.0,0.0,0.0,0.0,0.0,0.0,0.0,0.0,0.0,0.0,0.0,0.0,0.0,0.0,0.0,0.0,0.0,0.0,0.0,0.0,0.0,0.0,0.0,0.0,0.0,0.0,0.0,0.0,0.0,0.0,0.0,0.0,0.0,0.0,0.0,0.0,0.0,0.0,0.0,0.0,0.0,0.0,0.0,0.0,0.0,0.0,0.0,0.0,0.0,0.0,2.6054,2.8192,3.0497,3.1799,3.218,3.1268,3.074,2.8793,2.4869,2.3077,0.0,0.0,0.0,0.0,0.0,0.0,0.0,0.0,0.0,0.0,0.0,0.0,0.0,0.0,0.0,0.0,0.0,0.0,0.0,0.0,0.0,0.0,0.0,0.0,0.0,0.0,0.0,0.0,0.0,0.0,0.0,0.0,0.0,0.0,0.0,0.0,0.0,0.0,0.0,0.0,0.0,0.0,0.0,0.0,0.0,0.0,0.0,0.0,0.0,0.0,0.0,0.0,0.0,0.0,0.0,0.0,0.0,0.0,0.0,0.0,0.0,0.0,0.0,0.0,0.0,0.0,0.0,0.0,0.0,0.0,0.0,0.0,0.0,0.0,0.0,0.0,0.0,0.0,0.0,0.0,0.0,0.0,0.0,0.0,0.0,0.0,0.0,0.0,0.0,0.0,0.0,0.0,0.0,0.0,0.0,0.0,0.0,0.0,0.0,0.0,0.0,0.0,2.6479,2.9176,3.0975,3.1861,3.2029,3.1246,2.9437,2.7352,2.5108,2.242,0.0,0.0,0.0,0.0,0.0,0.0,0.0,0.0,0.0,0.0,0.0,0.0,0.0,0.0,0.0,0.0,0.0,0.0,0.0,0.0,0.0,0.0,0.0,0.0,0.0,0.0,0.0,0.0,0.0,0.0,0.0,0.0,0.0,0.0,0.0,0.0,0.0,0.0,0.0,0.0,0.0,0.0,0.0,0.0,0.0,0.0,0.0,0.0,0.0,0.0,0.0,0.0,0.0,0.0,0.0,0.0,0.0,0.0,0.0,0.0,0.0,0.0,0.0,0.0,0.0,0.0,0.0,0.0,0.0,0.0,0.0,0.0,0.0,0.0,0.0,0.0,0.0,0.0,0.0,0.0,0.0,0.0,0.0,0.0,0.0,0.0,0.0,0.0,0.0,0.0,0.0,0.0,0.0,0.0,0.0,0.0,0.0,0.0,0.0,0.0,0.0,0.0,2.6479,2.9489,0.0,3.232,3.2449,3.1775,3.0131,2.8062,2.5477,0.0,0.0,0.0,0.0,0.0,0.0,0.0,0.0,0.0,0.0,0.0,0.0,0.0,0.0,0.0,0.0,0.0,0.0,0.0,0.0,0.0,0.0,0.0,0.0,0.0,0.0,0.0,0.0,0.0,0.0,0.0,0.0,0.0,0.0,0.0,0.0,0.0,0.0,0.0,0.0,0.0,0.0,0.0,0.0,0.0,0.0,0.0,0.0,0.0,0.0,0.0,0.0,0.0,0.0,0.0,0.0,0.0,0.0,0.0,0.0,0.0,0.0,0.0,0.0,0.0,0.0,0.0,0.0,0.0,0.0,0.0,0.0,0.0,0.0,0.0,0.0,0.0,0.0,0.0,0.0,0.0,0.0,0.0,0.0,0.0,0.0,0.0,0.0,0.0,0.0,0.0,0.0,0.0,0.0,0.0,0.0,0.0,0.0,0.0,0.0,0.0,0.0,2.356,2.6945,2.9858,0.0,3.2393,3.249,3.2044,3.003,2.7777,2.533,0.0,0.0,0.0,0.0,0.0,0.0,0.0,0.0,0.0,0.0,0.0,0.0,0.0,0.0,0.0,0.0,0.0,0.0,0.0,0.0,0.0,0.0,0.0,0.0,0.0,0.0,0.0,0.0,0.0,0.0,0.0,0.0,0.0,0.0,0.0,0.0,0.0,0.0,0.0,0.0,0.0,0.0,0.0,0.0,0.0,0.0,0.0,0.0,0.0,0.0,0.0,0.0,0.0,0.0,0.0,0.0,0.0,0.0,0.0,0.0,0.0,0.0,0.0,0.0,0.0,0.0,0.0,0.0,0.0,0.0,0.0,0.0,0.0,0.0,0.0,0.0,0.0,0.0,0.0,0.0,0.0,0.0,0.0,0.0,0.0,0.0,0.0,0.0,0.0,0.0,0.0,0.0,0.0,0.0,0.0,0.0,0.0,0.0,0.0,0.0,0.0,0.0,2.5135,2.8065,3.036,3.185,3.2012,3.2012,3.2012,2.8767,2.6091,0.0,0.0,0.0,0.0,0.0,0.0,0.0,0.0,0.0,0.0,0.0,0.0,0.0,0.0,0.0,0.0,0.0,0.0,0.0,0.0,0.0,0.0,0.0,0.0,0.0,0.0,0.0,0.0,0.0,0.0,0.0,0.0,0.0,0.0,0.0,0.0,0.0,0.0,0.0,0.0,0.0,0.0,0.0,0.0,0.0,0.0,0.0,0.0,0.0,0.0,0.0,0.0,0.0,0.0,0.0,0.0,0.0,0.0,0.0,0.0,0.0,0.0,0.0,0.0,0.0,0.0,0.0,0.0,0.0,0.0,0.0,0.0,0.0,0.0,0.0,0.0,0.0,0.0,0.0,0.0,0.0,0.0,0.0,0.0,0.0,0.0,0.0,0.0,0.0,0.0,0.0,0.0,0.0,0.0,0.0,0.0,0.0,0.0,0.0,0.0,0.0,0.0,0.0,2.4839,2.8194,3.0859,3.2346,3.2494,3.2494,3.2494,2.9667,2.7027,2.4981,0.0,0.0,0.0,0.0,0.0,0.0,0.0,0.0,0.0,0.0,0.0,0.0,0.0,0.0,0.0,0.0,0.0,0.0,0.0,0.0,0.0,0.0,0.0,0.0,0.0,0.0,0.0,0.0,0.0,0.0,0.0,0.0,0.0,0.0,0.0,0.0,0.0,0.0,0.0,0.0,0.0,0.0,0.0,0.0,0.0,0.0,0.0,0.0,0.0,0.0,0.0,0.0,0.0,0.0,0.0,0.0,0.0,0.0,0.0,0.0,0.0,0.0,0.0,0.0,0.0,0.0,0.0,0.0,0.0,0.0,0.0,0.0,0.0,0.0,0.0,0.0,0.0,0.0,0.0,0.0,0.0,0.0,0.0,0.0,0.0,0.0,0.0,0.0,0.0,0.0,0.0,0.0,0.0,0.0,0.0,0.0,0.0,0.0,0.0,0.0,0.0,0.0,2.5475,2.8619,3.1168,3.2945,3.3149,3.3033,3.2735,3.0315,2.7725,2.5207,0.0,0.0,0.0,0.0,0.0,0.0,0.0,0.0,0.0,0.0,0.0,0.0,0.0,0.0,0.0,0.0,0.0,0.0,0.0,0.0,0.0,0.0,0.0,0.0,0.0,0.0,0.0,0.0,0.0,0.0,0.0,0.0,0.0,0.0,0.0,0.0,0.0,0.0,0.0,0.0,0.0,0.0,0.0,0.0,0.0,0.0,0.0,0.0,0.0,0.0,0.0,0.0,0.0,0.0,0.0,0.0,0.0,0.0,0.0,0.0,0.0,0.0,0.0,0.0,0.0,0.0,0.0,0.0,0.0,0.0,0.0,0.0,0.0,0.0,0.0,0.0,0.0,0.0,0.0,0.0,0.0,0.0,0.0,0.0,0.0,0.0,0.0,0.0,0.0,0.0,0.0,0.0,0.0,0.0,0.0,0.0,0.0,0.0,0.0,0.0,0.0,0.0,2.6652,2.9234,3.1416,3.3557,3.3789,3.3491,3.2768,3.0742,2.8254,2.5374,0.0,0.0,0.0,0.0,0.0,0.0,0.0,0.0,0.0,0.0,0.0,0.0,0.0,0.0,0.0,0.0,0.0,0.0,0.0,0.0,0.0,0.0,0.0,0.0,0.0,0.0,0.0,0.0,0.0,0.0,0.0,0.0,0.0,0.0,0.0,0.0,0.0,0.0,0.0,0.0,0.0,0.0,0.0,0.0,0.0,0.0,0.0,0.0,0.0,0.0,0.0,0.0,0.0,0.0,0.0,0.0,0.0,0.0,0.0,0.0,2.7009,0.0,0.0,0.0,0.0,0.0,0.0,0.0,0.0,0.0,0.0,0.0,0.0,0.0,0.0,0.0,0.0,0.0,0.0,0.0,0.0,0.0,0.0,0.0,0.0,0.0,0.0,0.0,0.0,0.0,0.0,0.0,0.0,0.0,0.0,0.0,0.0,0.0,0.0,0.0,0.0,0.0,2.6785,2.9682,3.1979,3.3624,3.3789,3.3491,3.2768,3.1205,2.9032,2.6152,2.3735,0.0,0.0,0.0,0.0,0.0,0.0,0.0,0.0,0.0,0.0,0.0,0.0,0.0,0.0,0.0,0.0,0.0,0.0,0.0,0.0,0.0,0.0,0.0,0.0,0.0,0.0,0.0,0.0,0.0,0.0,0.0,0.0,0.0,0.0,0.0,0.0,0.0,0.0,0.0,0.0,0.0,0.0,0.0,0.0,0.0,0.0,0.0,0.0,0.0,0.0,0.0,0.0,0.0,0.0,0.0,0.0,0.0,0.0,0.0,0.0,2.861,0.0,0.0,0.0,0.0,0.0,0.0,0.0,0.0,0.0,0.0,0.0,0.0,0.0,0.0,0.0,0.0,0.0,0.0,0.0,0.0,0.0,0.0,0.0,0.0,0.0,0.0,0.0,0.0,0.0,0.0,0.0,0.0,0.0,0.0,0.0,0.0,0.0,0.0,0.0,0.0,2.7446,3.0209,3.2485,3.4253,3.4413,3.3958,3.2801,3.1686,2.9963,2.7452,2.5228,0.0,0.0,0.0,0.0,0.0,0.0,0.0,0.0,0.0,0.0,0.0,0.0,0.0,0.0,0.0,0.0,0.0,0.0,0.0,0.0,0.0,0.0,0.0,0.0,0.0,0.0,0.0,0.0,0.0,0.0,0.0,0.0,0.0,0.0,0.0,0.0,0.0,0.0,0.0,0.0,0.0,0.0,0.0,0.0,0.0,0.0,0.0,0.0,0.0,0.0,0.0,0.0,0.0,3.5199,3.5588,3.547,3.547,3.5537,3.552,3.3102,3.2628,3.3339,0.0,0.0,0.0,0.0,0.0,0.0,0.0,0.0,0.0,0.0,0.0,0.0,0.0,0.0,0.0,0.0,0.0,0.0,0.0,0.0,0.0,0.0,0.0,0.0,0.0,3.0215,2.9673,0.0,0.0,0.0,0.0,0.0,0.0,0.0,0.0,0.0,0.0,0.0,0.0,2.8362,3.0825,3.2959,3.4918,3.5111,3.4539,3.3084,3.2298,3.1024,2.9046,2.6964,2.4929,0.0,0.0,0.0,0.0,0.0,0.0,0.0,0.0,0.0,0.0,0.0,0.0,0.0,0.0,0.0,0.0,0.0,0.0,0.0,0.0,0.0,0.0,0.0,0.0,0.0,0.0,0.0,0.0,0.0,0.0,0.0,0.0,2.4443,2.5221,0.0,0.0,0.0,0.0,0.0,0.0,0.0,0.0,0.0,0.0,0.0,0.0,0.0,0.0,3.4856,3.6941,3.7753,3.733,3.936,3.9986,3.9352,3.9343,3.9698,4.0307,3.9918,0.0,3.4269,3.3136,0.0,0.0,0.0,0.0,0.0,0.0,0.0,0.0,0.0,0.0,0.0,0.0,0.0,0.0,0.0,0.0,0.0,0.0,0.0,0.0,0.0,0.0,3.4146,3.3047,3.3351,3.3406,0.0,2.7938,2.4641,2.3063,0.0,0.0,0.0,0.0,0.0,0.0,0.0,0.0,2.9247,3.1591,3.3567,3.5101,3.5268,3.4933,3.408,3.3322,3.2235,3.067,2.9097,2.754,2.5983,2.3353,0.0,0.0,0.0,0.0,0.0,0.0,0.0,0.0,0.0,0.0,0.0,0.0,0.0,0.0,0.0,0.0,0.0,0.0,0.0,0.0,0.0,0.0,0.0,0.0,0.0,0.0,0.0,0.0,0.0,2.4949,2.6471,2.6793,2.7587,2.7638,0.0,0.0,0.0,0.0,0.0,0.0,0.0,0.0,0.0,3.4764,3.5537,3.6857,3.871,3.9749,4.0713,4.166,4.1762,4.21,4.2591,4.1728,4.1491,4.1813,4.1813,4.0696,3.8717,3.6755,3.437,3.185,0.0,0.0,0.0,0.0,3.0683,3.0734,3.3525,3.3866,0.0,0.0,0.0,0.0,0.0,0.0,0.0,0.0,0.0,0.0,0.0,0.0,0.0,3.4687,3.5233,3.5492,3.4387,3.2549,3.0333,0.0,2.5966,2.4363,2.2298,0.0,0.0,0.0,0.0,0.0,3.0244,3.2517,3.428,3.5305,3.5423,3.5081,3.4259,3.3907,3.3108,3.1661,3.0586,2.9362,2.7955,2.5798,2.3712,0.0,0.0,0.0,0.0,0.0,0.0,0.0,0.0,0.0,0.0,0.0,0.0,0.0,0.0,0.0,0.0,0.0,0.0,0.0,0.0,0.0,0.0,0.0,0.0,0.0,0.0,0.0,0.0,2.7148,2.8687,2.8688,3.0383,3.0586,0.0,0.0,0.0,0.0,0.0,0.0,3.3929,3.5482,3.704,3.8519,3.9468,4.0815,4.2661,4.2678,4.3552,4.5269,4.4116,4.4166,4.5235,4.4099,4.3573,4.3573,4.3315,4.3129,4.2712,3.9884,3.7313,3.5013,3.4083,3.2949,3.2019,3.366,3.4032,3.4172,3.7144,3.7654,3.6999,3.7055,0.0,3.3524,3.1864,0.0,0.0,0.0,0.0,3.2679,3.4167,3.5098,3.5791,3.6349,3.6924,3.7117,3.6129,3.6056,3.5143,0.0,3.0192,2.8772,2.6286,0.0,0.0,0.0,0.0,2.9413,3.1495,3.3355,3.4771,3.5436,3.552,3.5262,3.4617,3.4398,3.3748,3.2504,3.1746,3.0723,2.933,2.794,2.6016,2.3494,0.0,0.0,0.0,0.0,0.0,0.0,0.0,0.0,0.0,0.0,0.0,0.0,0.0,0.0,0.0,0.0,0.0,0.0,0.0,0.0,0.0,0.0,0.0,0.0,0.0,0.0,0.0,0.0,0.0,3.1123,3.3709,0.0,0.0,0.0,0.0,3.4078,3.549,3.7027,3.8569,4.0358,4.1955,4.3297,4.4742,4.5881,4.6714,4.6731,4.6868,4.7159,4.709,4.709,4.7159,4.7073,4.7056,4.7005,4.6102,4.5303,4.4487,4.2035,4.0527,3.9622,3.8176,3.7144,3.6491,3.6592,3.7043,3.7753,3.8633,3.8911,3.8868,3.8868,3.6875,3.444,3.4321,3.3266,0.0,0.0,3.4252,3.5718,3.728,3.8227,3.8768,3.8819,3.8853,3.8481,3.7049,3.728,3.6891,0.0,3.207,3.0818,2.9954,0.0,2.8959,2.9649,3.048,3.1579,3.3102,3.3998,3.4776,3.5515,3.56,3.5583,3.5526,3.489,3.4167,3.3368,3.2645,3.1579,3.0125,2.9279,2.813,2.6505,2.3663,0.0,0.0,0.0,0.0,0.0,0.0,0.0,0.0,0.0,0.0,0.0,0.0,0.0,0.0,0.0,0.0,0.0,0.0,0.0,0.0,0.0,0.0,0.0,0.0,0.0,0.0,0.0,0.0,3.5504,3.7547,0.0,3.6468,3.6713,3.7049,3.733,3.9254,4.0879,4.1915,4.4289,4.5666,4.5762,4.6756,4.7272,4.7176,4.7193,4.7626,4.8522,4.7683,4.7728,4.8505,4.7665,4.7307,4.729,4.6959,4.634,4.5572,4.4715,4.2947,4.0798,4.0747,4.0273,3.9681,4.0155,4.051,4.0764,4.1018,4.1333,4.1471,4.088,3.9611,3.8285,3.784,3.7168,3.6676,3.7342,3.7712,3.8018,3.8488,3.8802,3.887,3.8396,3.865,3.8853,3.8335,3.8413,3.8294,3.7212,3.5808,3.4235,3.2527,3.2002,3.1596,3.092,3.185,3.3152,3.4619,3.5064,3.552,3.6282,3.591,3.56,3.56,3.5346,3.4692,3.3491,3.3152,3.2341,3.0869,2.9653,2.8502,2.7418,2.4983,2.2629,0.0,0.0,0.0,0.0,0.0,0.0,0.0,0.0,0.0,0.0,0.0,0.0,0.0,0.0,0.0,0.0,0.0,0.0,0.0,0.0,0.0,0.0,0.0,0.0,0.0,0.0,3.7296,3.9021,4.1312,4.2074,4.0434,4.0847,4.1328,4.1609,4.3156,4.45,4.5428,4.7336,4.8207,4.7745,4.868,4.8914,4.8379,4.8379,4.875,4.9458,4.8598,4.8661,4.9458,4.8598,4.822,4.8175,4.7889,4.7449,4.6925,4.664,4.5067,4.2853,4.2836,4.2547,4.214,4.2394,4.2632,4.2836,4.2836,4.2876,4.284,4.2211,4.1655,4.1108,4.0145,3.9825,3.9784,3.9646,3.9593,3.9549,3.941,3.9385,3.9242,3.8751,3.8819,3.8988,3.8988,3.8988,3.892,3.8667,3.7838,3.6688,3.5182,3.4928,3.459,3.3609,3.4303,3.5261,3.6242,3.6377,3.6586,3.711,3.6705,3.6299,3.6045,3.5752,3.4957,3.3487,3.3169,3.2374,3.0886,2.9888,2.8873,2.7824,2.5372,2.3289,2.1563,0.0,0.0,0.0,0.0,0.0,0.0,0.0,0.0,0.0,0.0,0.0,0.0,0.0,0.0,0.0,0.0,0.0,0.0,0.0,0.0,0.0,0.0,0.0,3.3894,3.7809,4.0892,4.1625,4.492,4.6,4.3103,4.5326,4.6893,4.6835,4.7146,4.7854,4.9168,4.9523,4.96,4.9467,5.0654,5.1025,5.0515,5.0515,5.0373,5.008,5.0051,5.0051,5.008,5.0051,5.0051,5.0017,4.9085,4.8684,4.857,4.7718,4.6879,4.5996,4.4544,4.3962,4.386,4.3116,4.333,4.3919,4.3919,4.344,4.2826,4.2851,4.2834,4.2552,4.1047,4.1098,4.1347,3.9759,3.9812,4.0331,4.0172,4.013,4.013,4.0113,3.9554,3.9022,3.9022,3.9005,3.8802,3.8108,3.7939,3.7905,3.7905,3.7922,3.7939,3.7905,3.7905,0.0,3.7939,3.7922,3.7922,3.7939,3.7922,3.7601,3.6863,3.6096,3.4991,3.3487,3.2716,3.165,3.0192,3.0091,2.9345,2.7841,2.4983,2.3139,2.2398,0.0,0.0,0.0,0.0,0.0,0.0,0.0,0.0,0.0,0.0,0.0,0.0,0.0,0.0,0.0,0.0,0.0,0.0,0.0,0.0,0.0,0.0,3.8024,3.8139,4.0907,4.3766,4.6132,4.7434,4.8004,4.7697,4.7561,4.7622,4.7953,4.8933,4.9688,5.0049,5.1053,5.1453,5.1028,5.0955,5.0875,5.0704,5.0704,5.1061,5.1743,5.1365,5.1347,5.1743,5.1339,5.1158,5.1158,5.0902,5.0215,4.9315,4.9079,4.8286,4.7148,4.5977,4.5176,4.468,4.4475,4.4526,4.4714,4.4714,4.4219,4.3603,4.3708,4.3603,4.3322,4.2647,4.277,4.2926,4.2004,4.1801,4.1732,4.106,4.0899,4.0747,4.0231,3.996,3.9808,3.9808,3.9377,3.9089,3.9436,3.8633,3.7905,3.7905,3.8345,3.8514,3.799,3.7905,0.0,3.8633,3.8227,3.8108,3.8633,3.8227,3.7601,3.6863,3.6609,3.5588,3.3541,3.2716,3.1887,3.0937,2.9871,2.8822,2.7824,2.6488,2.5423,0.0,0.0,0.0,0.0,0.0,0.0,0.0,0.0,0.0,0.0,0.0,0.0,0.0,0.0,0.0,0.0,0.0,0.0,0.0,0.0,0.0,0.0,3.8832,4.2187,4.3858,4.5065,4.653,4.8601,4.9214,4.9627,5.0056,4.9428,4.9203,4.9702,5.0048,5.0424,5.088,5.1426,5.1594,5.1288,5.1416,5.1347,5.1131,5.1131,5.1339,5.1725,5.1184,5.1079,5.1391,5.1052,5.0937,0.0,5.0937,5.0486,4.9756,4.9756,4.9129,0.0,0.0,0.0,0.0,0.0,4.5459,4.5184,4.5184,4.4892,4.4532,4.4611,4.4543,4.4312,4.3817,4.3813,4.3784,4.3057,4.2766,4.2577,4.2022,4.1808,4.1562,4.0815,4.0595,4.0485,4.018,3.9774,3.9503,3.9622,3.9191,0.0,3.8413,3.8717,3.8853,3.843,3.8616,3.8971,3.9419,3.9089,3.8988,3.9436,3.9073,3.8514,3.7794,3.7168,0.0,0.0,0.0,3.1836,3.0784,2.9619,0.0,0.0,0.0,0.0,0.0,0.0,0.0,0.0,2.4966,2.4677,0.0,0.0,0.0,0.0,0.0,0.0,0.0,0.0,0.0,0.0,0.0,0.0,0.0,0.0,0.0,0.0,4.2686,4.5763,4.9369,4.9217,4.8995,4.9662,5.0382,5.0793,5.0712,5.0712,5.091,5.1391,5.0575,5.0509,5.1467,0.0,0.0,0.0,0.0,5.1988,5.15,5.15,5.1314,5.0884,5.0415,5.0178,5.0178,5.0178,5.0178,5.0178,5.0178,5.0166,5.008,5.008,4.9637,4.8844,4.8,4.7689,4.7603,4.6975,4.6259,4.5656,4.5656,0.0,0.0,4.5535,4.5519,4.5364,4.4639,4.4457,4.4302,4.3486,4.3237,4.3194,4.298,4.2782,4.2456,4.1682,4.1426,4.1119,4.0383,4.0231,4.0036,3.9283,3.9613,3.9799,3.9156,3.908,3.9106,3.9106,3.969,4.0096,4.0096,4.0096,4.0096,4.0096,0.0,0.0,3.9056,3.7811,3.6654,3.5785,3.3728,3.1904,3.0412,2.9786,2.9771,3.0345,3.0446,3.0801,3.1444,3.1529,3.1613,3.163,2.8687,2.8062,0.0,0.0,0.0,0.0,0.0,0.0,0.0,0.0,0.0,0.0,0.0,0.0,0.0,0.0,0.0,4.1831,4.5556,4.8388,4.8949,4.98,5.0417,5.0557,5.0715,5.063,5.0206,5.0149,5.0206,5.0302,5.0509,5.0739,5.0937,5.1262,0.0,5.0803,5.1017,5.1052,5.0964,5.0946,5.1105,5.1424,0.0,0.0,5.1288,5.1288,5.1288,5.1288,5.1288,5.1044,5.063,5.063,5.03,4.9631,4.8252,4.7689,4.7672,4.7562,4.7407,4.7241,4.7241,4.6862,4.6372,4.6372,4.6213,4.5945,4.5364,4.5381,0.0,4.494,4.4712,4.4468,4.386,4.3583,4.3263,4.249,4.2172,4.188,4.1153,4.107,4.0926,4.0195,3.9759,3.9498,3.9361,3.9627,3.9893,3.9893,4.0011,4.0096,4.0096,4.0096,4.0096,4.0096,4.0096,3.9808,3.9056,3.8734,3.799,3.666,3.5018,3.341,3.1938,3.2307,3.2341,3.1887,3.2459,3.2831,3.2983,3.3558,3.4167,3.4687,3.2307,3.1379,0.0,0.0,0.0,0.0,0.0,0.0,0.0,0.0,0.0,0.0,0.0,3.5311,3.7289,0.0,4.3069,4.559,4.7917,4.9588,5.0127,5.033,5.0415,5.0415,5.0415,5.0274,5.004,5.0011,5.0109,5.0387,5.0657,5.0803,5.0803,5.1052,5.0946,5.0415,5.0657,5.0803,5.0803,5.1052,5.1339,5.1601,5.1601,5.1601,5.1576,5.1314,5.121,5.1184,5.091,5.0657,5.0415,5.0415,5.0235,4.9924,4.9166,4.8586,4.8241,4.8241,4.8,4.7689,4.7689,4.7448,4.7165,4.7165,4.7061,4.6847,4.6193,4.6125,4.6109,4.5483,4.5247,4.5125,4.4747,4.4538,4.427,4.3484,4.3208,4.2915,4.2158,4.1759,4.1401,4.1025,4.041,3.9963,3.9963,4.0438,4.0577,3.9772,3.9901,4.0096,4.0096,4.0096,4.0096,4.0096,4.0163,4.001,3.9588,3.9208,3.8362,3.6897,3.6084,3.5154,3.3998,3.432,3.4523,3.4544,3.4895,3.5284,3.5656,3.6028,3.64,3.6715,3.5994,3.5272,0.0,0.0,0.0,0.0,0.0,0.0,0.0,0.0,3.3297,3.6719,3.7795,3.9009,4.1965,4.4041,4.6224,4.8912,4.9528,5.0056,5.1147,5.0564,5.0011,5.0011,5.0011,5.0011,5.0011,5.008,5.0274,5.0602,5.0739,5.0749,5.0657,5.0739,5.0547,5.004,5.0509,5.0766,5.063,5.1052,5.1288,5.1288,5.1288,5.1288,5.1288,5.083,5.063,5.063,5.0178,5.0011,5.0011,5.0011,5.0011,5.0011,5.0011,4.9614,4.9016,4.9016,4.8654,4.8165,4.8165,4.8034,4.7896,4.7896,4.781,4.7569,4.6993,4.682,4.6665,4.5845,4.5621,4.5604,4.5432,4.53,4.5066,4.4465,4.4222,4.3902,4.315,4.251,4.2047,4.191,4.1277,4.0788,4.0788,4.114,4.1015,3.9819,4.0162,4.0493,4.0358,4.0341,4.0315,4.0188,4.0263,4.0288,4.0188,3.9621,3.8706,3.739,3.7282,3.692,3.6118,3.6062,3.6366,3.7015,3.7151,3.7516,3.8125,3.8261,3.8396,3.8548,3.9005,3.8481,3.3266,3.2041,3.1801,3.2303,3.3239,3.5316,0.0,0.0,4.0255,4.2474,4.3784,4.4796,4.5545,4.6941,4.831,4.9398,4.9799,5.0005,5.0178,5.008,5.0011,5.0011,5.0011,5.0011,5.0011,5.0425,5.0537,5.0138,5.0537,5.0575,5.0092,5.0537,5.0547,5.004,5.0509,5.0575,5.008,5.0149,5.0178,5.0178,5.0178,5.0178,5.0178,5.0109,5.008,5.008,5.004,5.0011,5.0011,5.0011,5.0011,5.0011,5.0011,4.9959,4.9873,4.9873,4.9821,4.9752,4.9752,4.9286,4.8672,4.8672,4.8224,4.7672,4.7586,4.7596,4.7414,4.67,4.6475,4.632,4.5587,4.53,4.5186,4.51,4.4949,4.468,4.3945,4.3785,4.3632,4.298,4.2307,4.1829,4.1829,4.1267,4.0891,4.112,4.1767,4.1988,4.1342,4.1231,4.1044,4.0529,4.0485,4.0485,4.0461,4.0269,3.9853,3.9163,3.901,3.8598,3.7857,3.7723,3.7702,3.7787,3.8413,3.8785,3.887,3.9537,4.0172,4.0832,4.0223,3.9554,3.6025,3.5683,3.5714,0.0,3.7218,3.948,4.1783,4.2248,4.2894,4.533,4.6238,4.691,4.7984,4.8679,4.9363,0.0,5.0122,5.0109,5.0425,4.9779,4.9292,4.9292,4.8924,4.9028,4.9907,5.0206,5.0235,5.004,5.0509,5.0564,5.004,5.0509,5.0547,5.004,5.0206,5.0235,5.0011,5.0302,5.0453,5.0481,5.0776,5.0937,5.091,5.0602,5.032,5.0011,5.0011,5.0011,5.0011,5.0011,5.0011,5.0011,5.0011,5.0011,5.0011,5.0011,5.0011,5.0011,5.0011,4.9786,4.951,4.951,4.9304,4.8959,4.8465,4.8327,4.8189,4.7458,4.7251,4.7155,4.6828,4.6387,4.6016,4.6016,4.5618,4.5152,4.4843,4.4466,4.4122,4.3838,4.3174,4.2706,4.2706,4.276,4.2695,4.2338,4.1741,4.1213,4.0906,4.0872,4.0802,4.0634,4.0558,4.051,4.051,4.0461,4.0292,3.9944,3.9927,3.979,3.9411,3.9321,3.9248,3.9174,3.9901,4.0273,4.0273,4.0595,4.0899,4.1187,4.0426,3.9943,3.7081,3.7719,3.8582,3.8461,4.0698,4.2992,4.3216,4.3897,4.5018,4.7003,4.7561,4.805,4.9168,4.9569,4.9901,5.0487,5.0246,5.0138,5.0537,4.9541,4.8792,4.8792,4.7965,4.7924,4.9252,4.9688,4.9924,4.9993,5.0509,5.0564,5.004,5.0359,5.0415,4.9993,5.0011,5.0011,5.0011,5.0387,5.0592,5.0575,5.0973,5.1158,5.1158,5.0766,5.0359,5.0011,5.0011,5.0011,5.0011,5.0011,5.0011,5.0011,5.0011,5.0011,5.0011,5.0011,5.0011,5.0011,5.0011,5.0011,5.0011,5.0011,5.0011,4.9907,4.9321,4.912,4.8965,4.8206,4.8,4.7948,4.7741,4.732,4.6879,4.6879,4.6293,4.5725,4.5725,4.5147,4.4596,4.4596,4.4018,4.35,4.35,4.3776,4.3785,4.309,4.2001,4.1155,4.0884,4.0703,4.0655,4.0745,4.0648,4.0558,4.0607,4.0583,4.0534,4.0478,4.051,4.0485,4.0362,4.033,4.0238,4.0096,4.0815,4.1102,4.0899,4.1102,4.1204,4.1187,4.0426,4.0214,3.5473,3.6887,3.8962,4.0429,4.3078,4.55,4.6259,4.7017,4.7596,4.7665,4.8252,4.8769,4.8821,4.9441,5.0005,5.0022,5.0011,5.0011,5.0022,4.9321,4.8792,4.8792,4.7527,4.6941,0.0,4.8895,4.9726,4.9971,5.0509,5.0564,5.004,5.0011,5.004,5.0011,5.0011,5.0011,5.0011,5.004,5.0022,5.0022,5.0022,5.0051,5.0051,5.0022,5.0011,5.0011,5.0011,5.0011,5.0011,5.0011,5.0011,5.0011,5.0011,5.0011,5.0011,5.0011,5.0011,5.0011,5.0011,5.0011,5.0011,5.0011,5.0011,5.0011,4.9976,4.9959,4.9804,4.8982,4.8758,4.8586,4.7879,4.7672,4.7655,4.7655,4.7113,4.6562,4.6562,4.5914,4.5363,4.5363,4.4768,4.4276,4.4276,4.369,4.3224,4.3207,4.3155,4.2795,4.1864,4.1247,4.0888,4.0894,4.0769,4.0745,4.0888,4.0769,4.0745,4.0871,4.0769,4.0648,4.051,4.0362,4.0238,4.0096,4.0815,4.0849,4.0146,4.0849,4.1204,4.1187,4.0426,4.0485,3.7974,3.9894,4.2016,4.3509,4.5776,4.7724,4.8,4.8241,4.843,4.843,4.7844,4.7355,4.7355,4.7562,4.7907,4.8407,4.8861,4.9378,4.9924,4.9321,4.862,4.812,4.7189,0.0,0.0,0.0,0.0,4.9114,4.937,4.9623,4.9976,5.0011,5.0011,5.0011,5.0011,5.0011,5.0011,5.0011,5.0011,5.0011,5.0011,5.0011,5.0011,5.0011,5.0011,5.0011,5.0011,5.0011,5.0011,5.0011,5.0011,5.0011,5.0011,5.0011,5.0011,5.0011,5.0011,5.0011,5.0011,5.0011,5.0011,5.0011,5.0011,5.0011,5.0011,5.0011,4.9942,4.9683,4.9614,4.9545,4.9304,4.881,4.843,4.843,4.7862,4.7217,4.6717,4.6406,4.6035,4.55,4.519,4.5044,4.5044,4.482,4.4492,4.4,4.35,4.2888,4.2046,4.1743,4.1447,4.0963,4.0864,4.0817,4.0769,4.0817,4.0817,4.0769,4.0817,4.0728,4.051,4.0461,4.0337,4.0096,4.0815,4.1085,4.0832,4.1559,4.1931,4.1914,4.1677,4.1677,4.0388,4.2423,4.4406,4.6173,4.7913,4.9137,4.8861,4.8792,4.8568,4.7741,4.6828,4.6027,4.5475,4.5389,4.5803,4.7113,4.7689,4.8493,4.9821,4.9097,4.8224,4.7741,4.6793,4.6155,0.0,0.0,0.0,4.8654,4.8792,4.9137,4.9959,5.0011,5.0011,5.0011,5.0011,5.0011,5.0011,5.0011,5.0011,5.0011,5.0011,5.0011,5.0011,5.0011,5.0011,5.0011,5.0011,5.0011,5.0011,5.0011,5.0011,5.0011,5.0011,5.0011,5.0011,5.0011,5.0011,5.0011,5.0011,5.0011,5.0011,5.0011,5.0011,5.0011,5.0011,5.0011,5.0011,5.0011,5.0011,5.0011,5.0011,4.9631,4.9252,4.9252,4.8637,4.7948,4.751,4.7172,4.6741,4.5966,4.5828,4.5742,4.5449,4.5397,4.5225,4.4768,4.4285,4.3595,4.2568,4.243,4.2258,4.1774,4.1723,4.1674,4.1601,4.1674,4.1674,4.1601,4.1674,4.1626,4.1405,4.1388,4.1263,4.0968,4.1705,4.1933,4.1593,4.2337,4.2557,4.2286,4.2286,4.2286,4.2534,4.444,4.6104,4.831,4.9459,4.9804,4.8965,4.8741,4.8034,4.5759,4.519,4.4665,0.0,0.0,4.3793,4.5958,4.651,4.7424,4.9631,4.8717,4.7793,0.0,0.0,0.0,0.0,0.0,0.0,4.862,0.0,4.9103,4.9959,5.0011,5.0011,5.0011,5.0011,5.0011,5.0011,5.0011,5.0011,5.0011,5.0011,5.0011,5.0011,5.0011,5.0011,5.0011,5.0011,5.0011,5.0011,5.0011,5.0011,5.0011,5.0011,5.0011,5.0011,5.0011,5.0011,5.0011,5.0011,5.0011,5.0011,5.0011,5.0011,5.0011,5.0011,5.0011,5.0011,5.0011,5.0011,5.0011,5.0011,5.0011,5.0011,5.0011,4.9441,4.8844,4.881,4.8241,4.7562,4.6803,4.6665,4.6406,4.5604,4.5466,4.5449,4.5414,4.5397,4.4889,4.3448,4.3258,4.3241,4.3189,4.3189,4.3189,4.3189,4.3189,4.3189,4.3189,4.3189,4.3131,4.3005,4.298,4.2817,4.2507,4.3246,4.3209,4.2286,4.3047,4.3047,4.2354,4.2388,4.2405,4.4863,4.682,4.8206,4.9407,4.9855,4.9804,4.8965,4.7948,4.651,4.4216,4.2371,4.0526,0.0,0.0,0.0,4.2275,4.5199,0.0,4.8947,4.9286,0.0,4.8586,0.0,4.7707,4.7155,4.7103,0.0,0.0,4.8275,4.8551,4.9942,5.0011,5.0011,5.0011,5.0011,5.0011,5.0011,5.0011,5.0011,5.0011,5.0011,5.0011,5.0011,5.0011,5.0011,5.0011,5.0011,5.0011,5.0011,5.0011,5.0011,5.0011,5.0011,5.0011,5.0011,5.0011,5.0011,5.0011,5.0011,5.0011,5.0011,5.0011,5.0011,5.0011,5.0011,5.0011,5.0011,5.0011,5.0011,5.0011,5.0011,5.0011,5.0011,5.0011,4.9855,4.9545,4.8913,4.8637,4.8293,4.7551,4.7414,4.7172,4.6414,4.6276,4.6086,4.5483,4.5397,4.5079,4.4138,4.4018,4.381,4.3258,4.3189,4.3189,4.3189,4.3189,4.3189,4.3189,4.3189,4.3089,4.2775,4.2792,4.2645,4.2366,4.2543,4.2543,4.2286,4.3047,4.3291,4.3149,4.3724,4.4022,4.6914,4.8413,4.9344,4.9459,4.9465,4.8924,4.682,4.5699,4.4165,4.086,3.8876,0.0,3.5163,3.6766,0.0,0.0,0.0,0.0,4.8551,4.9172,4.9321,0.0,4.8792,0.0,4.7758,4.7982,4.8344,0.0,4.8413,4.8706,4.9942,5.0011,5.0011,5.0011,5.0011,5.0011,5.0011,5.0011,5.0011,5.0011,5.0011,5.0011,5.0011,5.0011,5.0011,5.0011,0.0,5.0011,5.0011,5.0011,5.0011,5.0011,5.0011,5.0011,5.0045,5.0373,5.0287,5.0062,5.0373,5.0493,5.0442,5.0114,5.0011,5.0011,5.0011,5.0011,5.0011,5.0011,5.0011,5.0011,5.0011,5.0011,5.0011,5.0011,5.0011,4.989,4.9441,4.9338,4.9114,4.8327,4.7913,4.7551,4.7165,4.7096,4.681,4.6035,4.5914,4.5665,4.4872,4.4785,4.4613,4.4199,4.4165,4.4165,4.4165,4.4165,4.4139,4.407,4.407,4.3967,4.3714,4.3714,4.3608,4.3393,4.3393,4.3366,4.3328,4.3707,4.3927,4.3944,4.4395,4.4615,4.8551,4.9476,4.9838,4.912,4.881,4.7734,4.4173,4.3034,4.1464,3.6939,0.0,3.4283,3.2731,3.3955,3.6111,3.8939,0.0,4.5303,4.8224,4.8741,4.8827,4.8947,4.8947,4.8706,4.8079,4.8568,4.8947,4.8947,4.8947,4.924,4.9959,5.0011,5.0011,5.0011,5.0011,5.0011,5.0011,5.0011,5.0011,5.0011,5.0011,5.0011,5.0011,5.0011,5.0011,5.0011,0.0,0.0,5.0011,5.0011,5.0011,5.0011,5.0114,5.0149,5.0252,5.0976,5.0856,5.039,5.1028,5.1269,5.1114,5.0287,5.008,5.0131,5.0045,5.0011,5.0011,5.0011,5.0011,5.0011,5.0011,5.0011,5.0011,5.0011,5.0011,5.0011,5.0011,5.0011,4.9804,4.9085,4.843,4.7948,4.7844,4.7844,4.7614,4.6872,4.6751,4.651,4.5793,4.5535,4.5397,4.5397,4.5397,4.5397,4.5397,4.5397,4.5327,4.522,4.5177,4.5096,4.4978,4.4978,4.4913,4.4793,4.4776,4.476,4.475,4.475,4.4801,4.4902,4.4902,4.4902,4.9332,4.9907,4.9976,4.9838,4.881,4.7234,4.4691,4.2154,0.0,0.0,3.3352,3.1921,3.0368,3.2886,3.5783,3.7599,4.1498,4.513,4.7534,4.8413,4.9034,0.0,0.0,0.0,0.0,0.0,0.0,0.0,0.0,4.9855,4.9993,5.0011,5.0011,5.0011,5.0011,5.0011,5.0011,5.0011,5.0011,5.0011,5.0011,5.0011,5.0011,5.0011,5.0011,5.0011,5.0011,0.0,5.0011,5.0011,5.0011,5.0062,5.0683,5.0925,5.1011,5.1722,5.1912,5.1856,5.1946,5.1998,5.1804,5.0442,5.0424,5.0804,5.0183,5.0011,5.0011,5.0011,5.0011,5.0011,5.0011,5.0011,5.0011,5.0011,5.0011,5.0011,5.0011,5.0011,4.9959,4.9821,4.97,4.9407,4.8706,4.8603,4.8344,4.7603,4.75,4.7448,4.731,4.619,4.5397,4.5397,4.5397,4.5397,4.5397,4.53,4.5203,4.5203,4.5113,4.4978,4.4831,4.4831,4.4776,4.4626,4.4626,4.4902,4.5517,4.5517,4.5821,4.6413,4.6413,4.6413,4.9126,4.9683,4.9907,4.9493,4.8252,4.6217,4.2681,0.0,0.0,0.0,3.0817,2.9679,2.8558,3.1145,0.0,3.5494,3.8893,4.243,4.5492,4.6579,0.0,0.0,0.0,0.0,0.0,0.0,0.0,0.0,0.0,5.0011,5.0011,5.0011,5.0011,5.0011,5.0011,5.0011,5.0011,5.0011,5.0011,5.0011,5.0011,5.0011,5.0011,5.0011,5.0011,5.0011,5.0011,0.0,5.0011,5.0011,5.0011,5.008,5.0821,5.1114,5.1252,5.2408,5.258,5.2239,5.2684,5.2839,5.2649,5.1528,5.139,5.1602,5.1269,5.1149,5.1149,5.1149,5.1149,5.1149,5.1149,5.0873,5.058,5.058,5.0287,5.0011,5.0011,5.0011,5.0011,5.0011,5.0011,4.989,4.9482,4.9441,4.9154,4.8379,4.8258,4.812,4.7741,4.7034,4.6586,4.6586,4.6586,4.6586,4.6586,4.6477,4.6351,4.6251,4.6112,4.5988,4.5863,4.5835,4.5806,4.5766,4.572,4.5906,4.6261,4.6261,4.6447,4.6786,4.6786,4.6786,4.8741,4.9407,4.9855,4.9206,4.77,4.5182,4.0733,3.7698,0.0,3.0179,2.8678,2.804,2.7609,0.0,3.1921,0.0,3.6335,3.9439,4.3276,4.4596,4.6,0.0,0.0,0.0,0.0,0.0,0.0,0.0,0.0,0.0,5.0011,5.0011,5.0011,5.0011,5.0011,5.0011,5.0011,5.0011,5.0011,5.0011,5.0011,5.0011,5.0011,5.0011,5.0011,5.0011,5.0011,0.0,0.0,5.0011,5.0011,5.0097,5.0994,5.1356,5.1498,5.308,5.3253,5.2787,5.3425,5.3649,5.3529,5.2908,5.2567,5.2412,5.2239,5.2188,5.2188,5.2188,5.2188,5.2188,5.2188,5.1757,5.1356,5.1356,5.0907,5.0442,5.0287,5.0252,5.02,5.0045,5.0011,5.0011,5.0011,5.0011,4.9804,4.9137,4.9051,4.8844,4.8258,4.8172,4.8172,4.8172,4.7907,4.7689,4.7689,4.7595,4.7392,4.7216,4.7072,4.6944,4.6832,4.6786,4.6786,4.6786,4.6786,4.687,4.7039,4.7039,4.7107,4.7259,4.7259,4.7259,4.8546,4.9407,4.9993,4.9907,4.7672,4.4501,4.067,0.0,3.3197,2.9299,2.7902,2.7592,2.8178,2.9075,0.0,0.0,0.0,3.7836,4.1664,4.3483,4.5234,0.0,0.0,0.0,0.0,0.0,0.0,0.0,0.0,0.0,5.0011,5.0011,5.0011,5.0011,5.0011,5.0011,5.0011,5.0011,5.0011,5.0011,5.0011,5.0011,5.0011,5.0011,5.0011,5.0011,5.0011,0.0,0.0,5.0011,5.0011,5.0149,5.1533,5.2084,5.2274,5.3839,5.4356,5.4305,5.4374,5.4408,5.4391,5.4322,5.3839,5.3166,5.2412,5.2188,5.2188,5.2188,5.2188,5.2188,5.2188,5.2136,5.2084,5.2084,5.2033,5.1791,5.1149,5.1011,5.0804,5.0131,5.0011,5.0011,5.0011,5.0011,4.9976,4.9907,4.989,4.9873,4.9804,4.9804,4.9804,4.9804,4.8545,4.7689,4.7689,4.7595,4.7392,4.7216,4.7072,4.6944,4.6832,4.6786,4.6786,4.6786,4.6786,4.7124,4.7787,4.7787,4.8156,4.8798,4.8798,4.8798,4.7653,4.8976,4.989,4.9407,4.6993,4.3733,3.9945,0.0,3.2421,2.9092,2.7799,2.7385,2.7678,2.8334,2.9541,0.0,0.0,0.0,3.8025,0.0,0.0,0.0,0.0,0.0,0.0,0.0,0.0,0.0,0.0,0.0,5.0011,5.0011,5.0011,5.0011,5.0011,5.0011,5.0011,5.0011,5.0011,5.0011,5.0011,5.0011,5.0011,5.0011,5.0011,5.0011,5.0011,0.0,0.0,5.0011,5.0011,5.0149,5.1602,5.2188,5.2377,5.3942,5.4512,5.4512,5.4512,5.4512,5.4512,5.4512,5.4305,5.4011,5.3684,5.3598,5.3598,5.3598,5.3598,5.3598,5.3598,5.327,5.2804,5.2308,5.2188,5.2101,5.1808,5.174,5.1563,5.0821,5.0666,5.0528,5.008,5.0011,5.0011,5.0011,5.0011,5.0011,5.0011,5.0011,5.0011,5.0011,4.9459,4.9097,4.9097,4.8919,4.8786,4.8711,4.8464,4.8316,4.8256,4.8182,4.8122,4.8122,4.8122,4.8274,4.8578,4.8578,4.8714,4.9001,4.9001,4.9001,4.6344,4.8036,4.92,4.8603,4.6199,4.2982,3.9152,3.549,3.199,2.8747,2.7661,2.7299,2.7299,2.7713,2.8575,0.0,0.0,3.1921,3.5473,3.7301,0.0,0.0,0.0,0.0,0.0,0.0,0.0,0.0,0.0,0.0,0.0,5.0011,5.0011,5.0011,5.0011,5.0011,5.0011,5.0011,5.0011,5.0011,5.0011,5.0011,5.0011,5.0011,5.0011,5.0011,0.0,0.0,0.0,5.0011,5.0011,5.0149,5.1602,5.2188,5.2377,5.3942,5.4512,5.4512,5.4512,5.4512,5.4512,5.4512,5.4512,5.4512,5.4512,5.4512,5.4512,5.4512,5.4512,5.4512,5.4512,5.4115,5.358,5.3028,5.2891,5.2839,5.2615,5.2532,5.2339,5.155,5.1442,5.1269,5.0752,5.0666,5.058,5.0373,5.0338,5.0252,5.0045,5.0011,5.0011,5.0011,5.0011,5.0011,5.0011,4.986,4.9755,4.9708,4.9441,4.926,4.9199,4.9063,4.9001,4.9001,4.9001,4.9001,4.9001,4.9001,4.9001,4.9001,4.9001,4.9001,4.4593,4.6453,4.7707,4.7707,4.5441,4.2206,3.8375,3.5111,3.1834,2.8075,2.7315,2.7299,2.7299,2.7315,2.7782,2.9282,3.0179,0.0,3.4783,3.6546,0.0,0.0,0.0,0.0,0.0,0.0,0.0,0.0,0.0,0.0,0.0,5.0011,5.0011,5.0011,5.0011,5.0011,5.0011,5.0011,5.0011,5.0011,5.0011,5.0011,5.0011,5.0011,5.0011,0.0,0.0,0.0,0.0,5.0011,5.0011,5.0149,5.1602,5.2188,5.2377,5.3942,5.4512,5.4512,5.4512,5.4512,5.4512,5.4512,5.4512,5.4512,5.4512,5.4512,5.4512,5.4512,5.4512,5.4512,5.4512,5.4494,5.4494,5.4494,5.4494,5.4287,5.3546,5.3391,5.3149,5.2326,5.217,5.217,5.217,5.217,5.1912,5.1218,5.1097,5.0838,5.0097,5.0011,5.0011,5.0011,5.0011,5.0011,5.0011,5.0011,4.9906,4.9708,4.956,4.9411,4.9199,4.9063,4.9001,4.9001,4.9001,4.9001,4.9001,4.9001,4.9001,4.9001,4.9001,4.9001,4.0827,4.253,4.3544,4.2509,4.075,3.8444,3.5111,3.2817,3.061,2.7868,2.7299,2.7299,2.7299,2.7299,2.8127,3.0662,3.1282,0.0,0.0,0.0,0.0,0.0,0.0,0.0,0.0,0.0,0.0,0.0,0.0,0.0,0.0,5.0011,5.0011,5.0011,5.0011,5.0011,5.0011,5.0011,5.0011,5.0011,5.0011,5.0011,5.0011,5.0011,0.0,0.0,0.0,0.0,0.0,5.0011,5.0011,5.0149,5.1602,5.2188,5.2377,5.3942,5.4512,5.4512,5.4512,5.4512,5.4512,5.4512,5.4512,5.4512,5.4512,5.4512,5.4512,5.4512,5.4512,5.4512,5.4512,5.4512,5.4512,5.4512,5.4512,5.4443,5.4201,5.4149,5.3942,5.3184,5.3028,5.2856,5.2274,5.2188,5.2101,5.1877,5.1843,5.1787,5.1515,5.108,5.0752,5.0752,5.0752,5.0562,5.0045,5.0011,4.9918,4.9708,4.956,4.9411,4.9199,4.9063,4.9001,4.9001,4.9001,4.9001,4.9001,4.9001,4.9001,4.9001,4.9001,4.9272,3.7494,3.9404,4.0444,3.9526,3.7961,3.5973,3.3473,3.1524,2.9679,2.7713,2.7299,2.7299,2.7299,2.7299,2.8006,3.0162,3.0748,0.0,0.0,0.0,0.0,0.0,0.0,0.0,0.0,0.0,0.0,0.0,0.0,0.0,0.0,5.0011,5.0011,5.0011,5.0011,5.0011,5.0011,5.0011,5.0011,5.0011,5.0011,5.0011,5.0011,5.0011,0.0,0.0,0.0,0.0,0.0,5.0011,5.0011,5.0131,5.1338,5.1946,5.2343,5.3632,5.427,5.4512,5.4512,5.4512,5.4512,5.4512,5.4512,5.4512,5.4512,5.4512,5.4512,5.4512,5.4512,5.4512,5.4512,5.4512,5.4512,5.4512,5.4512,5.4512,5.4512,5.4512,5.4374,5.3908,5.3822,5.3667,5.3136,5.308,5.2977,5.2701,5.2666,5.2546,5.2222,5.1791,5.1498,5.1498,5.1498,5.1338,5.0873,5.058,5.044,5.0549,5.0159,4.9974,5.0062,4.9924,4.9847,4.9847,4.9847,4.9847,4.9847,4.9847,4.9847,4.9847,4.9847,5.0084,0.0,3.6663,3.7949,3.7934,3.6353,3.4404,3.2921,3.0938,0.0,2.7592,2.7299,2.7333,2.7453,2.7368,2.7627,2.8644,0.0,0.0,0.0,0.0,0.0,0.0,0.0,0.0,0.0,0.0,0.0,0.0,0.0,0.0,0.0,5.0011,5.0011,5.0011,5.0011,5.0011,5.0011,5.0011,5.0011,5.0011,5.0011,5.0011,5.0011,5.0011,0.0,0.0,0.0,0.0,0.0,5.0011,5.0011,5.008,5.0821,5.1498,5.2222,5.308,5.3839,5.4443,5.4494,5.4512,5.4512,5.4512,5.4512,5.4512,5.4512,5.4512,5.4512,5.4512,5.4512,5.4512,5.4512,5.4512,5.4512,5.4512,5.4512,5.4512,5.4512,5.4512,5.4512,5.4512,5.4512,5.4512,5.4512,5.4512,5.427,5.358,5.3477,5.3218,5.2477,5.2308,5.2274,5.2274,5.2274,5.2257,5.2257,5.1584,5.1404,5.1939,5.1155,5.0915,5.1456,5.1314,5.1185,5.1185,5.1185,5.1185,5.1185,5.1185,5.1185,5.1185,5.1185,5.1219,2.9008,0.0,3.2385,3.18,3.1248,3.0593,0.0,2.9041,2.8403,2.7489,2.7299,2.7644,2.8765,2.8058,2.8489,3.2181,0.0,0.0,0.0,0.0,0.0,0.0,0.0,0.0,0.0,0.0,0.0,0.0,0.0,0.0,0.0,5.0011,5.0011,5.0011,5.0011,5.0011,5.0011,5.0011,5.0011,5.0011,5.0011,5.0011,5.0011,5.0011,0.0,0.0,0.0,0.0,5.0011,5.0011,5.0011,5.008,5.0821,5.1218,5.1498,5.2908,5.3511,5.3753,5.4305,5.4512,5.4512,5.4512,5.4512,5.4512,5.4512,5.4512,5.4512,5.4512,5.4512,5.4512,5.4512,5.4512,5.4512,5.4512,5.4512,5.4512,5.4512,5.4512,5.4512,5.4512,5.4512,5.4512,5.4512,5.4512,5.4443,5.427,5.4253,5.4184,5.3994,5.3477,5.3132,5.3132,5.2974,5.2894,5.2894,5.2207,5.1785,5.1771,5.1478,5.1272,5.1282,5.1217,5.1185,5.1185,5.1185,5.1185,5.1185,5.1185,5.1185,5.1185,5.1185,5.1505,2.6169,2.8128,3.0092,3.0058,2.9782,2.9403,2.9006,2.8109,2.7333,2.7299,2.7006,2.7109,2.8282,2.8385,2.9127,0.0,3.2507,0.0,0.0,0.0,0.0,0.0,0.0,0.0,0.0,0.0,0.0,0.0,0.0,0.0,0.0,5.0011,5.0011,5.0011,5.0011,5.0011,5.0011,5.0011,5.0011,5.0011,5.0011,5.0011,5.0011,5.0011,5.0011,0.0,0.0,0.0,5.0011,5.0011,5.0011,5.0045,5.0442,5.0804,5.1252,5.2425,5.308,5.3511,5.4253,5.4512,5.4512,5.4512,5.4512,5.4512,5.4512,5.4512,5.4512,5.4512,5.4512,5.4512,5.4512,5.4512,5.4512,5.4512,5.4512,5.4512,5.4512,5.4512,5.4512,5.4512,5.4512,5.4512,5.4512,5.4512,5.4512,5.4512,5.4512,5.4512,5.4512,5.4055,5.3765,5.3765,5.3621,5.3526,5.3526,5.3053,5.2718,5.2622,5.2219,5.2089,5.2249,5.2266,5.2266,5.2266,5.2266,5.2266,5.2266,5.2266,5.2266,5.2266,5.2266,5.2469,2.5203,2.7252,2.9369,2.9868,2.9661,2.9299,2.9196,2.7678,2.6488,2.7161,2.6851,2.6764,2.7799,2.892,0.0,0.0,0.0,0.0,0.0,0.0,0.0,0.0,0.0,0.0,0.0,0.0,0.0,0.0,0.0,0.0,0.0,5.0011,5.0011,5.0011,5.0011,5.0011,5.0011,5.0011,5.0011,5.0011,5.0011,5.0011,5.0011,5.0011,5.0011,0.0,0.0,0.0,5.0011,5.0011,5.0011,5.0011,5.0011,5.039,5.1045,5.1877,5.2649,5.3339,5.4201,5.4512,5.4512,5.4512,5.4512,5.4512,5.4512,5.4512,5.4512,5.4512,5.4512,5.4512,5.4512,5.4512,5.4512,5.4512,5.4512,5.4512,5.4512,5.4512,5.4512,5.4512,5.4512,5.4512,5.4512,5.4512,5.4512,5.4512,5.4512,5.448,5.448,5.4303,5.419,5.4175,5.4045,5.3948,5.3948,5.3783,5.3684,5.3684,5.3073,5.2957,5.3484,5.3501,5.3501,5.3501,5.3501,5.3501,5.3501,5.3501,5.3501,5.3501,5.3501,5.3501,2.6371,2.7731,2.8265,2.7093,2.7696,2.8403,2.7782,2.7368,2.7144,2.7264,2.7696,2.8678,0.0,3.0765,3.1558,0.0,0.0,0.0,0.0,0.0,0.0,0.0,0.0,0.0,0.0,0.0,0.0,0.0,0.0,0.0,0.0,5.0011,5.0011,5.0011,5.0011,5.0011,5.0011,5.0011,5.0011,5.0011,5.0011,5.0011,5.0011,5.0011,5.0011,0.0,0.0,5.0011,5.0011,5.0011,5.0011,5.0011,5.0011,5.008,5.0338,5.1688,5.2274,5.2567,5.4011,5.4512,5.4512,5.4512,5.4512,5.4512,5.4512,5.4512,5.4512,5.4512,5.4512,5.4512,5.4512,5.4512,5.4512,5.4512,5.4512,5.4512,5.4512,5.4512,5.4512,5.4512,5.4512,5.4512,5.4512,5.4512,5.4512,5.4512,5.4512,5.4448,5.4271,5.4239,5.4175,5.4045,5.3849,5.375,5.375,5.3601,5.3534,5.3534,5.3416,5.3416,5.3501,5.3501,5.3501,5.3501,5.3501,5.3501,5.3501,5.3501,5.3501,5.3501,5.3501,5.3501,2.5704,2.6854,2.7647,2.7404,2.911,3.0644,2.9903,2.942,2.9265,2.9644,2.9679,0.0,0.0,0.0,3.4835,3.8215,0.0,0.0,0.0,0.0,0.0,0.0,0.0,0.0,0.0,0.0,0.0,0.0,0.0,0.0,0.0,0.0,4.9889,5.0011,5.0011,5.0011,5.0011,5.0011,5.0011,5.0011,5.0011,5.0011,5.0011,5.0011,5.0011,5.0011,0.0,5.0011,5.0011,5.0011,5.0011,5.0011,5.0011,5.0011,5.0183,5.1666,5.2722,5.3546,5.4253,5.4512,5.4512,5.4512,5.4512,5.4512,5.4512,5.4512,5.4512,5.4512,5.4512,5.4512,5.4512,5.4512,5.4512,5.4512,5.4512,5.4512,5.4512,5.4512,5.4512,5.4512,5.4512,5.4512,5.4512,5.4512,5.4463,5.4367,5.4335,5.4271,5.411,5.4013,5.3915,5.3849,5.3701,5.3568,5.3568,5.3534,5.3501,5.3501,5.3501,5.3501,5.3501,5.3501,5.3501,5.3501,5.3501,5.3501,5.3501,5.3501,5.3501,5.3501,5.3501,5.3501,2.5538,2.6411,2.7358,2.8403,3.0265,3.1938,3.2248,3.161,3.1335,3.2593,3.2403,0.0,0.0,3.518,0.0,4.0256,0.0,0.0,0.0,0.0,0.0,0.0,0.0,0.0,0.0,0.0,0.0,0.0,0.0,0.0,0.0,0.0,4.9755,4.9935,4.9935,4.9964,5.0011,5.0011,5.0011,5.0011,5.0011,5.0011,5.0011,5.0011,5.0011,5.0011,5.0011,5.0011,5.0011,5.0011,5.0011,5.0011,5.0011,5.0114,5.0424,5.1705,5.308,5.427,5.4443,5.4512,5.4512,5.4512,5.4512,5.4512,5.4512,5.4512,5.4512,5.4512,5.4512,5.4512,5.4512,5.4512,5.4512,5.4512,5.4512,5.4512,5.4512,5.4512,5.4512,5.4512,5.4512,5.448,5.4448,5.4448,5.4385,5.4175,5.4158,5.411,5.3948,5.3816,5.3684,5.3651,5.3551,5.3501,5.3501,5.3501,5.3501,5.3501,5.3501,5.3501,5.3501,5.3501,5.3501,5.3501,5.3501,5.3501,5.3501,5.3501,5.3501,5.3501,5.3501,5.3501,2.7363,2.7532,2.7478,2.9024,2.9075,2.9644,3.3147,3.2802,3.2524,3.5387,3.5921,0.0,0.0,3.7887,3.9526,3.975,0.0,0.0,0.0,0.0,0.0,0.0,0.0,0.0,0.0,0.0,0.0,0.0,0.0,0.0,0.0,0.0,0.0,4.9708,4.9708,4.9813,5.0011,5.0011,5.0011,5.0011,5.0011,5.0011,5.0011,5.0011,5.0011,5.0011,5.0011,5.0011,5.0011,5.0011,5.0011,5.0011,5.0011,5.0424,5.1132,5.1895,5.2753,5.358,5.427,5.4512,5.4512,5.4512,5.4512,5.4512,5.4512,5.4512,5.4512,5.4512,5.4512,5.4512,5.4512,5.4512,5.4512,5.4512,5.4512,5.4512,5.4512,5.4512,5.4512,5.4512,5.4512,5.4448,5.4271,5.4222,5.4175,5.4045,5.4013,5.3948,5.375,5.3717,5.3651,5.3534,5.3501,5.3501,5.3501,5.3501,5.3501,5.3501,5.3501,5.3501,5.3501,5.3501,5.3501,5.3501,5.3501,5.3501,5.3501,5.3501,5.3501,5.3501,5.3501,5.3501,2.7211,2.7653,2.8184,2.9816,3.0731,3.1834,3.4231,3.5421,3.6611,3.8738,3.9169,0.0,0.0,0.0,4.1188,0.0,0.0,0.0,0.0,0.0,0.0,0.0,0.0,0.0,0.0,0.0,0.0,0.0,0.0,0.0,0.0,0.0,0.0,4.8893,4.846,4.8232,4.8306,4.8786,4.9056,4.9143,4.9711,5.0011,5.0011,5.0011,5.0011,5.0011,5.0011,5.0011,5.0011,5.0011,5.0011,5.0011,5.0011,5.0459,5.12,5.1912,5.2718,5.348,5.4109,5.4399,5.448,5.4367,5.4399,5.4512,5.4512,5.4512,5.4512,5.4512,5.4512,5.4512,5.4512,5.4512,5.4512,5.4512,5.4512,5.4512,5.4512,5.4512,5.4512,5.4512,5.4399,5.4303,5.419,5.4143,5.4013,5.3849,5.3816,5.375,5.3618,5.3584,5.3551,5.3501,5.3501,5.3501,5.3501,5.3501,5.3501,5.3501,5.3501,5.3501,5.3501,5.3501,5.3501,5.3501,5.3501,5.3501,5.3501,5.3501,5.3501,5.3501,5.3501,5.3754,2.6736,2.7024,2.7827,2.9524,3.14,3.3412,3.5728,3.7646,3.9508,4.1567,4.1602,4.1257,4.1257,0.0,0.0,0.0,0.0,0.0,0.0,0.0,0.0,0.0,0.0,0.0,0.0,0.0,0.0,0.0,0.0,0.0,0.0,0.0,0.0,0.0,4.7466,4.725,4.7307,4.7791,4.8105,4.8209,4.9068,4.9682,5.0011,5.0011,5.0011,5.0011,5.0011,4.9964,4.9906,4.9964,5.0011,4.9982,4.9877,5.0187,5.0767,5.1705,5.241,5.298,5.3832,5.4239,5.4303,5.4175,5.4239,5.4353,5.4399,5.4385,5.4353,5.4399,5.4367,5.4335,5.4335,5.4367,5.4399,5.448,5.4448,5.4416,5.4416,5.4416,5.4399,5.4353,5.4239,5.411,5.4028,5.398,5.3849,5.3651,5.3634,5.3601,5.3501,5.3501,5.3501,5.3501,5.3501,5.3501,5.3501,5.3501,5.3501,5.3501,5.3501,5.3501,5.3501,5.3501,5.3501,5.3501,5.3501,5.3501,5.3501,5.3501,5.3501,5.3518,5.3737,5.411,2.6079,2.5721,2.6143,2.7893,3.0514,3.3696,3.7705,3.9181,4.0578,4.369,4.3103,4.2033,4.1992,4.1992,0.0,0.0,0.0,0.0,0.0,0.0,0.0,0.0,0.0,0.0,0.0,0.0,0.0,0.0,0.0,0.0,0.0,0.0,0.0,0.0,4.6986,4.7072,4.729,4.729,4.7307,4.7307,4.803,4.8963,4.9993,5.0011,5.0011,5.0011,5.0011,4.9889,4.9708,4.9906,5.0011,4.9964,4.9637,4.956,4.9867,5.1193,5.1677,5.193,5.3451,5.398,5.398,5.398,5.398,5.4013,5.4175,5.411,5.4013,5.4175,5.411,5.398,5.398,5.411,5.4239,5.4448,5.4335,5.419,5.419,5.419,5.4175,5.4013,5.398,5.3948,5.3733,5.37,5.3651,5.3534,5.3501,5.3501,5.3501,5.3501,5.3501,5.3501,5.3501,5.3501,5.3501,5.3501,5.3501,5.3501,5.3501,5.3501,5.3501,5.3501,5.3501,5.3501,5.3501,5.3501,5.3501,5.3501,5.3501,5.3534,5.4245,5.46,2.5943,2.6551,2.7964,3.0033,3.3254,3.6615,3.9316,4.057,4.1904,4.4535,4.4208,4.3314,4.2721,0.0,0.0,0.0,0.0,0.0,0.0,0.0,0.0,0.0,0.0,0.0,0.0,0.0,0.0,0.0,0.0,0.0,0.0,0.0,0.0,0.0,4.5586,4.5343,4.5399,4.5914,4.6209,4.6334,4.7072,4.7926,4.8883,4.9414,4.9654,4.9654,4.9654,4.9607,4.956,4.9607,4.9654,4.9654,4.9547,4.95,4.965,5.0594,5.1247,5.1831,5.2692,5.3456,5.398,5.3849,5.3882,5.403,5.4045,5.4013,5.4013,5.4045,5.4013,5.398,5.398,5.3915,5.3915,5.411,5.411,5.4045,5.4045,5.4045,5.4045,5.4013,5.398,5.3948,5.3733,5.3816,5.3849,5.3668,5.3767,5.38,5.3668,5.3634,5.3601,5.3501,5.3501,5.3501,5.3501,5.3501,5.3501,5.3501,5.3501,5.3501,5.3501,5.3501,5.3501,5.3501,5.3501,5.3501,5.3501,5.3501,5.3771,5.4279,5.4482,5.5158,2.6572,2.7522,2.9208,3.2054,3.4938,3.7928,4.1077,0.0,0.0,0.0,4.4663,4.3974,4.3838,0.0,0.0,0.0,0.0,0.0,0.0,0.0,0.0,0.0,0.0,0.0,0.0,0.0,0.0,0.0,0.0,0.0,0.0,0.0,0.0,0.0,4.4852,4.4615,4.4615,4.5026,4.5303,4.5399,4.6135,4.6787,4.7367,4.8536,4.9214,4.9488,4.9428,4.9428,4.9488,4.9411,4.9428,4.9488,4.9411,4.9381,4.9466,5.0155,5.0873,5.1607,5.2259,5.3072,5.3767,5.3668,5.3701,5.38,5.3849,5.3849,5.38,5.3849,5.3849,5.38,5.38,5.3701,5.3701,5.3948,5.3948,5.3882,5.3882,5.3948,5.398,5.3882,5.3882,5.3882,5.3816,5.3849,5.3882,5.3816,5.3849,5.3816,5.3634,5.3634,5.3584,5.3501,5.3501,5.3501,5.3501,5.3501,5.3501,5.3501,5.3501,5.3501,5.3501,5.3501,5.3501,5.3501,5.3501,5.3501,5.3501,5.3788,5.416,5.46,5.5192,5.5953,2.7519,2.8433,3.0131,3.3943,3.6152,0.0,4.2641,4.3778,4.4228,4.518,0.0,4.4245,0.0,0.0,0.0,0.0,0.0,0.0,0.0,0.0,0.0,0.0,0.0,0.0,0.0,0.0,0.0,0.0,0.0,0.0,0.0,0.0,0.0,4.4615,4.4615,4.4615,4.4615,4.4615,4.4615,0.0,4.528,4.5635,4.5754,4.752,4.8758,4.9458,4.926,4.929,4.9458,4.926,4.929,4.9458,4.926,4.9168,4.9253,4.9808,5.0473,5.1217,5.1944,5.2723,5.3399,5.3484,5.3501,5.3534,5.3651,5.3618,5.3534,5.3651,5.3601,5.3501,5.3501,5.3501,5.3568,5.3866,5.3816,5.3684,5.3717,5.3849,5.3882,5.3717,5.3667,5.3733,5.3932,5.3816,5.3783,5.398,5.39,5.3769,5.3534,5.3602,5.3585,5.3518,5.3501,5.3501,5.3501,5.3501,5.3501,5.3501,5.3501,5.3501,5.3501,5.3501,5.3501,5.3501,5.3501,5.3534,5.3602,5.4262,5.4668,5.482,5.6173,5.685,2.6894,2.8826,3.1698,3.5418,3.9182,4.211,4.2641,4.3634,4.4589,4.5133,4.4912,4.4698,0.0,0.0,0.0,0.0,0.0,0.0,0.0,0.0,0.0,0.0,0.0,0.0,0.0,0.0,0.0,0.0,0.0,0.0,0.0,0.0,0.0,4.4615,4.4615,4.4615,4.4615,4.4615,4.4615,0.0,4.4767,4.5128,4.5754,4.7302,4.8399,4.9094,4.9063,4.9063,4.9094,4.9063,4.9063,4.9094,4.9063,4.9032,4.9049,4.9187,4.9695,5.0439,5.1183,5.1944,5.2655,5.3298,5.3501,5.3501,5.3517,5.3534,5.3501,5.3517,5.3534,5.3501,5.3501,5.3501,5.3534,5.3601,5.3551,5.3584,5.3684,5.3634,5.3584,5.3551,5.3634,5.3684,5.3618,5.38,5.3948,5.398,5.446,5.4531,5.3769,5.416,5.4279,5.3568,5.3501,5.3501,5.3501,5.3501,5.3501,5.3501,5.3501,5.3501,5.3501,5.3501,5.3501,5.3501,5.3501,5.3788,5.4346,5.4515,5.5192,5.6325,5.6647,5.7103,2.774,3.001,3.2846,3.7252,0.0,4.3318,4.2993,4.3508,4.4196,4.4882,4.4858,0.0,0.0,0.0,0.0,0.0,0.0,0.0,0.0,0.0,0.0,0.0,0.0,0.0,0.0,0.0,0.0,0.0,0.0,0.0,0.0,4.4615,4.4615,4.4615,4.4615,4.4615,4.4615,4.4615,4.4615,4.4615,4.4615,4.4976,4.5754,4.7242,4.8122,4.8494,4.8849,4.9001,4.9001,4.9063,4.9063,4.9001,4.9063,4.9063,4.9001,4.9001,4.9458,5.0202,5.0947,5.1691,5.2435,5.3247,5.3501,5.3501,5.3501,5.3501,5.3501,5.3501,5.3501,5.3501,5.3501,5.3501,5.3534,5.3584,5.3551,5.3534,5.3584,5.3601,5.3618,5.3618,5.3651,5.3717,5.3734,5.4173,5.4494,5.4411,5.5042,5.5332,5.472,5.4991,5.4923,5.4093,5.4025,5.3873,5.3534,5.3822,5.4025,5.4025,5.4363,5.4566,5.4566,5.4566,5.4228,5.3518,5.3501,5.3856,5.4583,5.4955,5.57,5.6816,5.7154,5.7526,2.7943,3.0768,3.3884,3.8877,4.1677,0.0,4.3189,4.3189,4.3464,4.4364,0.0,0.0,0.0,0.0,0.0,0.0,0.0,0.0,0.0,0.0,0.0,0.0,0.0,0.0,0.0,0.0,0.0,0.0,0.0,0.0,4.4615,4.4615,4.4615,4.4615,4.4615,4.4615,4.4615,4.4615,4.4615,4.4615,4.4615,4.4936,4.5568,4.6921,4.7652,4.7922,4.8562,4.8883,4.9001,4.9107,4.9077,4.9001,4.9107,4.9077,4.9001,4.9001,4.939,5.0016,5.0913,5.1606,5.2266,5.3196,5.3534,5.3517,5.3517,5.3517,5.3517,5.3517,5.3534,5.3501,5.3501,5.3501,5.3534,5.3634,5.3584,5.3501,5.3534,5.3601,5.3651,5.3651,5.3651,5.3768,5.4053,5.4615,5.4991,5.4958,5.562,5.6044,5.5733,5.5818,5.5564,5.4685,5.4583,5.4346,5.3737,5.4245,5.4634,5.4769,5.5378,5.5681,5.5681,5.5681,5.5141,5.3907,5.389,5.4245,5.4972,5.5598,5.6275,5.7002,5.7611,5.7881,2.4137,0.0,3.5148,0.0,4.1288,4.2439,0.0,0.0,4.2658,0.0,0.0,0.0,0.0,0.0,0.0,0.0,0.0,0.0,0.0,0.0,0.0,0.0,0.0,0.0,0.0,0.0,0.0,0.0,0.0,0.0,4.4615,4.4615,4.4615,4.4615,4.4615,4.4615,4.4615,4.4615,4.4615,4.4615,4.4615,4.4649,4.4784,4.5618,4.6701,4.7889,4.799,4.8426,4.9001,4.9032,4.9001,4.9001,4.9032,4.9001,4.9001,4.9001,4.9069,4.934,5.0744,5.1252,5.1589,5.3044,5.3584,5.3684,5.3684,5.3684,5.3684,5.3684,5.3584,5.3501,5.3501,5.3501,5.3501,5.3534,5.3501,5.3534,5.3651,5.3618,5.3534,5.3534,5.3534,5.3737,5.4398,5.4584,5.4872,5.5498,5.6225,5.6462,5.5801,5.6275,5.6139,5.4735,5.4583,5.4549,5.4448,5.4532,5.4871,5.553,5.5666,5.5681,5.5681,5.5681,5.5597,5.5429,5.5429,5.5784,5.6511,5.6613,5.7036,5.7746,5.7831,5.7881,2.6116,3.0751,3.5301,0.0,4.0595,4.1779,4.2202,0.0,4.2506,0.0,0.0,0.0,0.0,0.0,0.0,0.0,0.0,0.0,0.0,0.0,0.0,0.0,0.0,0.0,0.0,0.0,0.0,0.0,0.0,4.4615,4.4615,4.4615,4.4615,4.4615,4.4615,4.4615,4.4615,4.4615,4.4615,4.4615,4.4615,4.4615,4.4615,4.4953,4.5652,4.6718,4.7534,4.8075,4.8426,4.8832,4.9001,4.9001,4.9001,4.9001,4.9001,4.9001,4.9063,4.9297,5.0693,5.1282,5.16,5.3043,5.3517,5.3584,5.3584,5.3584,5.3584,5.3584,5.3568,5.3501,5.3501,5.3501,5.3501,5.3501,5.3501,5.3534,5.3584,5.3517,5.3501,5.3501,5.3501,5.3602,5.3923,5.4668,5.5344,5.5666,5.6681,5.7289,5.6968,5.7222,5.7002,5.5936,5.5835,5.5666,5.526,5.5598,5.597,5.6308,5.6714,5.6934,5.6934,5.6934,5.6934,5.6934,5.6139,5.6072,5.6799,5.6799,5.7171,5.7881,5.7881,5.7881,2.6996,0.0,3.3372,3.6958,3.9123,4.0612,0.0,0.0,0.0,0.0,0.0,0.0,0.0,0.0,0.0,0.0,0.0,0.0,0.0,0.0,0.0,0.0,0.0,0.0,0.0,0.0,0.0,0.0,0.0,4.4615,4.4615,4.4615,4.4615,4.4615,4.4615,4.4615,4.4615,4.4615,4.4615,4.4615,4.4615,4.4615,4.4615,4.4615,4.4919,4.5483,4.6786,4.7534,4.7922,4.8494,4.8832,4.9001,4.9001,4.9001,4.9001,4.9001,4.9063,4.9359,5.0725,5.1282,5.1632,5.3043,5.3534,5.3551,5.3551,5.3551,5.3551,5.3551,5.3534,5.3501,5.3501,5.3501,5.3501,5.3501,5.3501,5.3501,5.3501,5.3501,5.3501,5.3501,5.3653,5.3839,5.4042,5.5141,5.6055,5.6241,5.7205,5.7881,5.7881,5.7881,5.7611,5.6884,5.6799,5.6579,5.6038,5.6494,5.6884,5.707,5.7594,5.7881,5.7881,5.7881,5.7881,5.7881,5.6816,5.6528,5.707,5.707,5.7357,5.7881,5.7881,5.7881,2.3543,2.5929,0.0,3.3457,3.6417,3.8464,0.0,0.0,0.0,0.0,0.0,0.0,0.0,0.0,0.0,0.0,0.0,0.0,0.0,0.0,0.0,0.0,0.0,0.0,0.0,0.0,0.0,0.0,0.0,4.4615,4.4615,4.4615,4.4615,4.4615,4.4615,4.4615,4.4615,4.4615,4.4615,4.4615,4.4615,4.4615,4.4615,4.4615,4.4632,4.4699,4.5483,4.6616,4.7889,4.7922,4.8392,4.9001,4.9001,4.9001,4.9001,4.9001,4.9001,4.9221,5.0693,5.1217,5.1471,5.301,5.3584,5.3684,5.3684,5.3684,5.3684,5.3684,5.3601,5.3501,5.3501,5.3501,5.3501,5.3501,5.3501,5.3501,5.3501,5.3501,5.3501,5.3501,5.4059,5.4752,5.548,5.6241,5.6985,5.7679,5.7831,5.7881,5.7881,5.7881,5.7611,5.6884,5.6799,5.6782,5.6748,5.6782,5.7103,5.778,5.7865,5.7881,5.7881,5.7881,5.7881,5.7881,5.7814,5.7797,5.7831,5.7831,5.7848,5.7881,5.7881,5.7881,2.2513,0.0,0.0,3.0835,3.3711,3.6113,3.7635,0.0,0.0,0.0,0.0,0.0,0.0,0.0,0.0,0.0,0.0,0.0,0.0,0.0,0.0,0.0,0.0,0.0,0.0,0.0,0.0,0.0,0.0,0.0,4.3809,4.3826,4.4062,4.4581,4.4615,4.4615,4.4615,4.4615,4.4615,4.4615,4.4615,4.4615,4.4615,4.4615,4.4615,4.4615,4.4874,4.5821,4.7225,4.7686,4.8311,4.9001,4.9001,4.9001,4.9001,4.9001,4.9063,4.9328,5.0725,5.1282,5.1649,5.3043,5.3534,5.3584,5.3584,5.3584,5.3584,5.3584,5.3534,5.3501,5.3501,5.3501,5.3501,5.3501,5.3501,5.3636,5.4093,5.4211,5.4211,5.4211,5.4803,5.5395,5.5666,5.6325,5.6731,5.6528,5.7289,5.7729,5.7256,5.7594,5.778,5.7526,5.7509,5.7509,5.7509,5.7509,5.7611,5.7865,5.7881,5.7881,5.7881,5.7881,5.7881,5.7881,5.7881,5.7881,5.7881,5.7881,5.7881,5.7881,5.7881,5.7881,2.1092,0.0,0.0,0.0,0.0,3.3051,3.6101,0.0,0.0,0.0,0.0,0.0,0.0,0.0,0.0,0.0,0.0,0.0,0.0,0.0,0.0,0.0,0.0,0.0,0.0,0.0,0.0,0.0,0.0,0.0,4.3014,4.3047,4.3386,4.4164,4.4479,4.4615,4.4615,4.4615,4.4615,4.4615,4.4615,4.4615,4.4615,4.4615,4.4615,4.4615,4.4615,4.5444,4.6836,4.7344,4.8122,4.9001,4.9001,4.9001,4.9001,4.9001,4.9063,4.9328,5.0725,5.1282,5.1632,5.3043,5.3501,5.3501,5.3501,5.3501,5.3501,5.3501,5.3501,5.3501,5.3501,5.3501,5.3501,5.3501,5.3687,5.3991,5.4482,5.4583,5.4668,5.4921,5.5564,5.6089,5.6089,5.6681,5.7002,5.6511,5.7273,5.7712,5.7222,5.7594,5.7881,5.7881,5.7881,5.7881,5.7881,5.7881,5.7881,5.7881,5.7881,5.7881,5.7881,5.7881,5.7881,5.7881,5.7881,5.7881,5.7881,5.7881,5.7881,5.7881,5.7881,5.7881,0.0,0.0,0.0,0.0,0.0,0.0,0.0,0.0,0.0,0.0,0.0,0.0,0.0,0.0,0.0,0.0,0.0,0.0,0.0,0.0,0.0,0.0,0.0,0.0,0.0,0.0,0.0,0.0,0.0,4.2236,4.2252,4.2286,4.2625,4.3325,4.4147,4.4564,4.4564,4.4598,4.4615,4.4615,4.4615,4.4615,4.4615,4.4615,4.4615,4.4615,4.4615,4.5444,4.6786,4.6786,4.7665,4.9001,4.9001,4.9001,4.9001,4.9001,4.9018,4.9238,5.071,5.1202,5.1472,5.301,5.3501,5.3501,5.3501,5.3501,5.3501,5.3501,5.3501,5.3501,5.3501,5.3501,5.3501,5.3501,5.4059,5.46,5.4617,5.4634,5.4871,5.5598,5.6342,5.6833,5.6833,5.7425,5.7881,5.7865,5.7865,5.7865,5.7865,5.7865,5.7865,5.7881,5.7881,5.7881,5.7881,5.7881,5.7881,5.7881,5.7881,5.7881,5.7881,5.7881,5.7881,5.7881,5.7881,5.7881,5.7881,5.7881,5.7881,5.7881,5.7881,5.7881,1.9913,0.0,0.0,0.0,0.0,0.0,0.0,0.0,0.0,0.0,0.0,0.0,0.0,0.0,0.0,0.0,0.0,0.0,0.0,0.0,0.0,0.0,0.0,0.0,0.0,0.0,0.0,0.0,4.0722,4.0933,4.1474,4.1999,4.2388,4.2591,4.3335,4.3741,4.3741,4.4327,4.4615,4.4615,4.4615,4.4615,4.4615,4.4615,4.4615,4.4615,4.4615,4.5444,4.6786,4.6786,4.7665,4.9001,4.9001,4.9001,4.9001,4.9001,4.934,4.9932,5.0879,5.1555,5.2164,5.3179,5.3501,5.3501,5.3501,5.3501,5.3501,5.3501,5.3501,5.3501,5.3501,5.3501,5.3501,5.3501,5.4059,5.4735,5.5294,5.5818,5.6258,5.6461,5.7087,5.7594,5.7594,5.7746,5.7712,5.7171,5.7103,5.7103,5.7103,5.7103,5.7306,5.7831,5.7881,5.7881,5.7881,5.7881,5.7881,5.7881,5.7881,5.7881,5.7881,5.7881,5.7881,5.7881,5.7881,5.7881,5.7881,5.7881,5.7881,5.7881,5.7881,5.7881,2.0957,2.2141,0.0,0.0,0.0,0.0,0.0,2.8807,0.0,0.0,0.0,0.0,0.0,0.0,0.0,0.0,0.0,0.0,0.0,0.0,0.0,0.0,0.0,0.0,0.0,0.0,0.0,4.0096,4.0096,4.0299,4.0713,4.1441,4.183,4.183,4.2557,4.3098,4.3392,4.3876,4.4265,4.4615,4.4615,4.4615,4.4615,4.4615,4.4615,4.4615,4.4615,4.5444,4.6786,4.6786,4.7665,4.9001,4.9001,4.9001,4.9001,4.9001,4.9458,5.0202,5.0947,5.1691,5.2435,5.3247,5.3501,5.3501,5.3501,5.3501,5.3501,5.3501,5.3501,5.3501,5.3501,5.3501,5.3585,5.389,5.4515,5.526,5.6004,5.6748,5.7256,5.7256,5.7594,5.7881,5.7881,5.7881,5.7746,5.7323,5.7256,5.7256,5.7256,5.7256,5.7408,5.7831,5.7881,5.7881,5.7881,5.7881,5.7881,5.7881,5.7881,5.7881,5.7881,5.7881,5.7881,5.7881,5.7881,5.7881,5.7881,5.7881,5.7881,5.7881,5.7881,5.7881,2.2494,2.3238,0.0,0.0,0.0,0.0,2.9076,2.9399,0.0,0.0,0.0,0.0,0.0,0.0,0.0,0.0,0.0,0.0,0.0,0.0,0.0,0.0,0.0,0.0,0.0,4.018,4.0197,4.0113,4.0096,4.0096,4.0096,4.0713,4.1085,4.1085,4.1779,4.254,4.3257,4.3341,4.3809,4.4615,4.4615,4.4615,4.4615,4.4615,4.4615,4.4615,4.4615,4.5444,4.6786,4.6786,4.7665,4.9001,4.9001,4.9001,4.9001,4.9001,4.9526,5.0321,5.098,5.1758,5.2553,5.3264,5.3501,5.3501,5.3501,5.3501,5.3501,5.3501,5.3501,5.3501,5.3501,5.3501,5.3687,5.4414,5.5158,5.5919,5.6647,5.7374,5.7881,5.7881,5.7881,5.7881,5.7881,5.7881,5.7881,5.7881,5.7814,5.7797,5.7881,5.7814,5.7797,5.7881,5.7881,5.7881,5.7881,5.7881,5.7881,5.7881,5.7881,5.7881,5.7881,5.7881,5.7881,5.7881,5.7881,5.7881,5.7881,5.7881,5.7881,5.7881,5.7881,5.7881,2.5609,2.593,2.5879,2.4239,0.0,0.0,0.0,2.5203,0.0,0.0,0.0,0.0,0.0,0.0,0.0,0.0,0.0,0.0,0.0,0.0,0.0,0.0,0.0,0.0,0.0,4.0629,4.073,4.0146,4.0096,4.0096,4.0096,4.0248,4.0316,4.0316,4.1018,4.1779,4.2506,4.3115,4.3809,4.4615,4.4615,4.4615,4.4615,4.4615,4.4615,4.4615,4.4615,4.5444,4.6786,4.6786,4.7665,4.9001,4.9001,4.9001,4.9001,4.9001,4.9847,5.1014,5.1134,5.2114,5.3298,5.345,5.3501,5.3501,5.3501,5.3501,5.3501,5.3501,5.3501,5.3501,5.3501,5.3501,5.3687,5.4414,5.5158,5.5919,5.6647,5.7374,5.7881,5.7881,5.7881,5.7881,5.7881,5.7881,5.7881,5.7881,5.7391,5.7222,5.7814,5.7374,5.7239,5.7831,5.7881,5.7881,5.7881,5.7881,5.7881,5.7881,5.7881,5.7881,5.7881,5.7881,5.7881,5.7881,5.7881,5.7881,5.7881,5.7881,5.7881,5.7881,5.7881,5.7881,2.7469,2.7537,2.7588,2.6471,0.0,0.0,0.0,0.0,0.0,0.0,0.0,0.0,0.0,0.0,0.0,0.0,0.0,0.0,0.0,0.0,0.0,0.0,0.0,0.0,0.0,3.9884,4.024,4.0612,4.0646,4.0646,4.0646,4.0316,4.0096,4.0096,4.0468,4.1001,4.1745,4.2489,4.325,4.4012,4.4429,4.4615,4.4615,4.4615,4.4615,4.4615,4.4615,4.5444,4.6786,4.6786,4.7665,4.9001,4.9001,4.9001,4.9001,4.9001,4.9932,5.1185,5.1185,5.2215,5.3501,5.3501,5.3501,5.3501,5.3501,5.3501,5.3501,5.3501,5.3501,5.3501,5.3501,5.3501,5.3687,5.4414,5.4871,5.5361,5.6105,5.6833,5.734,5.734,5.7645,5.7881,5.7881,5.7881,5.7881,5.7881,5.7577,5.7476,5.7831,5.7577,5.7492,5.7848,5.7881,5.7881,5.7881,5.7881,5.7881,5.7881,5.7881,5.7881,5.7881,5.7881,5.7881,5.7881,5.7881,5.7881,5.7881,5.7881,5.7881,5.7881,5.7881,5.7881,0.0,0.0,0.0,0.0,0.0,2.7842,0.0,0.0,0.0,0.0,0.0,0.0,0.0,0.0,0.0,0.0,0.0,0.0,0.0,0.0,0.0,0.0,0.0,0.0,0.0,3.865,3.9309,4.1068,4.0679,4.0544,4.0967,4.0409,4.0096,4.0096,4.0096,4.0443,4.1204,4.1931,4.2675,4.3392,4.4215,4.4615,4.4615,4.4615,4.4615,4.4615,4.4615,4.5444,4.6786,4.6786,4.7665,4.9001,4.9001,4.9001,4.9001,4.9001,4.9847,5.1014,5.1134,5.2114,5.3298,5.345,5.3501,5.3501,5.3501,5.3501,5.3501,5.3501,5.3501,5.3501,5.3501,5.3501,5.3687,5.4414,5.4583,5.4803,5.5547,5.6292,5.6799,5.6799,5.7391,5.7881,5.7881,5.7881,5.7881,5.7881,5.7763,5.7729,5.7865,5.7763,5.7729,5.7865,5.7881,5.7881,5.7881,5.7881,5.7881,5.7881,5.7881,5.7881,5.7881,5.7881,5.7881,5.7881,5.7881,5.7881,5.7881,5.7881,5.7881,5.7881,5.7881,5.7881,0.0,0.0,0.0,0.0,3.0347,0.0,0.0,0.0,0.0,0.0,0.0,0.0,0.0,0.0,0.0,0.0,0.0,0.0,0.0,0.0,0.0,0.0,0.0,0.0,0.0,0.0,3.8193,4.1001,3.8768,3.8166,4.013,4.0146,4.0096,4.0096,4.0096,4.0443,4.1204,4.1931,4.2675,4.3392,4.4215,4.4615,4.4615,4.4615,4.4615,4.4615,4.4615,4.5444,4.6786,4.6786,4.7665,4.9001,4.9001,4.9001,4.9001,4.9001,4.9526,5.0321,5.098,5.1758,5.2553,5.3264,5.3501,5.3501,5.3501,5.3501,5.3501,5.3501,5.3501,5.3501,5.3501,5.3501,5.3687,5.4414,5.4583,5.4803,5.5547,5.6292,5.6799,5.6799,5.7391,5.7881,5.7881,5.7881,5.7881,5.7881,5.734,5.7154,5.7814,5.7323,5.7171,5.7814,5.7881,5.7881,5.7881,5.7881,5.7881,5.7881,5.7881,5.7881,5.7881,5.7881,5.7881,5.7881,5.7881,5.7881,5.7881,5.7881,5.7881,5.7881,5.7881,5.7881,0.0,0.0,0.0,0.0,0.0,0.0,2.7808,0.0,2.6996,0.0,0.0,0.0,0.0,0.0,0.0,0.0,0.0,0.0,0.0,0.0,0.0,0.0,0.0,0.0,0.0,0.0,0.0,0.0,0.0,3.821,4.0003,4.0113,4.0096,4.0096,4.0096,4.0248,4.0544,4.1711,4.2455,4.2777,4.3995,4.4615,4.4615,4.4615,4.4615,4.4615,4.4615,4.5444,4.6786,4.6786,4.7665,4.9001,4.9001,4.9001,4.9001,4.9001,4.9746,5.0777,5.1099,5.1995,5.3061,5.3399,5.3501,5.3501,5.3501,5.3501,5.3501,5.3501,5.3501,5.3501,5.3501,5.3501,5.3585,5.389,5.4279,5.4668,5.4989,5.5987,5.6799,5.6799,5.7391,5.7881,5.7881,5.7881,5.7881,5.7881,5.7628,5.7543,5.7848,5.7628,5.7543,5.7865,5.7881,5.7881,5.7881,5.7881,5.7881,5.7881,5.7881,5.7881,5.7881,5.7881,5.7881,5.7881,5.7881,5.7881,5.7881,5.7881,5.7881,5.7881,5.7881,5.7881,3.4269,0.0,0.0,0.0,0.0,0.0,0.0,0.0,0.0,0.0,0.0,0.0,0.0,0.0,0.0,0.0,0.0,0.0,0.0,0.0,0.0,0.0,0.0,0.0,0.0,0.0,0.0,0.0,0.0,0.0,3.9369,3.9681,3.9808,3.9808,3.9994,4.0096,4.0096,4.1568,4.2286,4.2303,4.387,4.4615,4.4615,4.4615,4.4615,4.4615,4.4615,4.5444,4.6786,4.6786,4.7665,4.9001,4.9001,4.9001,4.9001,4.9001,4.9813,5.0947,5.1117,5.2215,5.3501,5.3501,5.3501,5.3501,5.3501,5.3501,5.3501,5.3501,5.3501,5.3551,5.3754,5.3805,5.3856,5.4059,5.4515,5.4905,5.4905,5.5902,5.6799,5.6799,5.7391,5.7881,5.7881,5.7881,5.7881,5.7881,5.7729,5.7662,5.7865,5.7712,5.7679,5.7865,5.7881,5.7881,5.7881,5.7881,5.7881,5.7881,5.7881,5.7881,5.7881,5.7881,5.7881,5.7881,5.7881,5.7881,5.7881,5.7881,5.7918,5.7991,5.7991,5.7991,0.0,0.0,0.0,3.2138,0.0,0.0,0.0,0.0,2.977,0.0,0.0,0.0,0.0,0.0,0.0,0.0,0.0,0.0,0.0,0.0,0.0,0.0,0.0,0.0,0.0,0.0,0.0,0.0,0.0,0.0,3.7787,3.865,3.9039,3.9039,3.974,4.0096,4.0096,4.1568,4.2286,4.2303,4.387,4.4615,4.4615,4.4615,4.4615,4.4615,4.4615,4.5444,4.6786,4.6786,4.7665,4.9001,4.9001,4.9001,4.9001,4.9001,4.9475,5.0236,5.0963,5.2215,5.3501,5.3501,5.3501,5.3501,5.3501,5.3501,5.3501,5.3501,5.3501,5.367,5.438,5.4549,5.4735,5.548,5.5666,5.5647,5.5647,5.6275,5.6799,5.6799,5.7391,5.7881,5.7881,5.7881,5.7881,5.7881,5.7289,5.7087,5.7797,5.7273,5.7103,5.7814,5.7881,5.7881,5.7881,5.7881,5.7881,5.7881,5.7881,5.7881,5.7881,5.7881,5.7881,5.7881,5.7881,5.7881,5.7881,5.7881,5.7991,5.8188,5.8188,5.8188,0.0,0.0,3.7466,3.4201,0.0,0.0,0.0,0.0,0.0,0.0,0.0,0.0,0.0,0.0,0.0,0.0,0.0,0.0,0.0,0.0,0.0,0.0,0.0,0.0,0.0,0.0,0.0,0.0,3.3322,0.0,0.0,3.8328,3.8988,3.8988,3.9723,4.0096,4.0096,4.1568,4.2286,4.2303,4.387,4.4615,4.4615,4.4615,4.4615,4.4615,4.4615,4.5444,4.6786,4.6786,4.7665,4.9001,4.9001,4.9001,4.9001,4.9001,4.9779,5.1014,5.2283,5.3061,5.3501,5.3501,5.3501,5.3501,5.3501,5.3501,5.3501,5.3501,5.3501,5.367,5.4397,5.4583,5.4786,5.553,5.6089,5.6444,5.6444,5.7002,5.7526,5.7526,5.7729,5.7881,5.7881,5.7881,5.7881,5.7881,5.7679,5.7611,5.7865,5.7679,5.7611,5.7865,5.7881,5.7881,5.7881,5.7881,5.7881,5.7881,5.7881,5.7881,5.7881,5.7881,5.7881,5.7881,5.7881,5.7971,5.8116,5.7954,5.808,5.8419,5.8419,5.8419,3.8041,3.8447,0.0,3.5571,3.4539,0.0,3.0787,0.0,0.0,0.0,0.0,0.0,0.0,0.0,0.0,0.0,0.0,0.0,0.0,0.0,0.0,0.0,0.0,0.0,0.0,0.0,3.0057,3.2141,3.2002,0.0,0.0,0.0,3.8616,3.8616,3.9588,4.0231,4.0476,4.1677,4.2422,4.2709,4.4005,4.4615,4.4615,4.4615,4.4615,4.4615,4.4874,4.5669,4.6802,4.7073,4.7902,4.9001,4.9001,4.9001,4.9001,4.9001,4.9932,5.1437,5.2976,5.3501,5.3501,5.3501,5.3501,5.3501,5.3501,5.3501,5.3501,5.3501,5.3501,5.3737,5.4735,5.4989,5.5243,5.6241,5.685,5.7188,5.7188,5.756,5.7881,5.7881,5.7881,5.7881,5.7881,5.7881,5.7881,5.7881,5.7881,5.7881,5.7881,5.7881,5.7881,5.7881,5.7881,5.7881,5.7881,5.7881,5.7881,5.7881,5.7881,5.7881,5.7881,5.7881,5.7881,5.7881,5.7954,5.808,5.8188,5.8152,5.8295,5.8596,5.8596,5.8631]}]]